[[{"header":{"parameterUnit":"m.s-1","parameterCategory":1,"la1":31.0,"la2":29.5877,"lo1":-88.7671,"lo2":-86.6584,"dy":0.0162,"dx":0.0185,"nx":115,"ny":88,"refTime":"2024-06-18T12:00:00:Z","depth":0,"parameterNumber":2,"parameterNumberName":"U-component_of_WINDS"},"data":[0.0,0.0,0.0,0.0,0.0,0.0,0.0,0.0,0.0,0.0,0.0,0.0,0.0,0.0,0.0,0.0,0.0,0.0,0.0,0.0,0.0,0.0,0.0,0.0,0.0,0.0,0.0,0.0,0.0,0.0,0.0,0.0,0.0,0.0,0.0,0.0,0.0,0.0,0.0,0.0,0.0,0.0,0.0,0.0,0.0,0.0,0.0,0.0,0.0,0.0,0.0,0.0,0.0,0.0,0.0,0.0,0.0,0.0,0.0,0.0,0.0,0.0,0.0,0.0,0.0,0.0,0.0,0.0,0.0,0.0,0.0,0.0,0.0,0.0,0.0,0.0,0.0,0.0,0.0,0.0,0.0,0.0,0.0,0.0,0.0,0.0,0.0,0.0,0.0,0.0,0.0,0.0,0.0,0.0,0.0,0.0,0.0,0.0,0.0,0.0,0.0,0.0,0.0,0.0,0.0,0.0,0.0,0.0,0.0,0.0,0.0,0.0,0.0,0.0,0.0,0.0,0.0,0.0,0.0,0.0,0.0,0.0,0.0,0.0,0.0,0.0,0.0,0.0,0.0,0.0,0.0,0.0,0.0,0.0,0.0,0.0,0.0,0.0,0.0,0.0,0.0,0.0,0.0,0.0,0.0,0.0,0.0,0.0,0.0,0.0,0.0,0.0,0.0,0.0,0.0,0.0,0.0,0.0,0.0,0.0,0.0,0.0,0.0,0.0,0.0,0.0,0.0,0.0,0.0,0.0,0.0,0.0,0.0,0.0,0.0,0.0,0.0,0.0,0.0,0.0,0.0,0.0,0.0,0.0,0.0,0.0,0.0,0.0,0.0,0.0,0.0,0.0,0.0,0.0,0.0,0.0,0.0,0.0,0.0,0.0,0.0,0.0,0.0,0.0,0.0,0.0,0.0,0.0,0.0,0.0,0.0,0.0,0.0,0.0,0.0,0.0,0.0,0.0,0.0,0.0,0.0,0.0,0.0,0.0,0.0,0.0,0.0,0.0,0.0,0.0,0.0,0.0,0.0,0.0,0.0,0.0,0.0,0.0,0.0,0.0,0.0,0.0,0.0,0.0,0.0,0.0,0.0,0.0,0.0,0.0,0.0,0.0,0.0,0.0,0.0,0.0,0.0,0.0,0.0,0.0,0.0,0.0,0.0,0.0,0.0,0.0,0.0,0.0,0.0,0.0,0.0,0.0,0.0,0.0,0.0,0.0,0.0,0.0,0.0,0.0,0.0,0.0,0.0,0.0,0.0,0.0,0.0,0.0,0.0,0.0,0.0,0.0,0.0,0.0,0.0,0.0,0.0,0.0,0.0,0.0,0.0,0.0,0.0,0.0,0.0,0.0,0.0,0.0,0.0,0.0,0.0,0.0,0.0,0.0,0.0,0.0,0.0,0.0,0.0,0.0,0.0,0.0,0.0,0.0,0.0,0.0,0.0,0.0,0.0,0.0,0.0,0.0,0.0,0.0,0.0,0.0,0.0,0.0,0.0,0.0,0.0,0.0,0.0,0.0,0.0,0.0,0.0,0.0,0.0,0.0,0.0,0.0,0.0,0.0,0.0,0.0,0.0,0.0,0.0,0.0,0.0,0.0,0.0,0.0,0.0,0.0,0.0,0.0,0.0,0.0,0.0,0.0,0.0,0.0,0.0,0.0,0.0,0.0,0.0,0.0,0.0,0.0,0.0,0.0,0.0,0.0,0.0,0.0,0.0,0.0,0.0,0.0,0.0,0.0,0.0,0.0,0.0,0.0,0.0,0.0,0.0,0.0,0.0,0.0,0.0,0.0,0.0,0.0,0.0,0.0,0.0,0.0,0.0,0.0,0.0,0.0,0.0,0.0,0.0,0.0,0.0,0.0,0.0,0.0,0.0,0.0,0.0,0.0,0.0,0.0,0.0,0.0,0.0,0.0,0.0,0.0,0.0,0.0,0.0,0.0,0.0,0.0,0.0,0.0,0.0,0.0,0.0,0.0,0.0,0.0,0.0,0.0,0.0,0.0,0.0,0.0,0.0,0.0,0.0,0.0,0.0,0.0,0.0,0.0,0.0,0.0,0.0,0.0,0.0,0.0,0.0,0.0,0.0,0.0,0.0,0.0,0.0,0.0,0.0,0.0,0.0,0.0,0.0,0.0,0.0,0.0,0.0,0.0,0.0,0.0,0.0,0.0,0.0,0.0,0.0,0.0,0.0,0.0,0.0,0.0,0.0,0.0,0.0,0.0,0.0,0.0,0.0,0.0,0.0,0.0,0.0,0.0,0.0,0.0,0.0,0.0,0.0,0.0,0.0,0.0,0.0,0.0,0.0,0.0,0.0,0.0,0.0,0.0,0.0,0.0,0.0,0.0,0.0,0.0,0.0,0.0,0.0,0.0,0.0,0.0,0.0,0.0,0.0,0.0,0.0,0.0,0.0,0.0,0.0,0.0,0.0,0.0,0.0,0.0,0.0,0.0,0.0,0.0,0.0,0.0,0.0,0.0,0.0,0.0,0.0,0.0,0.0,0.0,0.0,0.0,0.0,0.0,0.0,0.0,0.0,0.0,0.0,0.0,0.0,0.0,0.0,0.0,0.0,0.0,0.0,0.0,0.0,0.0,0.0,0.0,0.0,0.0,0.0,0.0,0.0,0.0,0.0,0.0,0.0,0.0,0.0,0.0,0.0,0.0,0.0,0.0,0.0,0.0,0.0,0.0,0.0,0.0,0.0,0.0,0.0,0.0,0.0,0.0,0.0,0.0,0.0,0.0,0.0,0.0,0.0,0.0,0.0,0.0,0.0,0.0,0.0,0.0,0.0,0.0,0.0,0.0,0.0,0.0,0.0,0.0,0.0,0.0,0.0,0.0,0.0,0.0,0.0,0.0,0.0,0.0,0.0,0.0,0.0,0.0,0.0,0.0,0.0,0.0,0.0,0.0,0.0,0.0,0.0,0.0,0.0,0.0,0.0,0.0,0.0,0.0,0.0,0.0,0.0,0.0,0.0,0.0,0.0,0.0,0.0,0.0,0.0,0.0,0.0,0.0,0.0,0.0,0.0,0.0,0.0,0.0,0.0,0.0,0.0,0.0,0.0,0.0,0.0,0.0,0.0,0.0,0.0,0.0,0.0,0.0,0.0,0.0,0.0,0.0,0.0,0.0,0.0,0.0,0.0,0.0,0.0,0.0,0.0,0.0,0.0,0.0,0.0,0.0,0.0,0.0,0.0,0.0,0.0,0.0,0.0,0.0,0.0,0.0,0.0,0.0,0.0,0.0,0.0,0.0,0.0,0.0,0.0,0.0,0.0,0.0,0.0,0.0,0.0,0.0,0.0,0.0,0.0,0.0,0.0,0.0,0.0,0.0,0.0,0.0,0.0,0.0,0.0,0.0,0.0,0.0,0.0,0.0,0.0,0.0,0.0,0.0,0.0,0.0,0.0,0.0,0.0,0.0,0.0,0.0,0.0,0.0,0.0,0.0,0.0,0.0,0.0,0.0,0.0,0.0,0.0,0.0,0.0,0.0,0.0,0.0,0.0,0.0,0.0,0.0,0.0,0.0,0.0,0.0,0.0,0.0,0.0,0.0,0.0,0.0,0.0,0.0,0.0,0.0,0.0,0.0,0.0,0.0,0.0,0.0,0.0,0.0,0.0,0.0,0.0,0.0,0.0,0.0,0.0,0.0,0.0,0.0,0.0,0.0,0.0,0.0,0.0,0.0,0.0,0.0,0.0,0.0,0.0,0.0,0.0,0.0,0.0,0.0,0.0,0.0,0.0,0.0,0.0,0.0,0.0,0.0,0.0,0.0,0.0,0.0,0.0,0.0,0.0,0.0,0.0,0.0,0.0,0.0,0.0,0.0,0.0,0.0,0.0,0.0,0.0,0.0,0.0,0.0,0.0,0.0,0.0,0.0,0.0,0.0,0.0,0.0,0.0,0.0,0.0,0.0,0.0,0.0,0.0,0.0,0.0,0.0,0.0,0.0,0.0,0.0,0.0,0.0,0.0,0.0,0.0,0.0,0.0,0.0,0.0,0.0,0.0,0.0,0.0,0.0,0.0,0.0,0.0,0.0,0.0,0.0,0.0,0.0,0.0,0.0,0.0,0.0,0.0,0.0,0.0,0.0,0.0,0.0,0.0,0.0,0.0,0.0,0.0,0.0,0.0,0.0,0.0,0.0,0.0,0.0,0.0,0.0,0.0,0.0,0.0,0.0,0.0,0.0,0.0,0.0,0.0,0.0,0.0,0.0,0.0,0.0,0.0,0.0,0.0,0.0,0.0,0.0,0.0,0.0,-2.03,0.0,0.0,0.0,0.0,0.0,0.0,0.0,0.0,0.0,0.0,0.0,0.0,0.0,0.0,0.0,0.0,0.0,0.0,0.0,0.0,0.0,0.0,0.0,0.0,0.0,0.0,0.0,0.0,0.0,0.0,0.0,0.0,0.0,0.0,0.0,0.0,0.0,0.0,0.0,0.0,0.0,0.0,0.0,0.0,0.0,0.0,0.0,0.0,0.0,0.0,0.0,0.0,0.0,0.0,0.0,0.0,0.0,0.0,0.0,0.0,0.0,0.0,0.0,0.0,0.0,0.0,0.0,0.0,0.0,0.0,0.0,0.0,0.0,0.0,0.0,0.0,0.0,0.0,0.0,0.0,0.0,0.0,0.0,0.0,0.0,0.0,0.0,0.0,0.0,0.0,0.0,0.0,0.0,0.0,0.0,0.0,0.0,0.0,0.0,0.0,0.0,0.0,0.0,0.0,0.0,0.0,0.0,0.0,0.0,0.0,-2.1866,-2.2644,-2.1133,-2.03,-2.03,0.0,0.0,0.0,0.0,0.0,0.0,0.0,0.0,0.0,0.0,0.0,0.0,0.0,0.0,0.0,0.0,0.0,0.0,0.0,0.0,0.0,0.0,0.0,0.0,0.0,0.0,0.0,0.0,0.0,0.0,0.0,0.0,0.0,0.0,0.0,0.0,0.0,0.0,0.0,0.0,0.0,0.0,0.0,0.0,0.0,0.0,0.0,0.0,0.0,0.0,0.0,0.0,0.0,0.0,0.0,0.0,0.0,0.0,0.0,0.0,0.0,0.0,0.0,0.0,0.0,0.0,0.0,0.0,0.0,0.0,0.0,0.0,0.0,0.0,0.0,0.0,0.0,0.0,0.0,0.0,0.0,0.0,0.0,0.0,0.0,0.0,0.0,0.0,0.0,0.0,0.0,0.0,0.0,0.0,0.0,0.0,0.0,0.0,0.0,0.0,0.0,0.0,0.0,0.0,0.0,0.0,0.0,0.0,0.0,0.0,0.0,0.0,-2.1757,-2.0916,-2.1106,0.0,0.0,0.0,0.0,0.0,0.0,0.0,0.0,0.0,0.0,0.0,0.0,0.0,0.0,0.0,0.0,0.0,0.0,0.0,0.0,0.0,0.0,0.0,0.0,0.0,0.0,0.0,0.0,0.0,0.0,0.0,0.0,0.0,0.0,0.0,0.0,0.0,0.0,0.0,0.0,0.0,0.0,0.0,0.0,0.0,0.0,0.0,0.0,0.0,0.0,0.0,0.0,0.0,0.0,0.0,0.0,0.0,0.0,0.0,0.0,0.0,0.0,0.0,0.0,0.0,0.0,0.0,0.0,0.0,0.0,0.0,0.0,0.0,0.0,0.0,0.0,0.0,0.0,0.0,0.0,0.0,0.0,0.0,0.0,0.0,0.0,0.0,0.0,0.0,0.0,0.0,0.0,0.0,0.0,0.0,0.0,0.0,0.0,0.0,0.0,0.0,0.0,0.0,0.0,0.0,0.0,0.0,0.0,0.0,0.0,-2.1405,-2.5697,-2.3658,0.0,-2.3443,0.0,0.0,0.0,0.0,0.0,0.0,0.0,0.0,0.0,0.0,0.0,0.0,0.0,0.0,0.0,0.0,0.0,0.0,0.0,0.0,0.0,0.0,0.0,0.0,0.0,0.0,0.0,0.0,0.0,0.0,0.0,0.0,0.0,0.0,0.0,0.0,0.0,0.0,0.0,0.0,0.0,0.0,0.0,0.0,0.0,0.0,0.0,0.0,0.0,0.0,0.0,0.0,0.0,0.0,0.0,0.0,0.0,0.0,0.0,0.0,0.0,0.0,0.0,0.0,0.0,0.0,0.0,0.0,0.0,0.0,0.0,0.0,0.0,0.0,0.0,0.0,0.0,0.0,0.0,0.0,0.0,0.0,0.0,0.0,0.0,0.0,0.0,0.0,0.0,0.0,0.0,0.0,0.0,0.0,0.0,0.0,0.0,0.0,0.0,0.0,0.0,0.0,0.0,0.0,0.0,0.0,0.0,0.0,0.0,0.0,-2.2365,-2.4719,-2.3423,-2.2843,0.0,0.0,0.0,0.0,0.0,0.0,0.0,0.0,0.0,0.0,0.0,0.0,0.0,0.0,0.0,0.0,0.0,0.0,0.0,0.0,0.0,0.0,0.0,0.0,0.0,0.0,0.0,0.0,0.0,0.0,0.0,0.0,0.0,0.0,0.0,0.0,0.0,0.0,0.0,0.0,0.0,0.0,0.0,0.0,0.0,0.0,0.0,0.0,0.0,0.0,0.0,0.0,0.0,0.0,0.0,0.0,0.0,0.0,0.0,0.0,0.0,0.0,0.0,0.0,0.0,0.0,0.0,0.0,0.0,0.0,0.0,0.0,0.0,0.0,0.0,0.0,0.0,0.0,0.0,0.0,0.0,0.0,0.0,0.0,0.0,0.0,0.0,0.0,0.0,0.0,0.0,0.0,0.0,0.0,0.0,0.0,0.0,0.0,0.0,0.0,0.0,0.0,0.0,0.0,0.0,0.0,0.0,0.0,0.0,0.0,-2.2554,0.0,-2.4357,-2.3958,-2.3379,-2.2717,0.0,0.0,0.0,0.0,0.0,0.0,0.0,0.0,0.0,0.0,0.0,0.0,0.0,0.0,0.0,0.0,0.0,0.0,0.0,0.0,0.0,0.0,0.0,0.0,0.0,0.0,0.0,0.0,0.0,0.0,0.0,0.0,0.0,0.0,0.0,0.0,0.0,0.0,0.0,0.0,0.0,0.0,0.0,0.0,0.0,0.0,0.0,0.0,0.0,0.0,0.0,0.0,0.0,0.0,0.0,0.0,0.0,0.0,0.0,0.0,0.0,0.0,0.0,0.0,0.0,0.0,0.0,0.0,0.0,0.0,0.0,0.0,0.0,0.0,0.0,0.0,0.0,0.0,0.0,0.0,0.0,0.0,0.0,0.0,0.0,0.0,0.0,0.0,0.0,0.0,0.0,0.0,0.0,0.0,0.0,0.0,0.0,0.0,0.0,0.0,0.0,0.0,0.0,0.0,0.0,0.0,0.0,0.0,0.0,-2.4165,-2.3785,-2.6011,-2.6041,-2.4998,0.0,0.0,0.0,0.0,0.0,0.0,0.0,0.0,0.0,0.0,0.0,0.0,0.0,0.0,0.0,0.0,0.0,0.0,0.0,0.0,0.0,0.0,0.0,0.0,0.0,0.0,0.0,0.0,0.0,0.0,0.0,0.0,0.0,0.0,0.0,0.0,0.0,0.0,0.0,0.0,0.0,0.0,0.0,0.0,0.0,0.0,0.0,0.0,0.0,0.0,0.0,0.0,0.0,0.0,0.0,0.0,0.0,0.0,0.0,0.0,0.0,0.0,0.0,0.0,0.0,0.0,0.0,0.0,0.0,0.0,0.0,0.0,0.0,0.0,0.0,0.0,0.0,0.0,0.0,0.0,0.0,0.0,0.0,0.0,0.0,0.0,0.0,0.0,0.0,0.0,0.0,0.0,0.0,0.0,0.0,0.0,0.0,0.0,0.0,0.0,0.0,0.0,0.0,0.0,0.0,0.0,0.0,0.0,0.0,-2.1984,-2.2463,-2.4545,-2.8226,-2.557,-2.4255,0.0,0.0,0.0,0.0,0.0,0.0,0.0,0.0,0.0,0.0,0.0,0.0,0.0,0.0,0.0,0.0,0.0,0.0,0.0,0.0,0.0,0.0,0.0,0.0,0.0,0.0,0.0,0.0,0.0,0.0,0.0,0.0,0.0,0.0,0.0,0.0,0.0,0.0,0.0,0.0,0.0,0.0,0.0,0.0,0.0,0.0,0.0,0.0,0.0,0.0,0.0,0.0,0.0,0.0,0.0,0.0,0.0,0.0,0.0,0.0,0.0,0.0,0.0,0.0,0.0,0.0,0.0,0.0,0.0,0.0,0.0,0.0,0.0,0.0,0.0,0.0,0.0,0.0,0.0,0.0,0.0,0.0,0.0,0.0,0.0,0.0,0.0,0.0,0.0,0.0,0.0,0.0,0.0,0.0,0.0,0.0,0.0,0.0,0.0,0.0,0.0,0.0,0.0,0.0,0.0,0.0,0.0,0.0,0.0,-2.1498,0.0,-2.6288,0.0,-2.5627,-2.3922,0.0,0.0,0.0,0.0,0.0,0.0,0.0,0.0,0.0,0.0,0.0,0.0,0.0,0.0,0.0,0.0,0.0,0.0,0.0,0.0,0.0,0.0,0.0,0.0,0.0,0.0,0.0,0.0,0.0,0.0,0.0,0.0,0.0,0.0,0.0,0.0,0.0,0.0,0.0,0.0,0.0,0.0,0.0,0.0,0.0,0.0,0.0,0.0,0.0,0.0,0.0,0.0,0.0,0.0,0.0,0.0,0.0,0.0,0.0,0.0,0.0,0.0,0.0,0.0,0.0,0.0,0.0,0.0,0.0,0.0,0.0,0.0,0.0,0.0,0.0,0.0,0.0,0.0,0.0,0.0,0.0,0.0,0.0,0.0,0.0,0.0,0.0,0.0,0.0,0.0,0.0,0.0,0.0,0.0,0.0,0.0,0.0,0.0,0.0,0.0,0.0,0.0,0.0,0.0,0.0,0.0,0.0,0.0,-2.1571,-2.6185,-2.8611,-2.8739,-2.6683,-2.6463,-2.4175,0.0,0.0,0.0,0.0,0.0,0.0,0.0,0.0,0.0,0.0,0.0,0.0,0.0,0.0,0.0,0.0,0.0,0.0,0.0,0.0,0.0,0.0,0.0,0.0,0.0,0.0,0.0,0.0,0.0,0.0,0.0,0.0,0.0,0.0,0.0,0.0,0.0,0.0,0.0,0.0,0.0,0.0,0.0,0.0,0.0,0.0,0.0,0.0,0.0,0.0,0.0,0.0,0.0,0.0,0.0,0.0,0.0,0.0,0.0,0.0,0.0,0.0,0.0,0.0,0.0,0.0,0.0,0.0,0.0,0.0,0.0,0.0,0.0,0.0,0.0,0.0,0.0,0.0,0.0,0.0,0.0,0.0,0.0,0.0,0.0,0.0,0.0,0.0,0.0,0.0,0.0,0.0,0.0,0.0,0.0,0.0,0.0,0.0,0.0,0.0,0.0,0.0,0.0,0.0,0.0,0.0,0.0,0.0,0.0,-2.4673,-2.6728,-2.8496,-2.9702,-2.666,-2.4987,0.0,0.0,0.0,0.0,0.0,0.0,0.0,0.0,0.0,0.0,0.0,0.0,0.0,0.0,0.0,0.0,0.0,0.0,0.0,0.0,0.0,0.0,0.0,0.0,0.0,0.0,0.0,0.0,0.0,0.0,0.0,0.0,0.0,0.0,0.0,0.0,0.0,0.0,0.0,0.0,0.0,0.0,0.0,0.0,0.0,0.0,0.0,0.0,0.0,0.0,0.0,0.0,0.0,0.0,0.0,0.0,0.0,0.0,0.0,0.0,0.0,0.0,0.0,0.0,0.0,0.0,0.0,0.0,0.0,0.0,0.0,0.0,0.0,0.0,0.0,0.0,0.0,0.0,0.0,0.0,0.0,0.0,0.0,0.0,0.0,0.0,0.0,0.0,0.0,0.0,0.0,0.0,0.0,0.0,0.0,0.0,0.0,0.0,0.0,0.0,0.0,0.0,0.0,0.0,0.0,0.0,0.0,0.0,0.0,-2.8003,-2.9821,-3.1161,-3.1912,-2.8606,-2.6539,-2.5923,0.0,0.0,0.0,0.0,0.0,0.0,0.0,0.0,0.0,0.0,0.0,0.0,0.0,0.0,0.0,0.0,0.0,0.0,0.0,0.0,0.0,0.0,0.0,0.0,0.0,0.0,0.0,0.0,0.0,0.0,0.0,0.0,0.0,0.0,0.0,0.0,0.0,0.0,0.0,0.0,0.0,0.0,0.0,0.0,0.0,0.0,0.0,0.0,0.0,0.0,0.0,0.0,0.0,0.0,0.0,0.0,0.0,0.0,0.0,0.0,0.0,0.0,0.0,0.0,0.0,0.0,0.0,0.0,0.0,0.0,0.0,0.0,0.0,0.0,0.0,0.0,0.0,0.0,0.0,0.0,0.0,0.0,0.0,0.0,0.0,0.0,0.0,0.0,0.0,0.0,0.0,0.0,0.0,0.0,0.0,0.0,0.0,0.0,0.0,0.0,0.0,0.0,0.0,0.0,0.0,0.0,0.0,0.0,-3.5031,-3.7011,-3.6555,-3.3517,-3.2113,-2.8897,0.0,0.0,0.0,0.0,0.0,0.0,0.0,0.0,0.0,0.0,0.0,0.0,0.0,0.0,0.0,0.0,0.0,0.0,0.0,0.0,0.0,0.0,0.0,0.0,0.0,0.0,0.0,0.0,0.0,0.0,0.0,0.0,0.0,0.0,0.0,0.0,0.0,0.0,0.0,0.0,0.0,0.0,0.0,0.0,0.0,0.0,0.0,0.0,0.0,0.0,0.0,0.0,0.0,0.0,0.0,0.0,0.0,0.0,0.0,0.0,0.0,0.0,0.0,0.0,0.0,0.0,0.0,0.0,0.0,0.0,0.0,0.0,0.0,0.0,0.0,0.0,0.0,0.0,0.0,0.0,0.0,0.0,0.0,0.0,0.0,0.0,0.0,0.0,0.0,0.0,0.0,0.0,0.0,0.0,0.0,0.0,0.0,0.0,0.0,0.0,0.0,0.0,0.0,0.0,0.0,0.0,0.0,0.0,0.0,-3.8404,-4.1765,-4.2381,-3.9954,-3.5491,-3.1929,0.0,0.0,0.0,0.0,0.0,0.0,0.0,0.0,0.0,0.0,0.0,0.0,0.0,0.0,0.0,0.0,0.0,0.0,0.0,0.0,0.0,0.0,0.0,0.0,0.0,0.0,0.0,0.0,0.0,0.0,0.0,0.0,0.0,0.0,0.0,0.0,0.0,0.0,0.0,0.0,0.0,0.0,0.0,0.0,0.0,0.0,0.0,0.0,0.0,0.0,0.0,0.0,0.0,0.0,0.0,0.0,0.0,0.0,0.0,0.0,0.0,0.0,0.0,0.0,0.0,0.0,0.0,0.0,0.0,0.0,0.0,0.0,0.0,0.0,0.0,0.0,0.0,0.0,0.0,0.0,0.0,0.0,0.0,0.0,0.0,0.0,0.0,0.0,0.0,0.0,0.0,0.0,0.0,0.0,0.0,0.0,0.0,0.0,0.0,0.0,0.0,0.0,0.0,0.0,0.0,0.0,0.0,0.0,-3.7022,-4.1003,-4.5514,-4.7187,-4.5747,-3.9905,-3.5086,0.0,0.0,0.0,0.0,0.0,0.0,0.0,0.0,0.0,0.0,0.0,0.0,0.0,0.0,0.0,0.0,0.0,0.0,0.0,0.0,0.0,0.0,0.0,0.0,0.0,0.0,0.0,0.0,0.0,0.0,0.0,0.0,0.0,0.0,0.0,0.0,0.0,0.0,0.0,0.0,0.0,0.0,0.0,0.0,0.0,0.0,0.0,0.0,0.0,0.0,0.0,0.0,0.0,0.0,0.0,0.0,0.0,0.0,0.0,0.0,0.0,0.0,0.0,0.0,0.0,0.0,0.0,0.0,0.0,0.0,0.0,0.0,0.0,0.0,0.0,0.0,0.0,0.0,0.0,0.0,0.0,0.0,0.0,0.0,0.0,0.0,0.0,0.0,0.0,0.0,0.0,0.0,0.0,0.0,0.0,0.0,0.0,0.0,0.0,0.0,0.0,0.0,0.0,0.0,0.0,0.0,0.0,0.0,-4.0111,-4.328,-4.84,-5.0805,-5.0132,-4.4203,-3.8089,0.0,0.0,0.0,0.0,0.0,0.0,0.0,0.0,0.0,0.0,0.0,0.0,0.0,0.0,0.0,0.0,0.0,0.0,0.0,0.0,0.0,0.0,0.0,0.0,0.0,0.0,0.0,0.0,0.0,0.0,0.0,0.0,0.0,0.0,0.0,0.0,0.0,0.0,0.0,0.0,0.0,0.0,0.0,0.0,0.0,0.0,0.0,0.0,0.0,0.0,0.0,0.0,0.0,0.0,0.0,0.0,0.0,0.0,0.0,0.0,0.0,0.0,0.0,0.0,0.0,0.0,0.0,0.0,0.0,0.0,0.0,0.0,0.0,0.0,0.0,0.0,0.0,0.0,0.0,0.0,0.0,0.0,0.0,0.0,0.0,0.0,0.0,0.0,0.0,0.0,0.0,0.0,0.0,0.0,0.0,0.0,0.0,0.0,0.0,0.0,0.0,0.0,0.0,0.0,0.0,0.0,0.0,0.0,-4.0959,-4.638,-4.9856,-5.1362,-5.0823,-4.4428,-3.9231,0.0,0.0,0.0,0.0,0.0,0.0,0.0,0.0,0.0,0.0,0.0,0.0,0.0,0.0,0.0,0.0,0.0,0.0,0.0,0.0,0.0,0.0,0.0,0.0,0.0,0.0,0.0,0.0,0.0,0.0,0.0,0.0,0.0,0.0,0.0,0.0,0.0,0.0,0.0,0.0,0.0,0.0,0.0,0.0,0.0,0.0,0.0,0.0,-2.1584,0.0,0.0,0.0,0.0,0.0,0.0,0.0,0.0,0.0,0.0,0.0,0.0,0.0,0.0,0.0,0.0,0.0,0.0,0.0,0.0,0.0,0.0,0.0,0.0,0.0,0.0,0.0,0.0,0.0,0.0,0.0,0.0,0.0,0.0,0.0,0.0,0.0,0.0,0.0,0.0,0.0,0.0,0.0,0.0,0.0,0.0,0.0,0.0,0.0,0.0,0.0,0.0,0.0,0.0,0.0,0.0,0.0,0.0,0.0,-4.2809,-4.8041,-5.1212,-5.2302,-5.1084,-4.6323,-4.1391,0.0,0.0,0.0,0.0,0.0,0.0,0.0,0.0,0.0,0.0,0.0,0.0,0.0,0.0,0.0,0.0,0.0,0.0,0.0,0.0,0.0,0.0,0.0,0.0,0.0,0.0,0.0,0.0,0.0,0.0,0.0,0.0,0.0,0.0,0.0,0.0,0.0,0.0,0.0,0.0,0.0,0.0,0.0,0.0,0.0,0.0,0.0,0.0,0.0,0.0,0.0,0.0,0.0,0.0,0.0,0.0,0.0,0.0,0.0,0.0,0.0,0.0,0.0,0.0,0.0,0.0,0.0,0.0,0.0,0.0,0.0,0.0,0.0,0.0,0.0,0.0,0.0,0.0,0.0,0.0,0.0,0.0,0.0,0.0,0.0,0.0,0.0,0.0,0.0,0.0,0.0,0.0,0.0,0.0,0.0,0.0,0.0,0.0,0.0,0.0,0.0,0.0,0.0,0.0,0.0,0.0,0.0,-3.9361,-4.4485,-4.945,-5.2345,-5.2995,-5.1359,-4.8284,-4.3358,-3.6554,0.0,0.0,0.0,0.0,0.0,0.0,0.0,0.0,0.0,0.0,0.0,0.0,0.0,0.0,0.0,0.0,0.0,0.0,0.0,0.0,0.0,0.0,0.0,0.0,0.0,0.0,0.0,0.0,0.0,0.0,0.0,0.0,0.0,0.0,0.0,0.0,0.0,0.0,-2.1252,-2.2358,0.0,0.0,0.0,0.0,0.0,0.0,0.0,0.0,-2.4232,0.0,0.0,0.0,0.0,0.0,0.0,0.0,0.0,0.0,0.0,0.0,0.0,0.0,0.0,0.0,0.0,0.0,0.0,0.0,0.0,0.0,0.0,0.0,0.0,0.0,0.0,0.0,0.0,0.0,0.0,0.0,0.0,0.0,0.0,0.0,0.0,0.0,0.0,0.0,0.0,0.0,0.0,0.0,0.0,0.0,0.0,0.0,0.0,0.0,0.0,0.0,0.0,0.0,0.0,0.0,0.0,-3.9506,-3.9785,-4.3889,-5.2103,-5.2858,-5.2465,-5.1044,-4.792,-4.3164,-3.6816,0.0,0.0,0.0,0.0,0.0,0.0,0.0,0.0,0.0,0.0,0.0,0.0,0.0,0.0,0.0,0.0,0.0,0.0,0.0,0.0,0.0,0.0,0.0,0.0,0.0,0.0,0.0,0.0,0.0,0.0,0.0,0.0,0.0,0.0,0.0,0.0,0.0,0.0,0.0,-2.549,-2.6014,0.0,0.0,0.0,0.0,0.0,0.0,0.0,0.0,-2.5188,0.0,0.0,0.0,0.0,0.0,0.0,0.0,0.0,0.0,0.0,0.0,0.0,0.0,0.0,0.0,0.0,0.0,0.0,0.0,0.0,0.0,0.0,0.0,0.0,0.0,0.0,0.0,0.0,0.0,0.0,0.0,0.0,0.0,0.0,0.0,0.0,0.0,0.0,0.0,0.0,0.0,0.0,0.0,0.0,0.0,0.0,0.0,0.0,0.0,0.0,0.0,0.0,0.0,0.0,0.0,-3.8744,-4.1508,-4.5882,-5.2123,-5.2913,-5.271,-5.1578,-4.7519,-4.2761,0.0,0.0,0.0,0.0,0.0,0.0,0.0,0.0,0.0,0.0,0.0,0.0,0.0,0.0,0.0,0.0,0.0,0.0,0.0,0.0,0.0,0.0,0.0,0.0,0.0,0.0,0.0,0.0,0.0,0.0,0.0,0.0,0.0,0.0,0.0,0.0,0.0,0.0,0.0,0.0,-2.7341,-2.8205,-2.8766,0.0,0.0,0.0,0.0,0.0,0.0,-2.6829,-2.6104,0.0,0.0,0.0,0.0,0.0,0.0,0.0,0.0,0.0,0.0,0.0,0.0,0.0,0.0,0.0,0.0,0.0,0.0,0.0,0.0,0.0,0.0,0.0,0.0,0.0,0.0,0.0,0.0,0.0,0.0,0.0,0.0,0.0,0.0,0.0,0.0,0.0,0.0,0.0,0.0,0.0,0.0,0.0,0.0,0.0,0.0,0.0,0.0,0.0,0.0,0.0,0.0,0.0,0.0,0.0,-3.7357,-4.2787,-4.7611,-5.1699,-5.288,-5.3039,-5.223,-4.7175,-4.2352,0.0,0.0,0.0,0.0,0.0,0.0,0.0,0.0,0.0,0.0,0.0,0.0,0.0,0.0,0.0,0.0,0.0,0.0,0.0,0.0,0.0,0.0,0.0,0.0,0.0,0.0,0.0,0.0,0.0,0.0,0.0,0.0,0.0,0.0,0.0,0.0,0.0,0.0,0.0,0.0,0.0,-3.0021,-3.0248,-2.9593,0.0,0.0,0.0,0.0,-2.8293,-2.8577,0.0,0.0,0.0,0.0,0.0,0.0,0.0,0.0,0.0,0.0,0.0,0.0,0.0,0.0,0.0,0.0,0.0,0.0,0.0,0.0,0.0,0.0,0.0,0.0,0.0,0.0,0.0,0.0,0.0,0.0,0.0,0.0,0.0,0.0,0.0,0.0,0.0,0.0,0.0,0.0,0.0,0.0,0.0,0.0,0.0,0.0,0.0,0.0,0.0,0.0,0.0,0.0,0.0,0.0,0.0,0.0,-3.7257,-4.1781,-4.6665,-5.1871,-5.2962,-5.3157,-5.2586,-4.7078,-4.2114,0.0,0.0,0.0,0.0,0.0,0.0,0.0,0.0,0.0,0.0,0.0,0.0,0.0,0.0,0.0,0.0,0.0,0.0,0.0,0.0,0.0,0.0,0.0,0.0,0.0,0.0,0.0,0.0,0.0,0.0,0.0,0.0,0.0,0.0,0.0,0.0,0.0,0.0,0.0,0.0,0.0,-3.108,-3.2189,-3.0055,-2.8939,0.0,0.0,-3.1801,-3.3195,-3.4721,0.0,0.0,0.0,0.0,0.0,0.0,0.0,0.0,0.0,0.0,0.0,0.0,0.0,0.0,0.0,0.0,0.0,0.0,0.0,0.0,0.0,0.0,0.0,0.0,0.0,0.0,0.0,0.0,0.0,0.0,0.0,0.0,0.0,0.0,0.0,0.0,0.0,0.0,0.0,0.0,0.0,0.0,0.0,0.0,0.0,0.0,0.0,0.0,0.0,0.0,0.0,0.0,0.0,0.0,0.0,-3.1924,-3.6743,-4.3347,-4.8286,-5.1394,-5.2492,-5.2698,-5.1952,-4.5618,-4.0621,0.0,0.0,0.0,0.0,0.0,0.0,0.0,0.0,0.0,0.0,0.0,0.0,0.0,0.0,0.0,0.0,0.0,0.0,0.0,0.0,0.0,0.0,0.0,0.0,0.0,0.0,0.0,0.0,0.0,0.0,0.0,0.0,0.0,0.0,0.0,0.0,0.0,0.0,0.0,0.0,0.0,0.0,-3.3498,-3.3051,0.0,0.0,0.0,-3.3426,-3.3157,0.0,0.0,0.0,0.0,0.0,0.0,0.0,0.0,0.0,0.0,0.0,0.0,0.0,0.0,0.0,0.0,0.0,0.0,0.0,0.0,0.0,0.0,0.0,0.0,0.0,0.0,0.0,0.0,0.0,0.0,0.0,0.0,0.0,0.0,0.0,0.0,0.0,0.0,0.0,0.0,0.0,0.0,0.0,0.0,0.0,0.0,0.0,0.0,0.0,0.0,0.0,0.0,0.0,0.0,0.0,0.0,0.0,-3.6689,-4.4872,-4.9922,-5.151,-5.2585,-5.2617,-5.1462,-4.5338,0.0,0.0,0.0,0.0,0.0,0.0,0.0,0.0,0.0,0.0,0.0,0.0,0.0,0.0,0.0,0.0,0.0,0.0,0.0,0.0,0.0,0.0,0.0,0.0,0.0,0.0,0.0,-1.4668,0.0,0.0,0.0,0.0,0.0,0.0,0.0,0.0,0.0,0.0,0.0,0.0,0.0,0.0,-3.4795,-3.4797,-3.5797,-3.6412,0.0,0.0,-3.5291,-3.4011,-3.6047,-3.5949,0.0,0.0,0.0,0.0,0.0,0.0,0.0,0.0,0.0,0.0,0.0,0.0,0.0,0.0,0.0,0.0,0.0,0.0,0.0,0.0,0.0,0.0,0.0,0.0,0.0,0.0,0.0,0.0,0.0,0.0,0.0,0.0,0.0,0.0,0.0,0.0,0.0,0.0,0.0,0.0,0.0,0.0,0.0,0.0,0.0,0.0,0.0,0.0,0.0,0.0,0.0,0.0,0.0,0.0,0.0,-3.788,-4.5499,-5.0622,-5.2967,-5.3868,-5.3512,-5.186,-4.7635,-4.259,0.0,0.0,0.0,0.0,0.0,0.0,0.0,0.0,0.0,0.0,0.0,0.0,0.0,0.0,0.0,0.0,0.0,0.0,0.0,0.0,0.0,0.0,0.0,0.0,0.0,0.0,0.0,0.0,0.0,0.0,0.0,0.0,0.0,0.0,0.0,0.0,0.0,0.0,0.0,0.0,0.0,-3.5411,-3.6293,-3.7148,-3.8374,0.0,0.0,-3.8101,-3.816,-4.069,-4.0105,-3.2502,0.0,0.0,0.0,0.0,0.0,0.0,0.0,0.0,0.0,0.0,0.0,0.0,0.0,0.0,0.0,0.0,0.0,0.0,0.0,0.0,0.0,0.0,0.0,0.0,0.0,0.0,0.0,0.0,0.0,0.0,0.0,0.0,0.0,0.0,0.0,0.0,0.0,0.0,0.0,0.0,0.0,0.0,0.0,0.0,0.0,0.0,0.0,0.0,0.0,0.0,0.0,0.0,0.0,-3.3812,-3.7926,-4.5548,-5.071,-5.3092,-5.3506,-5.2869,-5.118,-4.7612,-4.2631,0.0,0.0,0.0,0.0,0.0,0.0,0.0,0.0,0.0,0.0,0.0,0.0,0.0,0.0,0.0,0.0,0.0,0.0,0.0,0.0,0.0,0.0,0.0,0.0,0.0,0.0,0.0,0.0,-2.0315,-2.1024,-2.1123,0.0,0.0,0.0,0.0,0.0,0.0,0.0,0.0,0.0,0.0,-3.6844,-3.8469,-3.9772,0.0,0.0,-4.0875,-3.9917,-3.9721,-3.995,-3.831,-3.3048,-3.145,0.0,0.0,0.0,0.0,0.0,0.0,0.0,0.0,0.0,0.0,0.0,0.0,0.0,0.0,0.0,0.0,0.0,0.0,0.0,0.0,0.0,0.0,0.0,0.0,0.0,0.0,0.0,0.0,0.0,0.0,0.0,0.0,0.0,0.0,0.0,0.0,0.0,0.0,0.0,0.0,0.0,0.0,0.0,0.0,0.0,0.0,0.0,0.0,0.0,0.0,0.0,0.0,-3.3983,-3.8387,-4.5723,-5.0851,-5.3653,-5.3612,-5.2545,-5.0431,-4.7811,-4.3277,0.0,0.0,0.0,0.0,0.0,0.0,0.0,0.0,0.0,0.0,0.0,0.0,0.0,0.0,0.0,0.0,0.0,0.0,0.0,0.0,0.0,0.0,0.0,0.0,0.0,0.0,0.0,0.0,-2.1794,-2.2306,-2.1703,0.0,0.0,0.0,0.0,0.0,0.0,0.0,0.0,0.0,0.0,-3.8458,-3.9935,-4.1169,-4.205,-4.2364,-4.103,-3.9977,-4.0062,-3.92,-3.7367,-3.3928,0.0,0.0,0.0,0.0,0.0,0.0,0.0,0.0,0.0,0.0,0.0,0.0,0.0,0.0,0.0,0.0,0.0,0.0,0.0,0.0,0.0,0.0,0.0,0.0,0.0,0.0,0.0,0.0,0.0,0.0,0.0,0.0,0.0,0.0,0.0,0.0,0.0,0.0,0.0,0.0,0.0,0.0,0.0,0.0,0.0,0.0,0.0,0.0,0.0,0.0,0.0,0.0,0.0,-3.4379,-3.9537,-4.612,-5.1239,-5.4686,-5.4536,-5.2876,-4.99,-4.8698,-4.4946,-3.819,0.0,0.0,0.0,0.0,0.0,0.0,0.0,0.0,0.0,0.0,0.0,0.0,0.0,0.0,0.0,0.0,0.0,0.0,0.0,0.0,0.0,0.0,0.0,0.0,0.0,0.0,-1.7905,-1.9593,-2.093,0.0,0.0,0.0,0.0,0.0,0.0,0.0,0.0,0.0,0.0,-3.7119,-4.0136,-4.0459,-4.0864,-4.1358,-4.161,-3.9476,-3.8145,-3.9265,-3.9292,-3.8271,0.0,0.0,0.0,0.0,0.0,0.0,0.0,0.0,0.0,0.0,0.0,0.0,0.0,0.0,0.0,0.0,0.0,0.0,0.0,0.0,0.0,0.0,0.0,0.0,0.0,0.0,0.0,-2.6345,-2.5562,0.0,0.0,0.0,0.0,0.0,0.0,0.0,0.0,0.0,0.0,0.0,-3.7005,-3.9461,0.0,0.0,0.0,0.0,0.0,0.0,0.0,0.0,0.0,0.0,0.0,0.0,-3.5315,-4.0289,-4.6407,-5.1205,-5.4423,-5.3931,-5.2827,-5.1202,-4.9239,-4.4773,-3.7536,0.0,0.0,0.0,0.0,0.0,0.0,0.0,0.0,0.0,0.0,0.0,0.0,0.0,0.0,0.0,0.0,0.0,0.0,0.0,0.0,0.0,0.0,0.0,0.0,0.0,-2.0546,0.0,0.0,0.0,0.0,0.0,0.0,0.0,0.0,0.0,0.0,0.0,-3.3119,-3.6081,-3.8709,-4.0574,-4.1165,-4.2216,-4.336,0.0,0.0,0.0,0.0,0.0,0.0,0.0,0.0,0.0,0.0,0.0,0.0,0.0,0.0,-3.4831,-2.9543,-2.8705,-2.889,-2.9134,0.0,0.0,0.0,0.0,0.0,0.0,0.0,0.0,0.0,0.0,0.0,0.0,0.0,0.0,0.0,0.0,-2.9803,0.0,0.0,0.0,0.0,0.0,0.0,0.0,0.0,-3.9756,-4.1915,-4.1724,-4.414,-4.4484,0.0,-4.2335,-3.8565,0.0,0.0,0.0,0.0,0.0,0.0,0.0,0.0,-3.6509,-4.123,-4.7,-5.1468,-5.4366,-5.3687,-5.2526,-5.1143,-4.8112,-4.3905,-3.8421,-3.3769,-3.0462,0.0,0.0,0.0,0.0,0.0,0.0,0.0,0.0,0.0,0.0,0.0,0.0,0.0,0.0,0.0,0.0,0.0,0.0,0.0,0.0,0.0,0.0,0.0,-2.2059,0.0,0.0,0.0,0.0,0.0,0.0,0.0,0.0,0.0,-3.0992,-3.3523,-3.6429,-3.9354,-4.0849,-4.1657,-4.1604,0.0,0.0,0.0,0.0,0.0,0.0,0.0,-3.8229,-3.7003,-3.7235,-3.7731,-3.8195,-3.9852,-4.0784,-3.9671,0.0,0.0,-3.4355,-3.3374,-3.3539,-3.3794,-3.421,-3.4718,-3.5413,-3.621,-3.6797,0.0,0.0,0.0,0.0,0.0,0.0,0.0,0.0,-3.8343,-3.8362,0.0,-3.5668,0.0,0.0,0.0,0.0,0.0,0.0,0.0,0.0,-4.7092,-4.9003,-4.6844,-4.7654,-4.8017,-4.8009,-4.7922,-4.6214,-4.2784,-3.64,0.0,0.0,0.0,0.0,0.0,0.0,-3.8059,-4.2533,-4.7994,-5.2118,-5.4739,-5.3798,-5.2083,-4.9673,-4.5608,-4.26,-4.0835,-3.8253,-3.5425,-3.2203,-2.796,0.0,0.0,0.0,0.0,0.0,0.0,0.0,0.0,0.0,0.0,0.0,0.0,0.0,0.0,0.0,0.0,0.0,0.0,0.0,0.0,-2.2011,0.0,0.0,0.0,0.0,0.0,0.0,0.0,0.0,0.0,0.0,-3.4021,-3.6987,-4.0178,-4.2372,0.0,0.0,0.0,0.0,-4.1629,-3.9966,-3.8686,-3.8227,-3.8617,-3.9657,-4.0486,-4.0475,0.0,0.0,-4.2833,-4.2622,-4.2307,-4.0928,-4.2485,-4.3284,-4.1778,-3.9567,-3.8354,-3.8936,-3.814,-3.7449,-3.8107,-3.9269,-3.9753,-4.699,0.0,0.0,0.0,0.0,-4.1753,-4.3166,-4.5239,-4.436,-4.3443,-4.2478,-4.096,0.0,0.0,0.0,0.0,0.0,0.0,-4.2985,-4.5744,-4.8888,-5.0531,-5.1028,-5.2537,-5.29,-5.2289,-5.1677,-5.0875,-4.9786,-4.6203,-4.032,-3.2509,0.0,0.0,0.0,0.0,-4.1536,-4.5147,-4.9698,-5.2983,-5.4863,-5.3871,-5.1826,-4.8716,-4.5745,-4.3388,-4.1704,-3.984,-3.7503,-3.4666,-3.1717,0.0,0.0,0.0,0.0,0.0,0.0,0.0,0.0,0.0,0.0,0.0,0.0,0.0,0.0,0.0,0.0,0.0,0.0,0.0,-2.2174,-2.2837,-2.362,0.0,0.0,0.0,0.0,0.0,0.0,0.0,0.0,0.0,-4.0007,-4.0112,-4.0499,0.0,0.0,-4.1813,-4.0565,-4.2131,-4.3593,-4.4154,0.0,0.0,0.0,-4.3339,-4.2423,-4.2659,-4.4241,-4.5317,-4.492,-4.5715,-4.6295,-4.5831,-4.6311,-4.6593,-4.6113,-4.4293,-4.2907,-4.3023,-4.3122,-4.3453,-4.4197,-4.4956,-4.534,-5.4641,-4.8958,-4.7221,-4.6877,-4.7513,-4.7845,-4.9251,-5.1219,-5.0015,-4.9328,-4.885,-4.671,-4.4743,-4.2928,-4.159,0.0,0.0,0.0,-4.671,-4.9843,-5.1181,-5.2327,-5.3359,-5.439,-5.4811,-5.46,-5.4085,-5.3817,-5.3779,-5.1295,-4.6688,-4.0082,0.0,0.0,-3.7158,-4.1199,-4.46,-4.7239,-5.0385,-5.276,-5.4247,-5.2695,-5.0538,-4.7815,-4.5627,-4.3712,-4.2061,-4.1079,-3.9364,-3.6786,-3.4289,-3.1328,0.0,0.0,0.0,0.0,0.0,0.0,0.0,0.0,0.0,0.0,0.0,-1.907,-1.645,0.0,0.0,0.0,-2.1713,-2.3759,-2.5371,-2.6051,0.0,0.0,0.0,0.0,0.0,0.0,0.0,-3.6506,-4.0046,-4.2811,-4.3714,-4.3235,-4.308,-4.3892,-4.3955,-4.3553,-4.2533,0.0,-4.5165,-4.5622,-4.5284,-4.5179,-4.5681,-4.4879,-4.4423,-4.5232,-4.6063,-4.6643,-4.6692,-4.7438,-4.7984,-4.8001,-4.8001,-4.8001,-4.8001,-4.6874,-4.5997,-4.5997,-4.6344,-4.6808,-4.7255,-4.7686,-4.7935,-6.0486,-5.8355,-5.4322,-5.2864,-5.3275,-5.4065,-5.5269,-5.6568,-5.504,-5.5212,-5.6282,-5.2461,-5.0264,-4.932,-4.6233,0.0,0.0,-4.9939,-5.1429,-5.3015,-5.3836,-5.4199,-5.4199,-5.4218,-5.4619,-5.539,-5.539,-5.539,-5.5269,-5.3034,-5.1047,-4.9366,-4.6999,-4.5181,-4.4054,-4.5501,-4.7137,-4.8789,-5.0312,-5.184,-5.3242,-5.0767,-4.8698,-4.7143,-4.5345,-4.3637,-4.2098,-4.1929,-4.0784,-3.8382,-3.5932,-3.3489,-3.0959,0.0,0.0,0.0,0.0,0.0,0.0,0.0,0.0,0.0,0.0,0.0,0.0,0.0,0.0,0.0,-2.6349,0.0,-3.0129,-3.087,0.0,0.0,0.0,-3.5641,-3.8115,-4.0411,-4.2004,-4.2629,0.0,0.0,0.0,0.0,-4.6993,-4.8582,-4.7967,-4.7004,-4.6277,-4.6455,-4.6435,-4.5512,-4.4958,-4.4606,-4.4867,-4.5446,-4.642,-4.7536,-4.8001,-4.7934,-4.7901,-4.7951,-4.8001,-4.8001,-4.8001,-4.8001,-4.8001,-4.7901,-4.8001,-4.7901,-4.7934,-4.7968,-4.7951,-4.7968,-4.8001,-6.2637,-6.1359,-6.0306,-5.8627,-5.6702,-5.6912,-5.7218,-5.7542,-5.7179,-5.6855,-5.6473,-5.4906,-5.3722,-5.2862,-5.2059,-5.2403,-5.3575,-5.332,-5.3779,-5.4772,-5.5002,-5.5097,-5.5097,-5.5065,-5.5199,-5.5384,-5.539,-5.539,-5.5384,-5.4811,-5.3626,-5.1964,-5.1302,-4.8636,-4.4243,-4.6165,-4.7793,-4.8801,-5.0358,-5.1604,-5.2368,-5.0036,-4.8478,-4.7913,-4.5097,-4.3088,-4.2042,-4.1404,-4.0234,-3.8394,-3.7132,-3.5338,-3.2852,-2.8568,0.0,0.0,0.0,0.0,0.0,0.0,0.0,0.0,0.0,-2.3551,-1.9412,0.0,-2.6487,0.0,-2.9468,-3.2632,-3.4229,-3.4984,0.0,0.0,-3.8852,-3.9965,-4.3147,-4.4962,-4.578,-4.5342,-4.7361,-4.8701,-4.8491,-4.8405,-4.894,-5.0363,-4.8244,-4.629,-4.5846,-4.7142,-4.8041,-4.7744,-4.8131,-4.8673,-4.8374,-4.8199,-4.7937,-4.8,-4.8001,-4.8001,-4.8001,-4.8001,-4.8001,-4.8001,-4.8001,-4.8001,-4.8001,-4.8001,-4.8001,-4.8001,-4.8001,-4.8001,-4.8001,-4.8001,-4.8001,-6.3934,-6.2933,-6.2501,-6.0867,-5.8579,-5.8962,-5.9069,-5.8975,-5.8593,-5.8173,-5.7657,-5.6874,-5.6243,-5.5804,-5.5785,-5.5842,-5.588,-5.5422,-5.5269,-5.539,-5.539,-5.539,-5.539,-5.539,-5.539,-5.539,-5.539,-5.539,-5.539,-5.539,-5.4906,-5.3951,-5.3569,-5.1544,-4.8075,-4.8163,-4.8491,-4.8936,-5.0108,-5.1044,-5.1622,-4.9566,-4.8013,-4.7064,-4.4252,-4.198,-4.0409,-3.9596,-3.8544,-3.7286,-3.6085,-3.4658,-3.2893,-2.9945,-2.7501,0.0,0.0,0.0,0.0,0.0,0.0,0.0,0.0,0.0,0.0,0.0,-3.0592,0.0,-3.4606,-3.7198,-3.8808,-3.9624,-4.1053,-4.3461,-4.3904,-4.5055,-4.7699,-4.8992,-4.9504,-4.9067,-5.0073,-5.0766,-5.0623,-5.0363,-5.0492,-5.1355,-4.9743,-4.8352,-4.8094,-4.8801,-4.9245,-4.9236,-4.9537,-4.9698,-4.9521,-4.8872,-4.8292,-4.8066,-4.8001,-4.8001,-4.8001,-4.8001,-4.8001,-4.8001,-4.8001,-4.8001,-4.8001,-4.8001,-4.8001,-4.8001,-4.8001,-4.8001,-4.8001,-4.8001,-4.8001,-6.4776,-6.3832,-6.2945,-6.1585,-6.0004,-6.0589,-6.0412,-5.9701,-5.8956,-5.8689,-5.8746,-5.8268,-5.7982,-5.7886,-5.7886,-5.7466,-5.6778,-5.6791,-5.632,-5.5575,-5.5536,-5.5498,-5.539,-5.539,-5.539,-5.539,-5.539,-5.539,-5.539,-5.539,-5.5288,-5.5059,-5.4314,-5.3435,-5.2422,-5.0321,-4.9125,-4.8892,-4.9556,-5.0168,-5.069,-4.89,-4.717,-4.5557,-4.3064,-4.0641,-3.8437,-3.7523,-3.6686,-3.5766,-3.4451,-3.3371,-3.2611,-3.1053,-2.9495,0.0,-2.697,0.0,0.0,0.0,0.0,0.0,0.0,0.0,0.0,-3.3314,-3.5711,-3.8699,-4.0456,-4.2049,-4.3516,-4.4476,-4.5852,-4.7916,-4.8873,-4.9927,-5.1285,-5.2063,-5.2498,-5.2498,-5.2293,-5.215,-5.2096,-5.1914,-5.1722,-5.1715,-5.1355,-5.0875,-5.0866,-5.0425,-5.0157,-5.0205,-4.9861,-4.9598,-4.9026,-4.8498,-4.8212,-4.8066,-4.8001,-4.8001,-4.8001,-4.8001,-4.8001,-4.8001,-4.8001,-4.8001,-4.8001,-4.8001,-4.8001,-4.8001,-4.8001,-4.8001,-4.8001,-4.8001,-4.8001,-6.5736,-6.4897,-6.4718,-6.3964,-6.2849,-6.2298,-5.987,-5.6339,-5.6173,-5.6473,-5.7141,-5.8364,-5.8517,-5.7905,-5.7886,-5.7791,-5.7657,-5.7657,-5.7199,-5.6377,-5.6358,-5.6014,-5.5422,-5.539,-5.539,-5.539,-5.539,-5.539,-5.539,-5.539,-5.4696,-5.332,-5.311,-5.2289,-5.0837,0.0,0.0,0.0,-4.8372,-4.8801,-4.8829,-4.6617,-4.5238,-4.4834,-4.1807,0.0,-3.8509,-3.7589,-3.6397,-3.4969,-3.5221,0.0,0.0,0.0,0.0,0.0,0.0,0.0,0.0,0.0,0.0,0.0,-3.6229,-3.5048,-3.4421,-3.7853,-4.0908,-4.2828,-4.5037,-4.6739,-4.7699,-4.9075,-5.0108,-5.0578,-5.1321,-5.1955,-5.2263,-5.2408,-5.2498,-5.2498,-5.2434,-5.241,-5.2405,-5.2198,-5.2029,-5.1987,-5.1615,-5.1298,-5.1246,-5.0936,-5.0747,-5.0737,-5.0592,-5.0239,-4.9402,-4.9178,-4.8733,-4.8227,-4.8001,-4.8001,-4.8001,-4.8001,-4.8001,-4.8001,-4.8001,-4.8001,-4.8001,-4.8001,-4.8001,-4.8001,-4.8001,-4.8001,-4.8001,-4.8001,-4.8001,-6.6237,0.0,-6.5311,-6.433,0.0,-6.2085,-5.9599,-5.631,-5.7566,-5.8294,-5.863,-5.9479,-5.958,-5.909,-5.8268,-5.7657,-5.7218,-5.6396,-5.6014,-5.5995,-5.5556,-5.5594,-5.5995,-5.5594,-5.539,-5.539,-5.539,-5.539,-5.539,-5.539,-5.4944,-5.4104,-5.4085,-5.3664,-5.2843,-5.2403,-5.1063,-4.8852,-4.8789,-4.9092,-4.9709,-4.7832,-4.6335,-4.5426,0.0,0.0,0.0,0.0,0.0,0.0,0.0,0.0,0.0,0.0,0.0,-3.6335,-3.6304,-3.6812,-3.7972,-3.8103,-3.9498,-4.2683,-4.3414,-4.2606,-3.9962,-4.3123,-4.5924,-4.75,-4.8786,-4.98,-5.0597,-5.1411,-5.1923,-5.19,-5.2245,-5.2498,-5.2498,-5.2498,-5.2498,-5.2498,-5.2498,-5.2498,-5.2498,-5.2405,-5.2293,-5.2269,-5.1956,-5.169,-5.164,-5.1333,-5.1088,-5.1088,-5.0702,-5.0335,-4.9815,-4.9282,-4.8964,-4.8435,-4.8147,-4.8033,-4.8001,-4.8001,-4.8001,-4.8001,-4.8001,-4.8001,-4.8001,-4.8001,-4.8001,-4.8001,-4.8001,-4.8001,-4.8001,-4.8001,-4.8001,-6.6508,-6.6443,-6.5599,-6.4479,-6.313,-6.2095,-6.0287,-5.819,0.0,0.0,0.0,-6.0515,-6.0578,-6.0324,-5.8985,-5.7965,-5.7193,-5.5842,-5.5536,-5.602,-5.5326,-5.5556,-5.6549,-5.5938,-5.5536,-5.539,-5.539,-5.539,-5.539,-5.539,-5.539,-5.539,-5.539,-5.539,-5.5345,-5.4543,-5.3072,-5.1028,-4.987,-4.978,-5.0793,-4.9302,-4.775,-4.6271,-4.524,-4.3573,-4.1177,-4.0393,-3.9482,-3.8385,-3.7216,-3.6686,-3.7005,-3.8244,-3.9408,-4.0434,-4.1698,-4.2868,-4.3876,-4.4083,-4.5228,-4.7706,-4.9316,-4.8992,-4.6066,-4.7995,-4.9927,-5.1375,-5.1502,-5.1774,-5.2426,-5.2498,-5.2498,-5.2498,-5.2498,-5.2498,-5.2498,-5.2498,-5.2498,-5.2498,-5.2498,-5.2498,-5.2498,-5.2498,-5.2498,-5.2475,-5.224,-5.2084,-5.2036,-5.1615,-5.1255,-5.1228,-5.0766,-5.0261,-5.0017,-4.9551,-4.8964,-4.8858,-4.853,-4.8276,-4.8244,-4.8179,-4.8115,-4.8179,-4.8049,-4.8001,-4.8001,-4.8001,-4.8001,-4.8001,-4.8001,-4.8001,-4.8001,-4.8001,-4.8001,-6.6508,-6.6489,-6.6357,-6.6136,-6.5864,-6.4994,-6.3569,-6.1768,-5.9688,-5.875,-5.8807,-6.0243,-6.075,-6.0552,-6.0322,-6.0099,-5.9868,-5.9625,-5.9166,0.0,-5.8459,-5.7753,-5.6619,-5.6473,-5.6052,-5.5441,-5.539,-5.539,-5.539,-5.539,-5.539,-5.539,-5.539,-5.539,-5.5326,-5.4543,-5.3932,-5.3531,-5.1179,-4.9726,-4.9226,-4.7608,-4.6644,-4.6316,-4.4912,-4.321,-4.143,-4.1082,-4.0106,-3.858,-3.886,-3.969,-4.1047,-4.1366,-4.2173,-4.3651,-4.4031,-4.482,-4.6392,-4.7105,-4.857,-5.0922,-5.162,-5.1534,-5.0881,-5.0889,-5.1339,-5.2208,-5.2281,-5.2353,-5.2498,-5.2498,-5.2498,-5.2498,-5.2498,-5.2498,-5.2498,-5.2498,-5.2498,-5.2498,-5.2498,-5.2498,-5.2498,-5.2498,-5.2498,-5.2475,-5.2311,-5.2108,-5.2036,-5.164,-5.1333,-5.1272,-5.1017,-5.062,-5.0261,-5.0034,-4.9669,-4.9342,-4.9239,-4.9087,-4.9087,-4.8827,-4.8608,-4.8625,-4.8356,-4.8099,-4.8033,-4.8001,-4.8033,-4.8033,-4.8001,-4.8001,-4.8001,-4.8001,-4.8001,-6.6508,-6.6508,-6.6508,-6.6508,-6.645,-6.5569,-6.4772,-6.3859,-6.1701,-6.0388,-5.9968,-6.0693,-6.0914,-6.0676,-5.981,-5.938,-5.928,-5.827,-5.8074,-5.8496,-5.7997,-5.7829,-5.7867,-5.7008,-5.6415,-5.6033,-5.5594,-5.539,-5.539,-5.539,-5.539,-5.539,-5.539,-5.539,-5.5352,-5.5002,-5.4581,-5.4085,-5.1998,-5.0734,-5.0352,-4.9079,-4.8186,-4.7729,-4.7379,-4.6658,-4.5352,-4.529,-4.4636,-4.3265,-4.3127,-4.335,-4.397,-4.4444,-4.5247,-4.643,-4.7368,-4.8194,-4.8945,-5.0185,-5.1402,-5.2515,-5.2919,-5.3067,-5.2931,-5.2327,-5.2118,-5.2444,-5.2498,-5.2498,-5.2498,-5.2498,-5.2498,-5.2498,-5.2498,-5.2498,-5.2498,-5.2498,-5.2498,-5.2498,-5.2498,-5.2498,-5.2498,-5.2498,-5.2498,-5.2498,-5.2382,-5.2335,-5.2335,-5.2005,-5.174,-5.1708,-5.1384,-5.1052,-5.0766,-5.0345,-5.0045,-4.9786,-4.9551,-4.9449,-4.9419,-4.9178,-4.9118,-4.9087,-4.8872,-4.8671,-4.8435,-4.8388,-4.826,-4.8033,-4.8001,-4.8001,-4.8001,-4.8001,-4.8001,-6.6508,-6.6508,-6.6508,-6.6508,-6.6431,-6.579,-6.5394,-6.5064,-6.3614,-6.2416,-6.1522,-6.1261,-6.1067,-6.0818,-5.9563,-5.9003,-5.877,-5.7469,-5.75,-5.8554,-5.7925,-5.8138,-5.8928,-5.7621,-5.6811,-5.6524,-5.5785,-5.539,-5.539,-5.539,-5.539,-5.539,-5.539,-5.539,-5.539,-5.539,-5.5059,-5.4352,-5.2919,-5.1983,-5.1589,-5.0824,-5.0012,-4.9269,-4.9955,-4.9981,-4.9061,-4.9112,-4.8701,-4.764,-4.6768,-4.6296,-4.6351,-4.7131,-4.7957,-4.8792,-5.0128,-5.1083,-5.1327,-5.2473,-5.328,-5.3451,-5.3717,-5.3889,-5.3833,-5.3178,-5.2667,-5.2618,-5.2549,-5.2498,-5.2498,-5.2498,-5.2498,-5.2498,-5.2498,-5.2498,-5.2498,-5.2498,-5.2498,-5.2498,-5.2498,-5.2498,-5.2498,-5.2498,-5.2498,-5.2498,-5.2498,-5.2498,-5.2475,-5.2317,-5.2198,-5.2102,-5.174,-5.1428,-5.1376,-5.0928,-5.0567,-5.0439,-5.0215,-5.0074,-4.9959,-4.9786,-4.961,-4.958,-4.9432,-4.9222,-4.8934,-4.8858,-4.8733,-4.8483,-4.8452,-4.834,-4.8244,-4.8066,-4.81,-6.6508,-6.6508,-6.6508,-6.6508,-6.6489,-6.6392,-6.5918,-6.5168,-6.4236,-6.3381,-6.2505,-6.1709,-6.1252,-6.1094,-6.0872,-6.0702,-6.0604,-6.0496,-6.0427,-6.0533,-6.0541,-6.0096,-5.9367,-5.8414,-5.7486,-5.6645,-5.5836,-5.5454,-5.539,-5.539,-5.539,-5.539,-5.539,-5.539,-5.539,-5.539,-5.5365,-5.525,-5.4352,-5.3129,-5.1716,-5.1532,-5.1042,-5.0202,-5.1004,-5.1061,-5.0166,-5.0037,-4.9613,-4.877,-4.7871,-4.7577,-4.8164,-4.8965,-4.977,-5.0407,-5.1292,-5.2118,-5.2886,-5.3111,-5.3543,-5.4185,-5.4033,-5.3926,-5.3889,-5.3564,-5.3219,-5.3002,-5.2667,-5.2544,-5.2498,-5.2498,-5.2498,-5.2498,-5.2498,-5.2498,-5.2498,-5.2498,-5.2498,-5.2498,-5.2498,-5.2498,-5.2498,-5.2498,-5.2498,-5.2498,-5.2498,-5.2498,-5.2498,-5.2475,-5.241,-5.2364,-5.2011,-5.1715,-5.164,-5.1615,-5.1418,-5.1444,-5.147,-5.1245,-5.0937,-5.0622,-5.0349,-5.0131,-4.9756,-4.9521,-4.9389,-4.9359,-4.9329,-4.9118,-4.9087,-4.9118,-4.8702,-4.8324,-4.8281,-6.6975,-6.6508,-6.6508,-6.6508,-6.6508,-6.6508,-6.6314,-6.5848,-6.4566,-6.3789,-6.3323,-6.2022,-6.1371,-6.1287,-6.1287,-6.1236,-6.1186,-6.1068,-6.1012,-6.1002,-6.0933,-6.0676,-6.0225,-5.9417,-5.8462,-5.7479,-5.6661,-5.5968,-5.5492,-5.539,-5.539,-5.539,-5.539,-5.539,-5.539,-5.539,-5.539,-5.539,-5.504,-5.4295,-5.3117,-5.2024,-5.1319,-5.1033,-5.13,-5.1338,-5.1065,-5.142,-5.151,-5.1085,-5.0697,-5.0548,-5.0738,-5.1034,-5.13,-5.1616,-5.2258,-5.3019,-5.3864,-5.3921,-5.4033,-5.4371,-5.4268,-5.4198,-5.4162,-5.3889,-5.3642,-5.3504,-5.3088,-5.2731,-5.2526,-5.2498,-5.2498,-5.2498,-5.2498,-5.2498,-5.2498,-5.2498,-5.2498,-5.2498,-5.2498,-5.2498,-5.2498,-5.2498,-5.2498,-5.2498,-5.2498,-5.2498,-5.2498,-5.2498,-5.2498,-5.2475,-5.2293,-5.2126,-5.198,-5.179,-5.174,-5.169,-5.169,-5.1615,-5.1538,-5.1263,-5.0928,-5.0803,-5.0446,-5.0091,-4.9844,-4.9786,-4.9774,-4.9627,-4.9419,-4.9329,-4.9148,-4.8733,-4.8785,-6.7285,-6.6567,-6.6508,-6.6508,-6.6508,-6.6508,-6.6508,-6.6275,-6.4721,-6.4003,-6.3809,-6.2177,-6.1393,-6.1393,-6.1393,-6.1393,-6.1386,-6.1233,-6.1192,-6.1164,-6.1088,-6.0993,-6.0886,-6.0084,-5.9154,-5.8187,-5.7338,-5.6441,-5.5561,-5.544,-5.5454,-5.5403,-5.539,-5.539,-5.539,-5.539,-5.539,-5.539,-5.539,-5.5097,-5.432,-5.2946,-5.2031,-5.1847,-5.2018,-5.2133,-5.2164,-5.2806,-5.3111,-5.3009,-5.278,-5.2582,-5.2465,-5.2598,-5.2723,-5.2877,-5.3314,-5.3802,-5.4371,-5.4409,-5.4409,-5.4409,-5.4409,-5.4409,-5.4375,-5.418,-5.4018,-5.387,-5.3504,-5.3112,-5.2806,-5.2667,-5.264,-5.264,-5.259,-5.2498,-5.2498,-5.2498,-5.2498,-5.2498,-5.2498,-5.2498,-5.2498,-5.2498,-5.2498,-5.2498,-5.2498,-5.2498,-5.2498,-5.2498,-5.2498,-5.2498,-5.2498,-5.2428,-5.2246,-5.2102,-5.1938,-5.1914,-5.198,-5.1938,-5.184,-5.1632,-5.1376,-5.1158,-5.107,-5.09,-5.0464,-5.0324,-5.025,-4.9919,-4.9715,-4.9639,-4.961,-4.9192,-4.9092,-6.7305,-6.6547,-6.6508,-6.6508,-6.6508,-6.6508,-6.6508,-6.6392,-6.4721,-6.4003,-6.377,-6.2157,-6.1393,-6.1393,-6.1393,-6.1393,-6.1412,-6.1386,-6.1359,-6.1378,-6.1371,-6.1279,-6.1036,-6.0261,-5.9377,-5.848,-5.7621,-5.6634,-5.5654,-5.5585,-5.5511,-5.5428,-5.5416,-5.5403,-5.5416,-5.5403,-5.539,-5.539,-5.539,-5.5352,-5.5212,-5.4397,-5.3537,-5.2964,-5.3518,-5.3843,-5.39,-5.4008,-5.4034,-5.4034,-5.3327,-5.2787,-5.2728,-5.3392,-5.3993,-5.4377,-5.4465,-5.446,-5.4405,-5.4409,-5.4409,-5.4409,-5.4409,-5.4409,-5.4409,-5.4356,-5.4216,-5.3944,-5.3889,-5.37,-5.3387,-5.3133,-5.2999,-5.2937,-5.2708,-5.2544,-5.2503,-5.2521,-5.2498,-5.2498,-5.2498,-5.2498,-5.2498,-5.2498,-5.2498,-5.2498,-5.2498,-5.2498,-5.2498,-5.2498,-5.2498,-5.2498,-5.2498,-5.2498,-5.2457,-5.2364,-5.2405,-5.2382,-5.2269,-5.2317,-5.2198,-5.2029,-5.1758,-5.1505,-5.1376,-5.1193,-5.0972,-5.0836,-5.0764,-5.0554,-5.025,-5.0148,-5.0091,-4.9686,-4.9496,-6.7843,-6.6528,-6.6508,-6.6508,-6.6508,-6.6508,-6.6508,-6.6334,-6.4721,-6.4003,-6.3692,-6.2177,-6.1393,-6.1393,-6.1393,-6.1393,-6.1393,-6.1393,-6.1393,-6.1393,-6.1393,-6.1371,-6.1283,-6.0984,-6.0347,-5.9366,-5.8468,-5.7255,-5.5855,-5.5729,-5.5698,-5.5643,-5.557,-5.5531,-5.5488,-5.5447,-5.539,-5.539,-5.539,-5.539,-5.5371,-5.5078,-5.4772,-5.4486,-5.4218,-5.4104,-5.4104,-5.4639,-5.4944,-5.4925,-5.4619,-5.4441,-5.4409,-5.4577,-5.4705,-5.4765,-5.468,-5.4581,-5.4519,-5.4458,-5.4409,-5.4409,-5.4409,-5.4409,-5.4409,-5.4409,-5.4339,-5.4233,-5.4216,-5.4163,-5.3981,-5.3583,-5.3242,-5.3201,-5.2984,-5.2824,-5.2757,-5.264,-5.2498,-5.2498,-5.2498,-5.2498,-5.2498,-5.2498,-5.2498,-5.2498,-5.2498,-5.2498,-5.2498,-5.2498,-5.2498,-5.2498,-5.2498,-5.2498,-5.2498,-5.2498,-5.2498,-5.2498,-5.2475,-5.2434,-5.234,-5.2174,-5.1932,-5.1815,-5.1665,-5.1428,-5.1193,-5.0998,-5.0972,-5.0863,-5.0592,-5.0537,-5.062,-5.0165,-4.9861,-6.7665,-6.6631,-6.6526,-6.6531,-6.6489,-6.6508,-6.6508,-6.6334,-6.4993,-6.4236,-6.375,-6.2449,-6.1672,-6.1432,-6.1393,-6.1393,-6.1393,-6.1393,-6.1393,-6.1393,-6.1393,-6.1393,-6.1393,-6.1393,-6.0891,-5.9898,-5.8804,-5.7539,-5.6404,-5.5999,-5.5856,-5.5798,-5.5698,-5.5665,-5.5662,-5.5581,-5.5507,-5.5477,-5.5453,-5.5428,-5.5416,-5.539,-5.539,-5.5294,-5.483,-5.4543,-5.4524,-5.5097,-5.539,-5.539,-5.539,-5.539,-5.5371,-5.5273,-5.5127,-5.4971,-5.4829,-5.4738,-5.4676,-5.4554,-5.4474,-5.4474,-5.4424,-5.4409,-5.4409,-5.4409,-5.4409,-5.4409,-5.4409,-5.4409,-5.4321,-5.4,-5.37,-5.3564,-5.3283,-5.3133,-5.313,-5.2868,-5.264,-5.2521,-5.2498,-5.2498,-5.2498,-5.2498,-5.2498,-5.2498,-5.2498,-5.2552,-5.2806,-5.2643,-5.2643,-5.2788,-5.2643,-5.2534,-5.2498,-5.2498,-5.2498,-5.2498,-5.2498,-5.2498,-5.2475,-5.2293,-5.2174,-5.2084,-5.1914,-5.1665,-5.141,-5.1167,-5.1052,-5.0945,-5.0836,-5.0764,-5.0719,-5.062,-5.0278,-6.6694,-6.6607,-6.6581,-6.6561,-6.6504,-6.6489,-6.6508,-6.6334,-6.5537,-6.4702,-6.4061,-6.307,-6.2157,-6.1587,-6.1451,-6.1393,-6.1393,-6.1393,-6.1393,-6.1393,-6.1393,-6.1393,-6.1393,-6.1393,-6.0927,-6.0026,-5.8447,-5.7557,-5.7179,-5.6408,-5.5943,-5.5836,-5.5827,-5.5798,-5.5798,-5.576,-5.5708,-5.5629,-5.5604,-5.5523,-5.5428,-5.5403,-5.539,-5.539,-5.5326,-5.5288,-5.5326,-5.5384,-5.539,-5.539,-5.539,-5.539,-5.539,-5.5377,-5.5319,-5.514,-5.5099,-5.5009,-5.4916,-5.4711,-5.4597,-5.4565,-5.4491,-5.4424,-5.4409,-5.4409,-5.4409,-5.4409,-5.4409,-5.4409,-5.4409,-5.4357,-5.4198,-5.3907,-5.3623,-5.3425,-5.3365,-5.3175,-5.2868,-5.2618,-5.2567,-5.2521,-5.2498,-5.2498,-5.2516,-5.2625,-5.2661,-5.286,-5.3331,-5.3041,-5.2969,-5.3168,-5.2933,-5.2516,-5.2498,-5.2498,-5.2498,-5.2498,-5.2498,-5.2498,-5.2498,-5.2387,-5.2317,-5.2228,-5.2084,-5.1864,-5.164,-5.141,-5.1193,-5.1088,-5.1025,-5.0945,-5.0819,-5.0719,-5.0592,-6.6682,-6.6661,-6.662,-6.6595,-6.6561,-6.6512,-6.6508,-6.6411,-6.5576,-6.5052,-6.4605,-6.3323,-6.2546,-6.2196,-6.1691,-6.1393,-6.1393,-6.1393,-6.1393,-6.1393,-6.1393,-6.1393,-6.1393,-6.1393,-6.0953,-6.004,-5.8972,-5.8104,-5.7455,-5.6645,-5.6178,-5.6121,-5.6004,-5.5943,-5.5954,-5.5845,-5.5779,-5.5739,-5.5643,-5.5581,-5.5511,-5.5428,-5.5403,-5.539,-5.539,-5.539,-5.539,-5.539,-5.539,-5.539,-5.539,-5.539,-5.539,-5.539,-5.5358,-5.53,-5.5168,-5.508,-5.5042,-5.4897,-5.4742,-5.4629,-5.4568,-5.4486,-5.4426,-5.4409,-5.4409,-5.4409,-5.4409,-5.4409,-5.4409,-5.4409,-5.4339,-5.4269,-5.3944,-5.3738,-5.37,-5.3465,-5.3157,-5.2912,-5.2864,-5.2753,-5.2567,-5.2521,-5.2702,-5.3132,-5.3222,-5.3385,-5.3548,-5.3403,-5.3059,-5.2933,-5.2607,-5.2498,-5.2498,-5.2498,-5.2498,-5.2498,-5.2498,-5.2498,-5.2498,-5.2498,-5.241,-5.2364,-5.2222,-5.206,-5.184,-5.1665,-5.1462,-5.1281,-5.1193,-5.1105,-5.0945,-5.0819,-5.0692,-6.6735,-6.6717,-6.6687,-6.6661,-6.6638,-6.6588,-6.6575,-6.649,-6.5977,-6.5542,-6.4991,-6.3804,-6.2993,-6.2585,-6.1781,-6.1412,-6.1393,-6.1393,-6.1393,-6.1393,-6.1393,-6.1393,-6.1393,-6.1393,-6.116,-6.0526,-5.971,-5.8855,-5.804,-5.7204,-5.6622,-5.6337,-5.6165,-5.6109,-5.6102,-5.6012,-5.5954,-5.5864,-5.5739,-5.5643,-5.5573,-5.5465,-5.539,-5.539,-5.539,-5.539,-5.539,-5.539,-5.539,-5.539,-5.539,-5.539,-5.539,-5.539,-5.539,-5.5377,-5.5286,-5.5195,-5.52,-5.5057,-5.4922,-5.4799,-5.4676,-5.4565,-5.4489,-5.4441,-5.4409,-5.4409,-5.4409,-5.4409,-5.4409,-5.4409,-5.4409,-5.439,-5.4216,-5.4017,-5.3926,-5.3719,-5.3465,-5.3258,-5.3154,-5.2984,-5.2779,-5.2704,-5.2799,-5.3215,-5.3259,-5.3458,-5.3494,-5.3403,-5.3059,-5.2806,-5.2697,-5.2607,-5.2516,-5.2498,-5.2498,-5.2498,-5.2498,-5.2498,-5.2498,-5.2498,-5.2457,-5.2434,-5.234,-5.2222,-5.2011,-5.1938,-5.1765,-5.1589,-5.1402,-5.1246,-5.1088,-5.0927,-5.0819,-6.6798,-6.6806,-6.6803,-6.6755,-6.6717,-6.6702,-6.6677,-6.6677,-6.6573,-6.6121,-6.5349,-6.4357,-6.3546,-6.2742,-6.1887,-6.1414,-6.14,-6.1393,-6.1393,-6.1393,-6.1393,-6.1393,-6.1393,-6.1393,-6.1335,-6.1179,-6.0409,-5.9574,-5.8642,-5.7845,-5.7153,-5.6388,-5.6285,-5.6291,-5.6272,-5.6285,-5.6185,-5.6028,-5.5882,-5.5759,-5.5662,-5.5507,-5.5422,-5.5422,-5.5422,-5.5409,-5.5403,-5.539,-5.539,-5.539,-5.539,-5.539,-5.539,-5.539,-5.539,-5.539,-5.539,-5.5371,-5.5345,-5.5233,-5.5094,-5.5038,-5.4829,-5.4613,-5.4613,-5.4522,-5.4441,-5.4441,-5.4407,-5.4409,-5.4409,-5.4409,-5.4409,-5.4409,-5.4375,-5.4216,-5.3981,-5.3944,-5.3795,-5.3525,-5.3407,-5.3324,-5.3048,-5.3023,-5.2963,-5.2967,-5.2944,-5.3248,-5.3438,-5.3461,-5.3137,-5.2896,-5.2697,-5.2625,-5.2498,-5.2498,-5.2498,-5.2498,-5.2498,-5.2498,-5.2498,-5.2498,-5.2498,-5.2475,-5.2434,-5.234,-5.2246,-5.2174,-5.2029,-5.1815,-5.1589,-5.1384,-5.122,-5.1088,-5.0954,-6.6812,-6.6801,-6.6798,-6.6795,-6.6759,-6.6727,-6.6712,-6.6707,-6.6677,-6.6496,-6.6004,-6.4727,-6.3912,-6.3562,-6.212,-6.1473,-6.1447,-6.1428,-6.1393,-6.1393,-6.1393,-6.1393,-6.1393,-6.1393,-6.1393,-6.1276,-6.0584,-5.9671,-5.8797,-5.804,-5.7172,-5.633,-5.6311,-5.6311,-5.6311,-5.6311,-5.6285,-5.6218,-5.6028,-5.5935,-5.5873,-5.5749,-5.5643,-5.5547,-5.5547,-5.5495,-5.5396,-5.539,-5.539,-5.539,-5.539,-5.539,-5.539,-5.539,-5.539,-5.539,-5.539,-5.539,-5.539,-5.5345,-5.5241,-5.5107,-5.5009,-5.4922,-5.4822,-5.4648,-5.4568,-5.4536,-5.4491,-5.4426,-5.4409,-5.4409,-5.4409,-5.4409,-5.4409,-5.4375,-5.4287,-5.4269,-5.4144,-5.3833,-5.3776,-5.3623,-5.3405,-5.3302,-5.3445,-5.372,-5.3694,-5.3576,-5.3663,-5.3549,-5.3243,-5.2816,-5.2575,-5.2516,-5.2498,-5.2498,-5.2498,-5.2498,-5.2498,-5.2498,-5.2498,-5.2498,-5.2498,-5.2498,-5.2498,-5.2387,-5.241,-5.2387,-5.2198,-5.2011,-5.1889,-5.174,-5.1454,-5.1246,-5.1088,-6.6798,-6.6815,-6.6798,-6.6808,-6.6805,-6.6744,-6.6752,-6.6728,-6.6731,-6.6507,-6.5957,-6.473,-6.3906,-6.3414,-6.2118,-6.1498,-6.1493,-6.1464,-6.1452,-6.146,-6.146,-6.1428,-6.1407,-6.1393,-6.1393,-6.1354,-6.0895,-5.9963,-5.8933,-5.8311,-5.7476,-5.6505,-5.6311,-5.6311,-5.6311,-5.6311,-5.6311,-5.6272,-5.6102,-5.6001,-5.5993,-5.5873,-5.5769,-5.5688,-5.5686,-5.5629,-5.5507,-5.549,-5.5453,-5.5409,-5.539,-5.539,-5.539,-5.539,-5.539,-5.539,-5.539,-5.539,-5.539,-5.539,-5.5345,-5.5227,-5.5154,-5.5071,-5.4971,-5.4818,-5.4726,-5.473,-5.467,-5.459,-5.4489,-5.4441,-5.4409,-5.4409,-5.4409,-5.4409,-5.4409,-5.4392,-5.4321,-5.418,-5.409,-5.4,-5.3662,-5.3623,-5.3767,-5.3904,-5.3737,-5.3729,-5.372,-5.3547,-5.3372,-5.2998,-5.264,-5.2595,-5.2595,-5.2595,-5.2498,-5.2498,-5.2498,-5.2498,-5.2498,-5.2498,-5.2498,-5.2498,-5.2498,-5.2498,-5.2498,-5.2498,-5.241,-5.2269,-5.2198,-5.2054,-5.1715,-5.1462,-5.135,-6.6798,-6.6798,-6.6798,-6.6798,-6.6795,-6.6795,-6.679,-6.6809,-6.6805,-6.6319,-6.5496,-6.4562,-6.3705,-6.2771,-6.1972,-6.1519,-6.1514,-6.15,-6.15,-6.1485,-6.1493,-6.1479,-6.1421,-6.14,-6.1393,-6.1393,-6.1393,-6.0325,-5.9166,-5.8758,-5.7865,-5.668,-5.6311,-5.6311,-5.6311,-5.6311,-5.6311,-5.6259,-5.6151,-5.6087,-5.6052,-5.5971,-5.5892,-5.5817,-5.5789,-5.5729,-5.5643,-5.5618,-5.5581,-5.544,-5.5428,-5.5403,-5.539,-5.539,-5.539,-5.539,-5.539,-5.539,-5.539,-5.539,-5.539,-5.5345,-5.5227,-5.514,-5.5113,-5.5,-5.4912,-5.4912,-5.4916,-5.4795,-5.4683,-5.4557,-5.4474,-5.4474,-5.4441,-5.4443,-5.4409,-5.4409,-5.4409,-5.4409,-5.439,-5.4233,-5.4072,-5.3907,-5.387,-5.4018,-5.3863,-5.3763,-5.3662,-5.3492,-5.3432,-5.3311,-5.2987,-5.269,-5.269,-5.269,-5.2572,-5.2498,-5.2498,-5.2498,-5.2498,-5.2498,-5.2498,-5.2498,-5.2498,-5.2498,-5.2498,-5.248,-5.2457,-5.2434,-5.2317,-5.2198,-5.2054,-5.184,-5.1665,-6.6798,-6.6798,-6.6798,-6.6798,-6.6798,-6.6798,-6.6798,-6.6795,-6.6809,-6.6335,-6.5496,-6.4651,-6.377,-6.2909,-6.2024,-6.1584,-6.1561,-6.1537,-6.149,-6.149,-6.15,-6.1498,-6.146,-6.1415,-6.14,-6.14,-6.1393,-6.0461,-5.9244,-5.8719,-5.7962,-5.6563,-5.633,-5.6311,-5.6311,-5.6311,-5.6311,-5.6291,-5.6246,-5.6232,-5.6232,-5.6185,-5.6106,-5.5979,-5.5873,-5.5798,-5.576,-5.574,-5.573,-5.5675,-5.5542,-5.5422,-5.5409,-5.5403,-5.539,-5.539,-5.539,-5.539,-5.539,-5.539,-5.539,-5.539,-5.5345,-5.5332,-5.5332,-5.5173,-5.5071,-5.5042,-5.4956,-5.4916,-5.4837,-5.4807,-5.4698,-5.4584,-5.4552,-5.4522,-5.4443,-5.4409,-5.4409,-5.4409,-5.4409,-5.4356,-5.4304,-5.4251,-5.4198,-5.4126,-5.3981,-5.3814,-5.3662,-5.3505,-5.3525,-5.3565,-5.3157,-5.285,-5.2872,-5.2783,-5.2572,-5.2498,-5.2498,-5.2498,-5.2498,-5.2498,-5.2498,-5.2498,-5.2498,-5.2498,-5.2498,-5.2498,-5.248,-5.2457,-5.2434,-5.2317,-5.2198,-5.2078,-5.1938,-6.6798,-6.6798,-6.6798,-6.6798,-6.6798,-6.6798,-6.6798,-6.6798,-6.6798,-6.6346,-6.5546,-6.4689,-6.3828,-6.293,-6.2075,-6.1637,-6.1634,-6.1602,-6.1561,-6.1549,-6.1541,-6.1539,-6.1495,-6.1451,-6.1434,-6.1414,-6.1393,-6.0597,-5.9652,-5.8914,-5.8176,-5.6958,-5.6505,-5.6311,-5.6311,-5.6311,-5.6311,-5.6311,-5.6311,-5.6311,-5.6311,-5.6291,-5.6259,-5.6151,-5.6064,-5.6007,-5.59,-5.5891,-5.5855,-5.5798,-5.5665,-5.5558,-5.549,-5.5434,-5.5403,-5.539,-5.539,-5.539,-5.539,-5.539,-5.539,-5.539,-5.539,-5.539,-5.539,-5.5305,-5.526,-5.5233,-5.5178,-5.5123,-5.5,-5.4897,-5.4837,-5.4757,-5.4645,-5.4584,-5.4505,-5.4441,-5.4409,-5.4409,-5.4409,-5.4409,-5.4409,-5.4409,-5.4392,-5.4251,-5.4251,-5.4108,-5.4035,-5.3907,-5.3851,-5.3757,-5.3281,-5.3023,-5.3048,-5.2893,-5.2549,-5.2498,-5.2498,-5.2498,-5.2498,-5.2498,-5.2498,-5.2498,-5.2498,-5.2498,-5.2498,-5.2498,-5.2498,-5.2475,-5.2452,-5.2405,-5.2358,-5.2269,-5.215,-6.6798,-6.6798,-6.6798,-6.6798,-6.6798,-6.6798,-6.6798,-6.6798,-6.6798,-6.6346,-6.5546,-6.4687,-6.3809,-6.295,-6.2089,-6.1737,-6.1698,-6.1696,-6.166,-6.1625,-6.1625,-6.158,-6.1547,-6.151,-6.147,-6.1421,-6.1421,-6.0864,-6.0048,-5.9225,-5.8344,-5.7554,-5.6706,-5.6337,-5.6311,-5.6311,-5.6311,-5.6311,-5.6311,-5.6311,-5.6311,-5.6311,-5.6285,-5.6278,-5.6272,-5.6185,-5.6067,-5.6044,-5.6004,-5.5892,-5.5845,-5.5779,-5.5654,-5.5499,-5.5422,-5.5434,-5.5409,-5.539,-5.539,-5.539,-5.539,-5.539,-5.539,-5.539,-5.539,-5.539,-5.5358,-5.5358,-5.5332,-5.5305,-5.5154,-5.5071,-5.499,-5.4912,-5.4773,-5.4676,-5.4632,-5.4538,-5.4508,-5.4409,-5.4409,-5.4409,-5.4409,-5.4409,-5.4409,-5.4409,-5.4409,-5.4392,-5.4304,-5.4251,-5.4162,-5.4035,-5.3622,-5.3261,-5.324,-5.3048,-5.2712,-5.264,-5.2595,-5.2526,-5.2503,-5.2498,-5.2498,-5.2498,-5.2498,-5.2498,-5.2498,-5.2498,-5.2498,-5.2498,-5.2475,-5.2452,-5.2452,-5.2498,-5.234,-6.6798,-6.6798,-6.6798,-6.6798,-6.6798,-6.6798,-6.6798,-6.6798,-6.6798,-6.6346,-6.5526,-6.4667,-6.3809,-6.295,-6.2091,-6.1718,-6.1698,-6.1698,-6.1696,-6.1691,-6.1668,-6.1634,-6.1591,-6.1584,-6.1537,-6.15,-6.1461,-6.1052,-6.0277,-5.9341,-5.8601,-5.7667,-5.6809,-5.6395,-5.633,-5.6311,-5.6311,-5.6311,-5.6311,-5.6311,-5.6311,-5.6311,-5.6311,-5.6311,-5.6311,-5.6278,-5.6252,-5.6246,-5.6239,-5.6218,-5.6044,-5.596,-5.5892,-5.5707,-5.5585,-5.5547,-5.549,-5.546,-5.5422,-5.5416,-5.5403,-5.539,-5.539,-5.539,-5.539,-5.539,-5.539,-5.539,-5.539,-5.5358,-5.5364,-5.526,-5.5219,-5.5132,-5.5009,-5.4933,-5.4867,-5.4776,-5.4686,-5.4508,-5.4476,-5.4409,-5.4409,-5.4409,-5.4409,-5.4409,-5.4409,-5.4409,-5.4375,-5.4339,-5.4339,-5.4216,-5.4017,-5.3681,-5.3427,-5.3178,-5.2915,-5.289,-5.2802,-5.2622,-5.2595,-5.2503,-5.2498,-5.2498,-5.2498,-5.2498,-5.2498,-5.2498,-5.2498,-5.2498,-5.2498,-5.2498,-5.2498,-5.2498,-5.2498,-6.6802,-6.68,-6.6805,-6.6798,-6.6798,-6.6798,-6.6798,-6.6798,-6.6798,-6.6346,-6.5526,-6.4687,-6.3809,-6.295,-6.2071,-6.1718,-6.1698,-6.1698,-6.1698,-6.1698,-6.1698,-6.1693,-6.164,-6.166,-6.1651,-6.1618,-6.1576,-6.1393,-6.0867,-6.0038,-5.9102,-5.8282,-5.7398,-5.6777,-5.6408,-5.6311,-5.6311,-5.6311,-5.6311,-5.6311,-5.6311,-5.6311,-5.6311,-5.6311,-5.6311,-5.6311,-5.6311,-5.6311,-5.6291,-5.6278,-5.6206,-5.6158,-5.6079,-5.5954,-5.5779,-5.5717,-5.564,-5.557,-5.5519,-5.5495,-5.5477,-5.5403,-5.5403,-5.539,-5.539,-5.539,-5.539,-5.539,-5.539,-5.539,-5.539,-5.539,-5.5345,-5.5254,-5.5168,-5.5085,-5.5014,-5.496,-5.4826,-5.467,-5.4603,-5.4522,-5.4409,-5.4409,-5.4409,-5.4409,-5.4426,-5.4426,-5.4426,-5.4409,-5.4409,-5.4304,-5.4144,-5.3907,-5.3604,-5.3405,-5.3238,-5.3175,-5.3048,-5.2872,-5.2761,-5.2739,-5.2618,-5.2503,-5.2521,-5.2549,-5.2498,-5.2498,-5.2498,-5.2498,-5.2498,-5.2498,-5.2498,-5.2498,-5.2498,-6.6796,-6.6796,-6.68,-6.6807,-6.6807,-6.68,-6.6798,-6.6798,-6.6798,-6.6463,-6.5761,-6.4785,-6.3928,-6.3125,-6.2286,-6.1698,-6.1698,-6.1698,-6.1698,-6.1698,-6.1698,-6.1698,-6.1698,-6.1698,-6.1696,-6.1691,-6.1691,-6.1657,-6.1315,-6.0556,-5.9741,-5.881,-5.7999,-5.7172,-5.6466,-5.6311,-5.6311,-5.6311,-5.6311,-5.6311,-5.6311,-5.6311,-5.6311,-5.6311,-5.6311,-5.6311,-5.6311,-5.6311,-5.6311,-5.6311,-5.6291,-5.6291,-5.6278,-5.6151,-5.6012,-5.5919,-5.5836,-5.5739,-5.5686,-5.5632,-5.5585,-5.5477,-5.546,-5.5422,-5.539,-5.539,-5.539,-5.539,-5.539,-5.539,-5.539,-5.539,-5.539,-5.5358,-5.526,-5.5173,-5.5159,-5.5104,-5.5033,-5.4878,-5.4769,-5.4676,-5.4622,-5.459,-5.4622,-5.4573,-5.4571,-5.4489,-5.4508,-5.4426,-5.4392,-5.4357,-5.4216,-5.4018,-5.3795,-5.3681,-5.3545,-5.3524,-5.3345,-5.3159,-5.3093,-5.3051,-5.2897,-5.2783,-5.2686,-5.2708,-5.2595,-5.2498,-5.2498,-5.2498,-5.2498,-5.2498,-5.2498,-5.2498,-5.2498,-6.6808,-6.6811,-6.6796,-6.6811,-6.681,-6.6813,-6.68,-6.68,-6.6802,-6.6778,-6.6258,-6.5021,-6.4204,-6.3574,-6.2325,-6.1757,-6.1698,-6.1698,-6.1698,-6.1698,-6.1698,-6.1698,-6.1698,-6.1698,-6.1698,-6.1698,-6.1698,-6.1718,-6.1495,-6.0776,-5.9908,-5.9075,-5.8198,-5.7211,-5.6582,-5.6356,-5.6311,-5.6311,-5.6311,-5.6311,-5.6311,-5.6311,-5.6311,-5.6311,-5.6311,-5.6311,-5.6311,-5.6311,-5.6311,-5.6311,-5.6311,-5.6311,-5.6311,-5.6304,-5.6252,-5.6163,-5.5999,-5.5789,-5.5789,-5.5779,-5.5719,-5.5607,-5.5581,-5.5507,-5.5453,-5.5428,-5.5428,-5.539,-5.539,-5.539,-5.539,-5.539,-5.539,-5.539,-5.5345,-5.5332,-5.5319,-5.526,-5.5173,-5.5132,-5.5028,-5.4956,-5.4886,-5.4871,-5.4841,-5.4776,-5.4695,-5.4632,-5.4552,-5.4524,-5.4409,-5.4375,-5.4357,-5.4163,-5.4072,-5.3926,-5.387,-5.3851,-5.37,-5.3525,-5.3425,-5.3365,-5.3306,-5.3201,-5.3048,-5.2868,-5.2761,-5.2667,-5.2549,-5.2498,-5.2498,-5.2498,-5.2498,-5.2498,-5.2498,-6.6739,-6.6746,-6.677,-6.6795,-6.6796,-6.6797,-6.6796,-6.6796,-6.6796,-6.6229,-6.5369,-6.462,-6.3771,-6.2859,-6.1913,-6.1718,-6.1698,-6.1698,-6.1698,-6.1698,-6.1698,-6.1701,-6.1698,-6.1698,-6.1698,-6.1703,-6.1698,-6.1698,-6.1509,-6.1235,-6.0578,-5.9689,-5.8773,-5.7947,-5.6969,-5.6524,-5.6356,-5.6311,-5.6311,-5.6311,-5.6311,-5.6311,-5.6311,-5.6311,-5.6311,-5.6311,-5.6311,-5.6311,-5.6311,-5.6311,-5.6311,-5.6311,-5.6311,-5.6311,-5.6291,-5.6304,-5.6178,-5.604,-5.5954,-5.5937,-5.5836,-5.5759,-5.5717,-5.5654,-5.5566,-5.5507,-5.5465,-5.5403,-5.5403,-5.5403,-5.5403,-5.539,-5.539,-5.539,-5.539,-5.539,-5.539,-5.539,-5.5332,-5.5305,-5.526,-5.5178,-5.5076,-5.5004,-5.496,-5.4916,-5.4852,-5.4791,-5.473,-5.4616,-5.4524,-5.4409,-5.4392,-5.4375,-5.4304,-5.4216,-5.4198,-5.418,-5.4163,-5.3963,-5.3757,-5.3662,-5.3624,-5.3506,-5.3304,-5.3136,-5.2987,-5.2761,-5.2572,-5.2544,-5.2498,-5.2498,-5.2498,-5.2498,-5.2498,-6.6707,-6.6716,-6.6744,-6.6777,-6.6758,-6.6803,-6.665,-6.6474,-6.6436,-6.5616,-6.4446,-6.3925,-6.3023,-6.1992,-6.1733,-6.1711,-6.1698,-6.1698,-6.1698,-6.1698,-6.1701,-6.1705,-6.1709,-6.1709,-6.1705,-6.1711,-6.1703,-6.1701,-6.1693,-6.1523,-6.1079,-6.0308,-5.926,-5.8422,-5.7589,-5.6809,-5.6333,-5.6309,-5.6309,-5.6317,-5.6298,-5.6311,-5.6311,-5.6311,-5.6311,-5.6311,-5.6311,-5.6311,-5.6311,-5.6311,-5.6311,-5.6311,-5.6311,-5.6311,-5.6311,-5.6311,-5.6246,-5.6199,-5.6129,-5.6071,-5.5996,-5.5891,-5.5818,-5.5749,-5.5686,-5.5643,-5.5585,-5.5477,-5.5484,-5.5447,-5.5416,-5.539,-5.539,-5.539,-5.539,-5.539,-5.539,-5.539,-5.539,-5.5358,-5.5332,-5.5345,-5.5265,-5.5137,-5.508,-5.5033,-5.499,-5.4946,-5.4852,-5.4757,-5.4698,-5.4573,-5.4573,-5.4557,-5.4491,-5.4458,-5.4441,-5.4426,-5.4426,-5.4339,-5.409,-5.3981,-5.3963,-5.3795,-5.3585,-5.3505,-5.3425,-5.3005,-5.2618,-5.2663,-5.264,-5.2544,-5.2498,-5.2498,-5.2498,-6.6712,-6.6707,-6.6716,-6.672,-6.6703,-6.6777,-6.6317,-6.5707,-6.5612,-6.5046,-6.4032,-6.3333,-6.2499,-6.1874,-6.1695,-6.1688,-6.1703,-6.1701,-6.1705,-6.1705,-6.1703,-6.1699,-6.1704,-6.1701,-6.1697,-6.1692,-6.1702,-6.1707,-6.1698,-6.1698,-6.1133,-6.0308,-5.949,-5.8572,-5.7721,-5.6948,-5.6398,-5.6333,-5.6322,-5.6314,-5.6303,-5.6304,-5.6298,-5.6317,-5.6311,-5.6311,-5.6311,-5.6311,-5.6311,-5.6311,-5.6311,-5.6311,-5.6311,-5.6311,-5.6311,-5.6311,-5.6311,-5.6278,-5.6239,-5.6213,-5.6158,-5.6012,-5.59,-5.5856,-5.5808,-5.5798,-5.5719,-5.5607,-5.5604,-5.5554,-5.5465,-5.5403,-5.5422,-5.5422,-5.5422,-5.539,-5.539,-5.539,-5.539,-5.539,-5.539,-5.539,-5.539,-5.5265,-5.5238,-5.5192,-5.5132,-5.509,-5.4971,-5.4863,-5.4867,-5.4826,-5.4826,-5.4761,-5.4632,-5.4584,-5.4519,-5.4455,-5.4424,-5.4426,-5.4321,-5.4287,-5.4198,-5.4144,-5.3963,-5.3926,-5.3795,-5.3424,-5.3091,-5.2934,-5.2824,-5.2757,-5.2599,-5.2549,-5.2503,-6.6712,-6.6712,-6.6707,-6.6716,-6.6661,-6.6159,-6.5741,-6.5386,-6.4883,-6.418,-6.3345,-6.2505,-6.1935,-6.1695,-6.1639,-6.164,-6.164,-6.1621,-6.1657,-6.1691,-6.171,-6.1712,-6.1714,-6.1696,-6.1677,-6.166,-6.1677,-6.1708,-6.1708,-6.1697,-6.1581,-6.086,-5.9726,-5.9088,-5.8258,-5.717,-5.6518,-5.6372,-5.6359,-5.6334,-5.6311,-5.6314,-5.6315,-5.6317,-5.6311,-5.6311,-5.6311,-5.6311,-5.6311,-5.6317,-5.6317,-5.6311,-5.6311,-5.6311,-5.6311,-5.6311,-5.6311,-5.6311,-5.6311,-5.6311,-5.6272,-5.6232,-5.6148,-5.6067,-5.5954,-5.5926,-5.5855,-5.5779,-5.5719,-5.5686,-5.5665,-5.5562,-5.5511,-5.5495,-5.5465,-5.5422,-5.5416,-5.5396,-5.539,-5.539,-5.539,-5.539,-5.539,-5.539,-5.5377,-5.5358,-5.5286,-5.5214,-5.5099,-5.5014,-5.5019,-5.499,-5.499,-5.4946,-5.4803,-5.4676,-5.4597,-5.4536,-5.4491,-5.4458,-5.4476,-5.4409,-5.4339,-5.4339,-5.4303,-5.4216,-5.4036,-5.3776,-5.3543,-5.332,-5.3154,-5.3051,-5.2875,-5.2645,-5.2595,-6.5933,-6.5933,-6.5913,-6.6069,-6.6225,-6.566,-6.5114,-6.4588,-6.4009,-6.3267,-6.2473,-6.1833,-6.1588,-6.1594,-6.1602,-6.1608,-6.1593,-6.1595,-6.1638,-6.166,-6.168,-6.1679,-6.1679,-6.1659,-6.1639,-6.1612,-6.1638,-6.166,-6.166,-6.1673,-6.1627,-6.1112,-6.0063,-5.9254,-5.8663,-5.7457,-5.6476,-5.643,-5.6422,-5.6386,-5.6344,-5.6334,-5.6324,-5.6345,-5.6345,-5.6345,-5.6339,-5.6333,-5.6315,-5.6303,-5.631,-5.6317,-5.6311,-5.6311,-5.6311,-5.6311,-5.6311,-5.6311,-5.6311,-5.6311,-5.6311,-5.6278,-5.6278,-5.6199,-5.6124,-5.6067,-5.604,-5.5882,-5.5855,-5.5845,-5.5827,-5.5698,-5.5654,-5.5632,-5.5535,-5.5483,-5.5453,-5.546,-5.5409,-5.539,-5.5403,-5.5403,-5.539,-5.539,-5.539,-5.539,-5.5358,-5.53,-5.526,-5.5187,-5.5159,-5.5151,-5.5123,-5.5066,-5.4975,-5.4893,-5.4799,-5.4711,-5.4651,-5.4571,-5.4541,-5.4491,-5.4443,-5.4392,-5.4392,-5.4409,-5.4287,-5.4054,-5.3851,-5.3623,-5.3465,-5.3263,-5.3136,-5.2919,-5.2779,-6.4218,-6.416,-6.4218,-6.4705,-6.5309,-6.5382,-6.4471,-6.3302,-6.2971,-6.2469,-6.1796,-6.1582,-6.1592,-6.1595,-6.1582,-6.1579,-6.1577,-6.1584,-6.1608,-6.161,-6.1631,-6.1618,-6.1616,-6.1598,-6.16,-6.1583,-6.1598,-6.1612,-6.1612,-6.1618,-6.164,-6.119,-6.0054,-5.8953,-5.8911,-5.7424,-5.6609,-5.6527,-5.6501,-5.6461,-5.6398,-5.6386,-5.6396,-5.6383,-5.6378,-5.6378,-5.6369,-5.6344,-5.6333,-5.6328,-5.6315,-5.6317,-5.631,-5.6298,-5.6311,-5.6311,-5.6311,-5.6311,-5.6311,-5.6311,-5.6311,-5.6311,-5.6311,-5.6278,-5.6285,-5.6272,-5.6218,-5.6048,-5.6012,-5.5943,-5.5873,-5.5798,-5.5789,-5.5769,-5.5665,-5.5585,-5.557,-5.5566,-5.5531,-5.5507,-5.5428,-5.5384,-5.5403,-5.539,-5.539,-5.539,-5.539,-5.5371,-5.5345,-5.5332,-5.5273,-5.526,-5.5252,-5.5225,-5.5151,-5.5099,-5.5042,-5.4927,-5.4841,-5.4733,-5.4667,-5.4635,-5.4554,-5.4476,-5.4424,-5.4455,-5.4424,-5.4375,-5.4145,-5.3907,-5.3623,-5.3445,-5.3324,-5.3201,-5.3048,-6.4082,-6.4082,-6.4082,-6.3965,-6.377,-6.375,-6.338,-6.2854,-6.2309,-6.188,-6.1646,-6.1588,-6.1578,-6.158,-6.1588,-6.1584,-6.1595,-6.1579,-6.1586,-6.1581,-6.1583,-6.1598,-6.159,-6.1588,-6.1582,-6.1579,-6.1579,-6.1583,-6.1583,-6.1577,-6.161,-6.1208,-5.9882,-5.8533,-5.7635,-5.674,-5.6599,-5.6575,-5.655,-5.652,-5.6471,-5.6464,-5.6457,-5.6414,-5.6414,-5.6418,-5.6418,-5.6377,-5.6368,-5.6359,-5.6352,-5.63,-5.6308,-5.6315,-5.6298,-5.6317,-5.6311,-5.6311,-5.6311,-5.6311,-5.6311,-5.6311,-5.6311,-5.6311,-5.6311,-5.6311,-5.6265,-5.6225,-5.6165,-5.6136,-5.6136,-5.5996,-5.5935,-5.5909,-5.5817,-5.5759,-5.5719,-5.5717,-5.5696,-5.5665,-5.5629,-5.5495,-5.546,-5.5447,-5.5447,-5.5409,-5.5396,-5.5403,-5.5358,-5.5358,-5.5345,-5.5345,-5.5351,-5.5351,-5.5319,-5.5246,-5.5173,-5.509,-5.4975,-5.4856,-5.4807,-5.4788,-5.4695,-5.4603,-5.4536,-5.4503,-5.4472,-5.4441,-5.4392,-5.418,-5.3907,-5.3738,-5.37,-5.3525,-5.3304,-6.3224,-6.3244,-6.3244,-6.2932,-6.2542,-6.2776,-6.2757,-6.2387,-6.1841,-6.1588,-6.1588,-6.1588,-6.1588,-6.1588,-6.1588,-6.1588,-6.1588,-6.1592,-6.1582,-6.1591,-6.1595,-6.1591,-6.1591,-6.1595,-6.1596,-6.1591,-6.1588,-6.1595,-6.1595,-6.1588,-6.1176,-6.0427,-5.9637,-5.8261,-5.7164,-5.6592,-5.6564,-5.6561,-5.6556,-5.6577,-5.6542,-5.6536,-5.6511,-5.6498,-5.6475,-5.6491,-5.6468,-5.6457,-5.643,-5.6418,-5.6372,-5.632,-5.6324,-5.6311,-5.6315,-5.6309,-5.6304,-5.6298,-5.6311,-5.6311,-5.6311,-5.6311,-5.6311,-5.6311,-5.6311,-5.6311,-5.6311,-5.6285,-5.6311,-5.6291,-5.6252,-5.6109,-5.6094,-5.6044,-5.5968,-5.591,-5.5855,-5.5865,-5.5808,-5.5789,-5.5749,-5.5629,-5.5542,-5.5514,-5.5483,-5.5453,-5.5415,-5.5422,-5.5396,-5.5403,-5.5403,-5.539,-5.539,-5.539,-5.5364,-5.5319,-5.526,-5.5214,-5.5118,-5.5038,-5.4971,-5.4933,-5.4848,-5.4776,-5.4711,-5.4667,-5.4538,-5.4491,-5.4455,-5.4371,-5.4216,-5.4108,-5.4072,-5.3851,-5.3603,-6.1551,-6.1583,-6.1583,-6.1656,-6.1739,-6.2435,-6.2343,-6.1646,-6.1607,-6.1588,-6.1588,-6.1588,-6.1588,-6.1588,-6.1588,-6.1588,-6.1588,-6.1588,-6.1592,-6.1578,-6.1586,-6.1582,-6.1582,-6.1582,-6.1578,-6.1592,-6.1582,-6.1595,-6.1597,-6.158,-6.0788,-5.9667,-5.9302,-5.8146,-5.7199,-5.6601,-5.6562,-5.6521,-5.6554,-5.6567,-5.6543,-5.6577,-5.6556,-5.655,-5.6545,-5.656,-5.6533,-5.652,-5.6508,-5.6494,-5.6453,-5.6418,-5.6377,-5.6339,-5.6324,-5.6317,-5.6315,-5.6309,-5.631,-5.631,-5.6317,-5.6298,-5.6311,-5.6311,-5.6311,-5.6311,-5.6311,-5.6311,-5.6311,-5.6311,-5.6278,-5.6278,-5.6272,-5.6192,-5.6102,-5.6064,-5.6012,-5.5971,-5.5901,-5.5874,-5.5836,-5.5769,-5.5728,-5.5675,-5.5596,-5.5585,-5.557,-5.5542,-5.5507,-5.5416,-5.5403,-5.539,-5.539,-5.539,-5.5377,-5.5345,-5.5332,-5.5286,-5.5319,-5.5252,-5.5187,-5.508,-5.5028,-5.4956,-5.4916,-5.4826,-5.4698,-5.4619,-5.4568,-5.4486,-5.4403,-5.432,-5.4249,-5.4108,-5.3907,-6.1428,-6.1447,-6.1447,-6.1467,-6.1492,-6.1787,-6.1787,-6.1602,-6.1588,-6.1588,-6.1588,-6.1588,-6.1588,-6.1588,-6.1588,-6.1588,-6.1588,-6.1588,-6.1588,-6.1588,-6.1588,-6.1588,-6.1588,-6.1588,-6.1588,-6.1588,-6.1588,-6.1588,-6.1588,-6.1588,-6.1105,-6.0122,-5.9274,-5.8322,-5.7459,-5.6797,-5.6605,-5.65,-5.6543,-5.6543,-5.6523,-5.6543,-5.6541,-5.6538,-5.6535,-5.655,-5.6571,-5.6565,-5.6555,-5.657,-5.6524,-5.6468,-5.6464,-5.6414,-5.6368,-5.6387,-5.6369,-5.6354,-5.6317,-5.6306,-5.6314,-5.6317,-5.6304,-5.6317,-5.6311,-5.6298,-5.6317,-5.6311,-5.6311,-5.6311,-5.6311,-5.6311,-5.6311,-5.6252,-5.6199,-5.6185,-5.6144,-5.6129,-5.6075,-5.604,-5.6004,-5.5937,-5.5883,-5.5808,-5.5758,-5.5729,-5.5717,-5.5665,-5.5615,-5.5514,-5.5447,-5.5434,-5.539,-5.539,-5.539,-5.5377,-5.539,-5.539,-5.539,-5.539,-5.5332,-5.5246,-5.52,-5.5132,-5.5047,-5.496,-5.4856,-5.4791,-5.4757,-5.4711,-5.4648,-5.4538,-5.4405,-5.4285,-5.4198,-6.134,-6.14,-6.1407,-6.1407,-6.1394,-6.1447,-6.1491,-6.1507,-6.1568,-6.1588,-6.1588,-6.1588,-6.1588,-6.1588,-6.1588,-6.1588,-6.1588,-6.1588,-6.1588,-6.1588,-6.1588,-6.1588,-6.1588,-6.1588,-6.1588,-6.1588,-6.1588,-6.1588,-6.1588,-6.1471,-6.1066,-5.9722,-5.9133,-5.8314,-5.7381,-5.6709,-5.6533,-5.6484,-5.6504,-5.6492,-5.6494,-5.6493,-5.6482,-5.6484,-5.6484,-5.6521,-5.6568,-5.6566,-5.658,-5.6608,-5.6564,-5.6542,-5.6517,-5.6494,-5.6418,-5.6414,-5.6401,-5.6368,-5.6349,-5.6364,-5.6344,-5.6342,-5.6325,-5.6319,-5.6309,-5.6297,-5.6304,-5.6311,-5.6311,-5.6311,-5.6311,-5.6311,-5.6311,-5.6311,-5.6311,-5.6291,-5.6291,-5.6291,-5.6278,-5.6272,-5.6192,-5.6114,-5.6032,-5.5937,-5.5892,-5.5855,-5.5808,-5.574,-5.5696,-5.5596,-5.5554,-5.5519,-5.5447,-5.539,-5.5403,-5.5396,-5.5403,-5.5403,-5.539,-5.539,-5.539,-5.5358,-5.5305,-5.5233,-5.5178,-5.5109,-5.5019,-5.4971,-5.4956,-5.4912,-5.4852,-5.4745,-5.4606,-5.4441,-5.439,-6.126,-6.1359,-6.1366,-6.1378,-6.1381,-6.1373,-6.1381,-6.1421,-6.1507,-6.1578,-6.1578,-6.1578,-6.1578,-6.1588,-6.1588,-6.1588,-6.1588,-6.1588,-6.1588,-6.1588,-6.1588,-6.1588,-6.1588,-6.1588,-6.1588,-6.1588,-6.1588,-6.1588,-6.1588,-6.1471,-6.0828,-5.9157,-5.902,-5.8338,-5.7169,-5.6885,-5.6726,-5.6526,-5.665,-5.6731,-5.6541,-5.6488,-5.6492,-5.6492,-5.6495,-5.65,-5.6504,-5.6501,-5.6518,-5.6582,-5.6591,-5.6571,-5.6575,-5.6564,-5.6475,-5.6441,-5.6437,-5.6426,-5.6398,-5.6414,-5.6386,-5.6381,-5.6405,-5.6373,-5.6338,-5.6308,-5.6309,-5.6298,-5.6311,-5.6311,-5.6311,-5.6311,-5.6311,-5.6311,-5.6311,-5.6311,-5.6311,-5.6311,-5.6291,-5.6285,-5.6278,-5.6192,-5.6178,-5.6106,-5.6075,-5.6012,-5.5988,-5.59,-5.5827,-5.5758,-5.5665,-5.564,-5.5581,-5.5519,-5.5453,-5.5453,-5.5422,-5.5396,-5.5416,-5.539,-5.539,-5.539,-5.539,-5.5332,-5.5279,-5.5246,-5.5187,-5.5159,-5.5118,-5.5047,-5.499,-5.4946,-5.481,-5.4638,-5.4505,-6.1145,-6.1191,-6.1171,-6.1206,-6.1252,-6.1252,-6.131,-6.1407,-6.1441,-6.146,-6.154,-6.1526,-6.1548,-6.1578,-6.1583,-6.1583,-6.1588,-6.1588,-6.1588,-6.1588,-6.1588,-6.1588,-6.1588,-6.1588,-6.1588,-6.1588,-6.1588,-6.1588,-6.1588,-6.1471,-6.112,-5.999,-5.9406,-5.8353,-5.7384,-5.7267,-5.6994,-5.6706,-5.689,-5.6898,-5.6664,-5.6543,-5.6485,-5.6489,-5.6487,-5.6481,-5.6495,-5.65,-5.6504,-5.652,-5.6537,-5.6549,-5.6586,-5.658,-5.6575,-5.6548,-5.6542,-5.6511,-5.6478,-5.6452,-5.6445,-5.6422,-5.6414,-5.6405,-5.6378,-5.6338,-5.6314,-5.6303,-5.6298,-5.6298,-5.6317,-5.6317,-5.6317,-5.6317,-5.6311,-5.6311,-5.6311,-5.6311,-5.6311,-5.6311,-5.6311,-5.6291,-5.6285,-5.6278,-5.6246,-5.6232,-5.6206,-5.6178,-5.6087,-5.6015,-5.5874,-5.5837,-5.5759,-5.5677,-5.5596,-5.5542,-5.5519,-5.5453,-5.5434,-5.5409,-5.5403,-5.539,-5.539,-5.539,-5.5358,-5.5313,-5.53,-5.5332,-5.5279,-5.5192,-5.5151,-5.509,-5.4971,-5.4803,-5.468,-6.1099,-6.1099,-6.1099,-6.1126,-6.1152,-6.1141,-6.1195,-6.1267,-6.1275,-6.1302,-6.1375,-6.1428,-6.1497,-6.1548,-6.1553,-6.1573,-6.1583,-6.1588,-6.1588,-6.1588,-6.1588,-6.1588,-6.1588,-6.1588,-6.1588,-6.1588,-6.1588,-6.1588,-6.1588,-6.151,-6.114,-6.0263,-5.9406,-5.8626,-5.7812,-5.7423,-5.7286,-5.7052,-5.7306,-5.7189,-5.6896,-5.6745,-5.6519,-5.6491,-5.6485,-5.6486,-5.6487,-5.6481,-5.6494,-5.6482,-5.6503,-5.6522,-5.6534,-5.6528,-5.6579,-5.6589,-5.6599,-5.658,-5.655,-5.652,-5.6514,-5.6498,-5.6498,-5.6501,-5.6457,-5.6401,-5.6344,-5.6333,-5.6314,-5.6314,-5.6303,-5.6317,-5.631,-5.6304,-5.6298,-5.6311,-5.6311,-5.6311,-5.6311,-5.6311,-5.6311,-5.6311,-5.6291,-5.6291,-5.6278,-5.6278,-5.6285,-5.6291,-5.6246,-5.6206,-5.6106,-5.6007,-5.5928,-5.5817,-5.5719,-5.5665,-5.5651,-5.557,-5.549,-5.544,-5.5447,-5.5396,-5.539,-5.539,-5.539,-5.539,-5.539,-5.539,-5.539,-5.5319,-5.5292,-5.5246,-5.5113,-5.4995,-5.4863,-6.1099,-6.1099,-6.1099,-6.1099,-6.1099,-6.1099,-6.1099,-6.1108,-6.1099,-6.1134,-6.1212,-6.1302,-6.1401,-6.1473,-6.1491,-6.1537,-6.1558,-6.1563,-6.1568,-6.1588,-6.1588,-6.1588,-6.1588,-6.1588,-6.1588,-6.1588,-6.1588,-6.1588,-6.1588,-6.151,-6.112,-6.0224,-5.9464,-5.8704,-5.7832,-5.7501,-5.754,-5.7754,-5.7851,-5.7617,-5.7325,-5.6974,-5.6628,-5.6487,-5.6492,-5.6496,-5.6488,-5.6486,-5.6484,-5.6484,-5.6495,-5.6503,-5.6504,-5.6503,-5.6539,-5.6572,-5.6582,-5.6579,-5.6573,-5.6565,-5.6582,-5.6602,-5.6606,-5.6575,-5.6514,-5.6468,-5.6418,-5.6372,-5.6344,-5.6333,-5.6331,-5.6333,-5.6327,-5.6315,-5.6309,-5.631,-5.631,-5.6304,-5.6298,-5.6298,-5.6298,-5.6298,-5.6317,-5.6317,-5.6317,-5.6317,-5.6311,-5.6311,-5.6291,-5.6278,-5.6218,-5.6148,-5.6083,-5.5982,-5.5865,-5.5818,-5.5789,-5.5696,-5.5618,-5.5554,-5.5477,-5.5434,-5.5396,-5.539,-5.539,-5.5403,-5.5403,-5.539,-5.539,-5.539,-5.5358,-5.5319,-5.5273,-5.5159,-5.5042,-6.1099,-6.1099,-6.1099,-6.1099,-6.1099,-6.1099,-6.1099,-6.1099,-6.1099,-6.1108,-6.1136,-6.1154,-6.1259,-6.1421,-6.1421,-6.146,-6.1515,-6.152,-6.1558,-6.1583,-6.1573,-6.1583,-6.1588,-6.1583,-6.1588,-6.1588,-6.1588,-6.1588,-6.1588,-6.151,-6.0847,-5.9561,-6.0107,-5.9347,-5.8183,-5.8241,-5.8923,-5.888,-5.8957,-5.8977,-5.8198,-5.7617,-5.6663,-5.6487,-5.6487,-5.6496,-5.6484,-5.6484,-5.6498,-5.6494,-5.6481,-5.6493,-5.6497,-5.65,-5.6522,-5.6523,-5.6521,-5.6538,-5.6536,-5.6564,-5.6579,-5.6593,-5.6591,-5.6604,-5.6567,-5.6533,-5.6475,-5.6448,-5.6426,-5.6396,-5.6398,-5.6398,-5.6393,-5.6359,-5.6349,-5.6322,-5.6306,-5.6302,-5.6317,-5.6317,-5.6317,-5.631,-5.6304,-5.6304,-5.6304,-5.6298,-5.6311,-5.6311,-5.6311,-5.6311,-5.6311,-5.6265,-5.6211,-5.6121,-5.6004,-5.5988,-5.5945,-5.5846,-5.5758,-5.5654,-5.557,-5.544,-5.5422,-5.549,-5.5447,-5.5409,-5.5396,-5.5422,-5.539,-5.539,-5.539,-5.5358,-5.5345,-5.5286,-5.5159]},{"header":{"parameterUnit":"m.s-1","parameterCategory":1,"la1":31.0,"la2":29.5877,"lo1":-88.7671,"lo2":-86.6584,"dy":0.0162,"dx":0.0185,"nx":115,"ny":88,"refTime":"2024-06-18T12:00:00:Z","depth":0,"parameterNumber":3,"parameterNumberName":"V-component_of_WINDS"},"data":[0.0,0.0,0.0,0.0,0.0,0.0,0.0,0.0,0.0,0.0,0.0,0.0,0.0,0.0,0.0,0.0,0.0,0.0,0.0,0.0,0.0,0.0,0.0,0.0,0.0,0.0,0.0,0.0,0.0,0.0,0.0,0.0,0.0,0.0,0.0,0.0,0.0,0.0,0.0,0.0,0.0,0.0,0.0,0.0,0.0,0.0,0.0,0.0,0.0,0.0,0.0,0.0,0.0,0.0,0.0,0.0,0.0,0.0,0.0,0.0,0.0,0.0,0.0,0.0,0.0,0.0,0.0,0.0,0.0,0.0,0.0,0.0,0.0,0.0,0.0,0.0,0.0,0.0,0.0,0.0,0.0,0.0,0.0,0.0,0.0,0.0,0.0,0.0,0.0,0.0,0.0,0.0,0.0,0.0,0.0,0.0,0.0,0.0,0.0,0.0,0.0,0.0,0.0,0.0,0.0,0.0,0.0,0.0,0.0,0.0,0.0,0.0,0.0,0.0,0.0,0.0,0.0,0.0,0.0,0.0,0.0,0.0,0.0,0.0,0.0,0.0,0.0,0.0,0.0,0.0,0.0,0.0,0.0,0.0,0.0,0.0,0.0,0.0,0.0,0.0,0.0,0.0,0.0,0.0,0.0,0.0,0.0,0.0,0.0,0.0,0.0,0.0,0.0,0.0,0.0,0.0,0.0,0.0,0.0,0.0,0.0,0.0,0.0,0.0,0.0,0.0,0.0,0.0,0.0,0.0,0.0,0.0,0.0,0.0,0.0,0.0,0.0,0.0,0.0,0.0,0.0,0.0,0.0,0.0,0.0,0.0,0.0,0.0,0.0,0.0,0.0,0.0,0.0,0.0,0.0,0.0,0.0,0.0,0.0,0.0,0.0,0.0,0.0,0.0,0.0,0.0,0.0,0.0,0.0,0.0,0.0,0.0,0.0,0.0,0.0,0.0,0.0,0.0,0.0,0.0,0.0,0.0,0.0,0.0,0.0,0.0,0.0,0.0,0.0,0.0,0.0,0.0,0.0,0.0,0.0,0.0,0.0,0.0,0.0,0.0,0.0,0.0,0.0,0.0,0.0,0.0,0.0,0.0,0.0,0.0,0.0,0.0,0.0,0.0,0.0,0.0,0.0,0.0,0.0,0.0,0.0,0.0,0.0,0.0,0.0,0.0,0.0,0.0,0.0,0.0,0.0,0.0,0.0,0.0,0.0,0.0,0.0,0.0,0.0,0.0,0.0,0.0,0.0,0.0,0.0,0.0,0.0,0.0,0.0,0.0,0.0,0.0,0.0,0.0,0.0,0.0,0.0,0.0,0.0,0.0,0.0,0.0,0.0,0.0,0.0,0.0,0.0,0.0,0.0,0.0,0.0,0.0,0.0,0.0,0.0,0.0,0.0,0.0,0.0,0.0,0.0,0.0,0.0,0.0,0.0,0.0,0.0,0.0,0.0,0.0,0.0,0.0,0.0,0.0,0.0,0.0,0.0,0.0,0.0,0.0,0.0,0.0,0.0,0.0,0.0,0.0,0.0,0.0,0.0,0.0,0.0,0.0,0.0,0.0,0.0,0.0,0.0,0.0,0.0,0.0,0.0,0.0,0.0,0.0,0.0,0.0,0.0,0.0,0.0,0.0,0.0,0.0,0.0,0.0,0.0,0.0,0.0,0.0,0.0,0.0,0.0,0.0,0.0,0.0,0.0,0.0,0.0,0.0,0.0,0.0,0.0,0.0,0.0,0.0,0.0,0.0,0.0,0.0,0.0,0.0,0.0,0.0,0.0,0.0,0.0,0.0,0.0,0.0,0.0,0.0,0.0,0.0,0.0,0.0,0.0,0.0,0.0,0.0,0.0,0.0,0.0,0.0,0.0,0.0,0.0,0.0,0.0,0.0,0.0,0.0,0.0,0.0,0.0,0.0,0.0,0.0,0.0,0.0,0.0,0.0,0.0,0.0,0.0,0.0,0.0,0.0,0.0,0.0,0.0,0.0,0.0,0.0,0.0,0.0,0.0,0.0,0.0,0.0,0.0,0.0,0.0,0.0,0.0,0.0,0.0,0.0,0.0,0.0,0.0,0.0,0.0,0.0,0.0,0.0,0.0,0.0,0.0,0.0,0.0,0.0,0.0,0.0,0.0,0.0,0.0,0.0,0.0,0.0,0.0,0.0,0.0,0.0,0.0,0.0,0.0,0.0,0.0,0.0,0.0,0.0,0.0,0.0,0.0,0.0,0.0,0.0,0.0,0.0,0.0,0.0,0.0,0.0,0.0,0.0,0.0,0.0,0.0,0.0,0.0,0.0,0.0,0.0,0.0,0.0,0.0,0.0,0.0,0.0,0.0,0.0,0.0,0.0,0.0,0.0,0.0,0.0,0.0,0.0,0.0,0.0,0.0,0.0,0.0,0.0,0.0,0.0,0.0,0.0,0.0,0.0,0.0,0.0,0.0,0.0,0.0,0.0,0.0,0.0,0.0,0.0,0.0,0.0,0.0,0.0,0.0,0.0,0.0,0.0,0.0,0.0,0.0,0.0,0.0,0.0,0.0,0.0,0.0,0.0,0.0,0.0,0.0,0.0,0.0,0.0,0.0,0.0,0.0,0.0,0.0,0.0,0.0,0.0,0.0,0.0,0.0,0.0,0.0,0.0,0.0,0.0,0.0,0.0,0.0,0.0,0.0,0.0,0.0,0.0,0.0,0.0,0.0,0.0,0.0,0.0,0.0,0.0,0.0,0.0,0.0,0.0,0.0,0.0,0.0,0.0,0.0,0.0,0.0,0.0,0.0,0.0,0.0,0.0,0.0,0.0,0.0,0.0,0.0,0.0,0.0,0.0,0.0,0.0,0.0,0.0,0.0,0.0,0.0,0.0,0.0,0.0,0.0,0.0,0.0,0.0,0.0,0.0,0.0,0.0,0.0,0.0,0.0,0.0,0.0,0.0,0.0,0.0,0.0,0.0,0.0,0.0,0.0,0.0,0.0,0.0,0.0,0.0,0.0,0.0,0.0,0.0,0.0,0.0,0.0,0.0,0.0,0.0,0.0,0.0,0.0,0.0,0.0,0.0,0.0,0.0,0.0,0.0,0.0,0.0,0.0,0.0,0.0,0.0,0.0,0.0,0.0,0.0,0.0,0.0,0.0,0.0,0.0,0.0,0.0,0.0,0.0,0.0,0.0,0.0,0.0,0.0,0.0,0.0,0.0,0.0,0.0,0.0,0.0,0.0,0.0,0.0,0.0,0.0,0.0,0.0,0.0,0.0,0.0,0.0,0.0,0.0,0.0,0.0,0.0,0.0,0.0,0.0,0.0,0.0,0.0,0.0,0.0,0.0,0.0,0.0,0.0,0.0,0.0,0.0,0.0,0.0,0.0,0.0,0.0,0.0,0.0,0.0,0.0,0.0,0.0,0.0,0.0,0.0,0.0,0.0,0.0,0.0,0.0,0.0,0.0,0.0,0.0,0.0,0.0,0.0,0.0,0.0,0.0,0.0,0.0,0.0,0.0,0.0,0.0,0.0,0.0,0.0,0.0,0.0,0.0,0.0,0.0,0.0,0.0,0.0,0.0,0.0,0.0,0.0,0.0,0.0,0.0,0.0,0.0,0.0,0.0,0.0,0.0,0.0,0.0,0.0,0.0,0.0,0.0,0.0,0.0,0.0,0.0,0.0,0.0,0.0,0.0,0.0,0.0,0.0,0.0,0.0,0.0,0.0,0.0,0.0,0.0,0.0,0.0,0.0,0.0,0.0,0.0,0.0,0.0,0.0,0.0,0.0,0.0,0.0,0.0,0.0,0.0,0.0,0.0,0.0,0.0,0.0,0.0,0.0,0.0,0.0,0.0,0.0,0.0,0.0,0.0,0.0,0.0,0.0,0.0,0.0,0.0,0.0,0.0,0.0,0.0,0.0,0.0,0.0,0.0,0.0,0.0,0.0,0.0,0.0,0.0,0.0,0.0,0.0,0.0,0.0,0.0,0.0,0.0,0.0,0.0,0.0,0.0,0.0,0.0,0.0,0.0,0.0,0.0,0.0,0.0,0.0,0.0,0.0,0.0,0.0,0.0,0.0,0.0,0.0,0.0,0.0,0.0,0.0,0.0,0.0,0.0,0.0,0.0,0.0,0.0,0.0,0.0,0.0,0.0,0.0,0.0,0.0,0.0,0.0,0.0,0.0,0.0,0.0,0.0,0.0,0.0,0.0,0.0,0.0,0.0,0.0,0.0,0.0,0.0,0.0,0.0,0.0,0.0,0.0,0.0,0.0,0.0,0.0,0.0,0.0,-0.8202,0.0,0.0,0.0,0.0,0.0,0.0,0.0,0.0,0.0,0.0,0.0,0.0,0.0,0.0,0.0,0.0,0.0,0.0,0.0,0.0,0.0,0.0,0.0,0.0,0.0,0.0,0.0,0.0,0.0,0.0,0.0,0.0,0.0,0.0,0.0,0.0,0.0,0.0,0.0,0.0,0.0,0.0,0.0,0.0,0.0,0.0,0.0,0.0,0.0,0.0,0.0,0.0,0.0,0.0,0.0,0.0,0.0,0.0,0.0,0.0,0.0,0.0,0.0,0.0,0.0,0.0,0.0,0.0,0.0,0.0,0.0,0.0,0.0,0.0,0.0,0.0,0.0,0.0,0.0,0.0,0.0,0.0,0.0,0.0,0.0,0.0,0.0,0.0,0.0,0.0,0.0,0.0,0.0,0.0,0.0,0.0,0.0,0.0,0.0,0.0,0.0,0.0,0.0,0.0,0.0,0.0,0.0,0.0,0.0,0.0,-0.8862,-0.9178,-0.8538,-0.8202,-0.8202,0.0,0.0,0.0,0.0,0.0,0.0,0.0,0.0,0.0,0.0,0.0,0.0,0.0,0.0,0.0,0.0,0.0,0.0,0.0,0.0,0.0,0.0,0.0,0.0,0.0,0.0,0.0,0.0,0.0,0.0,0.0,0.0,0.0,0.0,0.0,0.0,0.0,0.0,0.0,0.0,0.0,0.0,0.0,0.0,0.0,0.0,0.0,0.0,0.0,0.0,0.0,0.0,0.0,0.0,0.0,0.0,0.0,0.0,0.0,0.0,0.0,0.0,0.0,0.0,0.0,0.0,0.0,0.0,0.0,0.0,0.0,0.0,0.0,0.0,0.0,0.0,0.0,0.0,0.0,0.0,0.0,0.0,0.0,0.0,0.0,0.0,0.0,0.0,0.0,0.0,0.0,0.0,0.0,0.0,0.0,0.0,0.0,0.0,0.0,0.0,0.0,0.0,0.0,0.0,0.0,0.0,0.0,0.0,0.0,0.0,0.0,0.0,-0.8818,-0.8451,-0.8501,0.0,0.0,0.0,0.0,0.0,0.0,0.0,0.0,0.0,0.0,0.0,0.0,0.0,0.0,0.0,0.0,0.0,0.0,0.0,0.0,0.0,0.0,0.0,0.0,0.0,0.0,0.0,0.0,0.0,0.0,0.0,0.0,0.0,0.0,0.0,0.0,0.0,0.0,0.0,0.0,0.0,0.0,0.0,0.0,0.0,0.0,0.0,0.0,0.0,0.0,0.0,0.0,0.0,0.0,0.0,0.0,0.0,0.0,0.0,0.0,0.0,0.0,0.0,0.0,0.0,0.0,0.0,0.0,0.0,0.0,0.0,0.0,0.0,0.0,0.0,0.0,0.0,0.0,0.0,0.0,0.0,0.0,0.0,0.0,0.0,0.0,0.0,0.0,0.0,0.0,0.0,0.0,0.0,0.0,0.0,0.0,0.0,0.0,0.0,0.0,0.0,0.0,0.0,0.0,0.0,0.0,0.0,0.0,0.0,0.0,-0.8648,-1.0382,-0.9589,0.0,-0.9442,0.0,0.0,0.0,0.0,0.0,0.0,0.0,0.0,0.0,0.0,0.0,0.0,0.0,0.0,0.0,0.0,0.0,0.0,0.0,0.0,0.0,0.0,0.0,0.0,0.0,0.0,0.0,0.0,0.0,0.0,0.0,0.0,0.0,0.0,0.0,0.0,0.0,0.0,0.0,0.0,0.0,0.0,0.0,0.0,0.0,0.0,0.0,0.0,0.0,0.0,0.0,0.0,0.0,0.0,0.0,0.0,0.0,0.0,0.0,0.0,0.0,0.0,0.0,0.0,0.0,0.0,0.0,0.0,0.0,0.0,0.0,0.0,0.0,0.0,0.0,0.0,0.0,0.0,0.0,0.0,0.0,0.0,0.0,0.0,0.0,0.0,0.0,0.0,0.0,0.0,0.0,0.0,0.0,0.0,0.0,0.0,0.0,0.0,0.0,0.0,0.0,0.0,0.0,0.0,0.0,0.0,0.0,0.0,0.0,0.0,-0.9036,-0.9987,-0.9493,-0.9258,0.0,0.0,0.0,0.0,0.0,0.0,0.0,0.0,0.0,0.0,0.0,0.0,0.0,0.0,0.0,0.0,0.0,0.0,0.0,0.0,0.0,0.0,0.0,0.0,0.0,0.0,0.0,0.0,0.0,0.0,0.0,0.0,0.0,0.0,0.0,0.0,0.0,0.0,0.0,0.0,0.0,0.0,0.0,0.0,0.0,0.0,0.0,0.0,0.0,0.0,0.0,0.0,0.0,0.0,0.0,0.0,0.0,0.0,0.0,0.0,0.0,0.0,0.0,0.0,0.0,0.0,0.0,0.0,0.0,0.0,0.0,0.0,0.0,0.0,0.0,0.0,0.0,0.0,0.0,0.0,0.0,0.0,0.0,0.0,0.0,0.0,0.0,0.0,0.0,0.0,0.0,0.0,0.0,0.0,0.0,0.0,0.0,0.0,0.0,0.0,0.0,0.0,0.0,0.0,0.0,0.0,0.0,0.0,0.0,0.0,-0.9141,0.0,-0.9841,-0.968,-0.9446,-0.9207,0.0,0.0,0.0,0.0,0.0,0.0,0.0,0.0,0.0,0.0,0.0,0.0,0.0,0.0,0.0,0.0,0.0,0.0,0.0,0.0,0.0,0.0,0.0,0.0,0.0,0.0,0.0,0.0,0.0,0.0,0.0,0.0,0.0,0.0,0.0,0.0,0.0,0.0,0.0,0.0,0.0,0.0,0.0,0.0,0.0,0.0,0.0,0.0,0.0,0.0,0.0,0.0,0.0,0.0,0.0,0.0,0.0,0.0,0.0,0.0,0.0,0.0,0.0,0.0,0.0,0.0,0.0,0.0,0.0,0.0,0.0,0.0,0.0,0.0,0.0,0.0,0.0,0.0,0.0,0.0,0.0,0.0,0.0,0.0,0.0,0.0,0.0,0.0,0.0,0.0,0.0,0.0,0.0,0.0,0.0,0.0,0.0,0.0,0.0,0.0,0.0,0.0,0.0,0.0,0.0,0.0,0.0,0.0,0.0,-0.9794,-0.964,-1.0542,-1.0521,-1.0131,0.0,0.0,0.0,0.0,0.0,0.0,0.0,0.0,0.0,0.0,0.0,0.0,0.0,0.0,0.0,0.0,0.0,0.0,0.0,0.0,0.0,0.0,0.0,0.0,0.0,0.0,0.0,0.0,0.0,0.0,0.0,0.0,0.0,0.0,0.0,0.0,0.0,0.0,0.0,0.0,0.0,0.0,0.0,0.0,0.0,0.0,0.0,0.0,0.0,0.0,0.0,0.0,0.0,0.0,0.0,0.0,0.0,0.0,0.0,0.0,0.0,0.0,0.0,0.0,0.0,0.0,0.0,0.0,0.0,0.0,0.0,0.0,0.0,0.0,0.0,0.0,0.0,0.0,0.0,0.0,0.0,0.0,0.0,0.0,0.0,0.0,0.0,0.0,0.0,0.0,0.0,0.0,0.0,0.0,0.0,0.0,0.0,0.0,0.0,0.0,0.0,0.0,0.0,0.0,0.0,0.0,0.0,0.0,0.0,-0.8882,-0.9104,-0.9948,-1.1368,-1.0331,-0.9831,0.0,0.0,0.0,0.0,0.0,0.0,0.0,0.0,0.0,0.0,0.0,0.0,0.0,0.0,0.0,0.0,0.0,0.0,0.0,0.0,0.0,0.0,0.0,0.0,0.0,0.0,0.0,0.0,0.0,0.0,0.0,0.0,0.0,0.0,0.0,0.0,0.0,0.0,0.0,0.0,0.0,0.0,0.0,0.0,0.0,0.0,0.0,0.0,0.0,0.0,0.0,0.0,0.0,0.0,0.0,0.0,0.0,0.0,0.0,0.0,0.0,0.0,0.0,0.0,0.0,0.0,0.0,0.0,0.0,0.0,0.0,0.0,0.0,0.0,0.0,0.0,0.0,0.0,0.0,0.0,0.0,0.0,0.0,0.0,0.0,0.0,0.0,0.0,0.0,0.0,0.0,0.0,0.0,0.0,0.0,0.0,0.0,0.0,0.0,0.0,0.0,0.0,0.0,0.0,0.0,0.0,0.0,0.0,0.0,-0.836,0.0,-1.0322,0.0,-1.003,-0.9453,0.0,0.0,0.0,0.0,0.0,0.0,0.0,0.0,0.0,0.0,0.0,0.0,0.0,0.0,0.0,0.0,0.0,0.0,0.0,0.0,0.0,0.0,0.0,0.0,0.0,0.0,0.0,0.0,0.0,0.0,0.0,0.0,0.0,0.0,0.0,0.0,0.0,0.0,0.0,0.0,0.0,0.0,0.0,0.0,0.0,0.0,0.0,0.0,0.0,0.0,0.0,0.0,0.0,0.0,0.0,0.0,0.0,0.0,0.0,0.0,0.0,0.0,0.0,0.0,0.0,0.0,0.0,0.0,0.0,0.0,0.0,0.0,0.0,0.0,0.0,0.0,0.0,0.0,0.0,0.0,0.0,0.0,0.0,0.0,0.0,0.0,0.0,0.0,0.0,0.0,0.0,0.0,0.0,0.0,0.0,0.0,0.0,0.0,0.0,0.0,0.0,0.0,0.0,0.0,0.0,0.0,0.0,0.0,-0.8388,-0.966,-1.059,-1.0638,-0.9778,-0.9697,-0.9069,0.0,0.0,0.0,0.0,0.0,0.0,0.0,0.0,0.0,0.0,0.0,0.0,0.0,0.0,0.0,0.0,0.0,0.0,0.0,0.0,0.0,0.0,0.0,0.0,0.0,0.0,0.0,0.0,0.0,0.0,0.0,0.0,0.0,0.0,0.0,0.0,0.0,0.0,0.0,0.0,0.0,0.0,0.0,0.0,0.0,0.0,0.0,0.0,0.0,0.0,0.0,0.0,0.0,0.0,0.0,0.0,0.0,0.0,0.0,0.0,0.0,0.0,0.0,0.0,0.0,0.0,0.0,0.0,0.0,0.0,0.0,0.0,0.0,0.0,0.0,0.0,0.0,0.0,0.0,0.0,0.0,0.0,0.0,0.0,0.0,0.0,0.0,0.0,0.0,0.0,0.0,0.0,0.0,0.0,0.0,0.0,0.0,0.0,0.0,0.0,0.0,0.0,0.0,0.0,0.0,0.0,0.0,0.0,0.0,-0.9626,-0.9596,-0.9986,-1.0847,-0.967,-0.9126,0.0,0.0,0.0,0.0,0.0,0.0,0.0,0.0,0.0,0.0,0.0,0.0,0.0,0.0,0.0,0.0,0.0,0.0,0.0,0.0,0.0,0.0,0.0,0.0,0.0,0.0,0.0,0.0,0.0,0.0,0.0,0.0,0.0,0.0,0.0,0.0,0.0,0.0,0.0,0.0,0.0,0.0,0.0,0.0,0.0,0.0,0.0,0.0,0.0,0.0,0.0,0.0,0.0,0.0,0.0,0.0,0.0,0.0,0.0,0.0,0.0,0.0,0.0,0.0,0.0,0.0,0.0,0.0,0.0,0.0,0.0,0.0,0.0,0.0,0.0,0.0,0.0,0.0,0.0,0.0,0.0,0.0,0.0,0.0,0.0,0.0,0.0,0.0,0.0,0.0,0.0,0.0,0.0,0.0,0.0,0.0,0.0,0.0,0.0,0.0,0.0,0.0,0.0,0.0,0.0,0.0,0.0,0.0,0.0,-1.0925,-1.0633,-1.0768,-1.1457,-1.0376,-0.9659,-0.9467,0.0,0.0,0.0,0.0,0.0,0.0,0.0,0.0,0.0,0.0,0.0,0.0,0.0,0.0,0.0,0.0,0.0,0.0,0.0,0.0,0.0,0.0,0.0,0.0,0.0,0.0,0.0,0.0,0.0,0.0,0.0,0.0,0.0,0.0,0.0,0.0,0.0,0.0,0.0,0.0,0.0,0.0,0.0,0.0,0.0,0.0,0.0,0.0,0.0,0.0,0.0,0.0,0.0,0.0,0.0,0.0,0.0,0.0,0.0,0.0,0.0,0.0,0.0,0.0,0.0,0.0,0.0,0.0,0.0,0.0,0.0,0.0,0.0,0.0,0.0,0.0,0.0,0.0,0.0,0.0,0.0,0.0,0.0,0.0,0.0,0.0,0.0,0.0,0.0,0.0,0.0,0.0,0.0,0.0,0.0,0.0,0.0,0.0,0.0,0.0,0.0,0.0,0.0,0.0,0.0,0.0,0.0,0.0,-1.3272,-1.338,-1.2855,-1.1664,-1.1648,-1.0661,0.0,0.0,0.0,0.0,0.0,0.0,0.0,0.0,0.0,0.0,0.0,0.0,0.0,0.0,0.0,0.0,0.0,0.0,0.0,0.0,0.0,0.0,0.0,0.0,0.0,0.0,0.0,0.0,0.0,0.0,0.0,0.0,0.0,0.0,0.0,0.0,0.0,0.0,0.0,0.0,0.0,0.0,0.0,0.0,0.0,0.0,0.0,0.0,0.0,0.0,0.0,0.0,0.0,0.0,0.0,0.0,0.0,0.0,0.0,0.0,0.0,0.0,0.0,0.0,0.0,0.0,0.0,0.0,0.0,0.0,0.0,0.0,0.0,0.0,0.0,0.0,0.0,0.0,0.0,0.0,0.0,0.0,0.0,0.0,0.0,0.0,0.0,0.0,0.0,0.0,0.0,0.0,0.0,0.0,0.0,0.0,0.0,0.0,0.0,0.0,0.0,0.0,0.0,0.0,0.0,0.0,0.0,0.0,0.0,-1.412,-1.5563,-1.553,-1.3904,-1.2874,-1.1582,0.0,0.0,0.0,0.0,0.0,0.0,0.0,0.0,0.0,0.0,0.0,0.0,0.0,0.0,0.0,0.0,0.0,0.0,0.0,0.0,0.0,0.0,0.0,0.0,0.0,0.0,0.0,0.0,0.0,0.0,0.0,0.0,0.0,0.0,0.0,0.0,0.0,0.0,0.0,0.0,0.0,0.0,0.0,0.0,0.0,0.0,0.0,0.0,0.0,0.0,0.0,0.0,0.0,0.0,0.0,0.0,0.0,0.0,0.0,0.0,0.0,0.0,0.0,0.0,0.0,0.0,0.0,0.0,0.0,0.0,0.0,0.0,0.0,0.0,0.0,0.0,0.0,0.0,0.0,0.0,0.0,0.0,0.0,0.0,0.0,0.0,0.0,0.0,0.0,0.0,0.0,0.0,0.0,0.0,0.0,0.0,0.0,0.0,0.0,0.0,0.0,0.0,0.0,0.0,0.0,0.0,0.0,0.0,-1.3292,-1.4219,-1.6285,-1.671,-1.5251,-1.4278,-1.2901,0.0,0.0,0.0,0.0,0.0,0.0,0.0,0.0,0.0,0.0,0.0,0.0,0.0,0.0,0.0,0.0,0.0,0.0,0.0,0.0,0.0,0.0,0.0,0.0,0.0,0.0,0.0,0.0,0.0,0.0,0.0,0.0,0.0,0.0,0.0,0.0,0.0,0.0,0.0,0.0,0.0,0.0,0.0,0.0,0.0,0.0,0.0,0.0,0.0,0.0,0.0,0.0,0.0,0.0,0.0,0.0,0.0,0.0,0.0,0.0,0.0,0.0,0.0,0.0,0.0,0.0,0.0,0.0,0.0,0.0,0.0,0.0,0.0,0.0,0.0,0.0,0.0,0.0,0.0,0.0,0.0,0.0,0.0,0.0,0.0,0.0,0.0,0.0,0.0,0.0,0.0,0.0,0.0,0.0,0.0,0.0,0.0,0.0,0.0,0.0,0.0,0.0,0.0,0.0,0.0,0.0,0.0,0.0,-1.4106,-1.4063,-1.6371,-1.7123,-1.6108,-1.5599,-1.4241,0.0,0.0,0.0,0.0,0.0,0.0,0.0,0.0,0.0,0.0,0.0,0.0,0.0,0.0,0.0,0.0,0.0,0.0,0.0,0.0,0.0,0.0,0.0,0.0,0.0,0.0,0.0,0.0,0.0,0.0,0.0,0.0,0.0,0.0,0.0,0.0,0.0,0.0,0.0,0.0,0.0,0.0,0.0,0.0,0.0,0.0,0.0,0.0,0.0,0.0,0.0,0.0,0.0,0.0,0.0,0.0,0.0,0.0,0.0,0.0,0.0,0.0,0.0,0.0,0.0,0.0,0.0,0.0,0.0,0.0,0.0,0.0,0.0,0.0,0.0,0.0,0.0,0.0,0.0,0.0,0.0,0.0,0.0,0.0,0.0,0.0,0.0,0.0,0.0,0.0,0.0,0.0,0.0,0.0,0.0,0.0,0.0,0.0,0.0,0.0,0.0,0.0,0.0,0.0,0.0,0.0,0.0,0.0,-1.5263,-1.5575,-1.7716,-1.8378,-1.7252,-1.5842,-1.4134,0.0,0.0,0.0,0.0,0.0,0.0,0.0,0.0,0.0,0.0,0.0,0.0,0.0,0.0,0.0,0.0,0.0,0.0,0.0,0.0,0.0,0.0,0.0,0.0,0.0,0.0,0.0,0.0,0.0,0.0,0.0,0.0,0.0,0.0,0.0,0.0,0.0,0.0,0.0,0.0,0.0,0.0,0.0,0.0,0.0,0.0,0.0,0.0,-1.4974,0.0,0.0,0.0,0.0,0.0,0.0,0.0,0.0,0.0,0.0,0.0,0.0,0.0,0.0,0.0,0.0,0.0,0.0,0.0,0.0,0.0,0.0,0.0,0.0,0.0,0.0,0.0,0.0,0.0,0.0,0.0,0.0,0.0,0.0,0.0,0.0,0.0,0.0,0.0,0.0,0.0,0.0,0.0,0.0,0.0,0.0,0.0,0.0,0.0,0.0,0.0,0.0,0.0,0.0,0.0,0.0,0.0,0.0,0.0,-1.5265,-1.5842,-1.7384,-1.7818,-1.6968,-1.55,-1.405,0.0,0.0,0.0,0.0,0.0,0.0,0.0,0.0,0.0,0.0,0.0,0.0,0.0,0.0,0.0,0.0,0.0,0.0,0.0,0.0,0.0,0.0,0.0,0.0,0.0,0.0,0.0,0.0,0.0,0.0,0.0,0.0,0.0,0.0,0.0,0.0,0.0,0.0,0.0,0.0,0.0,0.0,0.0,0.0,0.0,0.0,0.0,0.0,0.0,0.0,0.0,0.0,0.0,0.0,0.0,0.0,0.0,0.0,0.0,0.0,0.0,0.0,0.0,0.0,0.0,0.0,0.0,0.0,0.0,0.0,0.0,0.0,0.0,0.0,0.0,0.0,0.0,0.0,0.0,0.0,0.0,0.0,0.0,0.0,0.0,0.0,0.0,0.0,0.0,0.0,0.0,0.0,0.0,0.0,0.0,0.0,0.0,0.0,0.0,0.0,0.0,0.0,0.0,0.0,0.0,0.0,0.0,-1.3649,-1.5263,-1.6246,-1.7008,-1.7155,-1.6502,-1.5282,-1.414,-1.3034,0.0,0.0,0.0,0.0,0.0,0.0,0.0,0.0,0.0,0.0,0.0,0.0,0.0,0.0,0.0,0.0,0.0,0.0,0.0,0.0,0.0,0.0,0.0,0.0,0.0,0.0,0.0,0.0,0.0,0.0,0.0,0.0,0.0,0.0,0.0,0.0,0.0,0.0,-1.1034,-1.1951,0.0,0.0,0.0,0.0,0.0,0.0,0.0,0.0,-1.5216,0.0,0.0,0.0,0.0,0.0,0.0,0.0,0.0,0.0,0.0,0.0,0.0,0.0,0.0,0.0,0.0,0.0,0.0,0.0,0.0,0.0,0.0,0.0,0.0,0.0,0.0,0.0,0.0,0.0,0.0,0.0,0.0,0.0,0.0,0.0,0.0,0.0,0.0,0.0,0.0,0.0,0.0,0.0,0.0,0.0,0.0,0.0,0.0,0.0,0.0,0.0,0.0,0.0,0.0,0.0,0.0,-1.4233,-1.5222,-1.6793,-1.9028,-1.9239,-1.8772,-1.7514,-1.6325,-1.46,-1.2274,0.0,0.0,0.0,0.0,0.0,0.0,0.0,0.0,0.0,0.0,0.0,0.0,0.0,0.0,0.0,0.0,0.0,0.0,0.0,0.0,0.0,0.0,0.0,0.0,0.0,0.0,0.0,0.0,0.0,0.0,0.0,0.0,0.0,0.0,0.0,0.0,0.0,0.0,0.0,-1.334,-1.3978,0.0,0.0,0.0,0.0,0.0,0.0,0.0,0.0,-1.597,0.0,0.0,0.0,0.0,0.0,0.0,0.0,0.0,0.0,0.0,0.0,0.0,0.0,0.0,0.0,0.0,0.0,0.0,0.0,0.0,0.0,0.0,0.0,0.0,0.0,0.0,0.0,0.0,0.0,0.0,0.0,0.0,0.0,0.0,0.0,0.0,0.0,0.0,0.0,0.0,0.0,0.0,0.0,0.0,0.0,0.0,0.0,0.0,0.0,0.0,0.0,0.0,0.0,0.0,0.0,-1.4102,-1.5468,-1.7212,-1.9423,-1.9259,-1.8666,-1.7823,-1.5555,-1.3636,0.0,0.0,0.0,0.0,0.0,0.0,0.0,0.0,0.0,0.0,0.0,0.0,0.0,0.0,0.0,0.0,0.0,0.0,0.0,0.0,0.0,0.0,0.0,0.0,0.0,0.0,0.0,0.0,0.0,0.0,0.0,0.0,0.0,0.0,0.0,0.0,0.0,0.0,0.0,0.0,-1.3969,-1.4722,-1.5376,0.0,0.0,0.0,0.0,0.0,0.0,-1.6846,-1.675,0.0,0.0,0.0,0.0,0.0,0.0,0.0,0.0,0.0,0.0,0.0,0.0,0.0,0.0,0.0,0.0,0.0,0.0,0.0,0.0,0.0,0.0,0.0,0.0,0.0,0.0,0.0,0.0,0.0,0.0,0.0,0.0,0.0,0.0,0.0,0.0,0.0,0.0,0.0,0.0,0.0,0.0,0.0,0.0,0.0,0.0,0.0,0.0,0.0,0.0,0.0,0.0,0.0,0.0,0.0,-1.3458,-1.5152,-1.6977,-1.8881,-1.8596,-1.8198,-1.7666,-1.4705,-1.2847,0.0,0.0,0.0,0.0,0.0,0.0,0.0,0.0,0.0,0.0,0.0,0.0,0.0,0.0,0.0,0.0,0.0,0.0,0.0,0.0,0.0,0.0,0.0,0.0,0.0,0.0,0.0,0.0,0.0,0.0,0.0,0.0,0.0,0.0,0.0,0.0,0.0,0.0,0.0,0.0,0.0,-1.542,-1.5704,-1.5818,0.0,0.0,0.0,0.0,-1.6541,-1.7512,0.0,0.0,0.0,0.0,0.0,0.0,0.0,0.0,0.0,0.0,0.0,0.0,0.0,0.0,0.0,0.0,0.0,0.0,0.0,0.0,0.0,0.0,0.0,0.0,0.0,0.0,0.0,0.0,0.0,0.0,0.0,0.0,0.0,0.0,0.0,0.0,0.0,0.0,0.0,0.0,0.0,0.0,0.0,0.0,0.0,0.0,0.0,0.0,0.0,0.0,0.0,0.0,0.0,0.0,0.0,0.0,-1.3561,-1.4539,-1.6011,-1.8051,-1.8301,-1.7851,-1.677,-1.5013,-1.3481,0.0,0.0,0.0,0.0,0.0,0.0,0.0,0.0,0.0,0.0,0.0,0.0,0.0,0.0,0.0,0.0,0.0,0.0,0.0,0.0,0.0,0.0,0.0,0.0,0.0,0.0,0.0,0.0,0.0,0.0,0.0,0.0,0.0,0.0,0.0,0.0,0.0,0.0,0.0,0.0,0.0,-1.6222,-1.7341,-1.6276,-1.5754,0.0,0.0,-1.7764,-1.9456,-2.0096,0.0,0.0,0.0,0.0,0.0,0.0,0.0,0.0,0.0,0.0,0.0,0.0,0.0,0.0,0.0,0.0,0.0,0.0,0.0,0.0,0.0,0.0,0.0,0.0,0.0,0.0,0.0,0.0,0.0,0.0,0.0,0.0,0.0,0.0,0.0,0.0,0.0,0.0,0.0,0.0,0.0,0.0,0.0,0.0,0.0,0.0,0.0,0.0,0.0,0.0,0.0,0.0,0.0,0.0,0.0,-1.107,-1.3373,-1.4609,-1.6098,-1.7696,-1.75,-1.7059,-1.6443,-1.4056,-1.2564,0.0,0.0,0.0,0.0,0.0,0.0,0.0,0.0,0.0,0.0,0.0,0.0,0.0,0.0,0.0,0.0,0.0,0.0,0.0,0.0,0.0,0.0,0.0,0.0,0.0,0.0,0.0,0.0,0.0,0.0,0.0,0.0,0.0,0.0,0.0,0.0,0.0,0.0,0.0,0.0,0.0,0.0,-1.7624,-1.7759,0.0,0.0,0.0,-1.9641,-1.9482,0.0,0.0,0.0,0.0,0.0,0.0,0.0,0.0,0.0,0.0,0.0,0.0,0.0,0.0,0.0,0.0,0.0,0.0,0.0,0.0,0.0,0.0,0.0,0.0,0.0,0.0,0.0,0.0,0.0,0.0,0.0,0.0,0.0,0.0,0.0,0.0,0.0,0.0,0.0,0.0,0.0,0.0,0.0,0.0,0.0,0.0,0.0,0.0,0.0,0.0,0.0,0.0,0.0,0.0,0.0,0.0,0.0,-1.2947,-1.4472,-1.58,-1.6923,-1.658,-1.6212,-1.5918,-1.343,0.0,0.0,0.0,0.0,0.0,0.0,0.0,0.0,0.0,0.0,0.0,0.0,0.0,0.0,0.0,0.0,0.0,0.0,0.0,0.0,0.0,0.0,0.0,0.0,0.0,0.0,0.0,-0.7174,0.0,0.0,0.0,0.0,0.0,0.0,0.0,0.0,0.0,0.0,0.0,0.0,0.0,0.0,-1.7538,-1.7921,-1.8834,-1.9259,0.0,0.0,-2.1205,-2.0034,-2.1767,-2.23,0.0,0.0,0.0,0.0,0.0,0.0,0.0,0.0,0.0,0.0,0.0,0.0,0.0,0.0,0.0,0.0,0.0,0.0,0.0,0.0,0.0,0.0,0.0,0.0,0.0,0.0,0.0,0.0,0.0,0.0,0.0,0.0,0.0,0.0,0.0,0.0,0.0,0.0,0.0,0.0,0.0,0.0,0.0,0.0,0.0,0.0,0.0,0.0,0.0,0.0,0.0,0.0,0.0,0.0,0.0,-1.2354,-1.364,-1.4635,-1.5313,-1.5574,-1.5471,-1.4993,-1.3715,-1.2666,0.0,0.0,0.0,0.0,0.0,0.0,0.0,0.0,0.0,0.0,0.0,0.0,0.0,0.0,0.0,0.0,0.0,0.0,0.0,0.0,0.0,0.0,0.0,0.0,0.0,0.0,0.0,0.0,0.0,0.0,0.0,0.0,0.0,0.0,0.0,0.0,0.0,0.0,0.0,0.0,0.0,-1.8729,-1.8642,-1.903,-1.9764,0.0,0.0,-2.1502,-2.2534,-2.4088,-2.4038,-2.0557,0.0,0.0,0.0,0.0,0.0,0.0,0.0,0.0,0.0,0.0,0.0,0.0,0.0,0.0,0.0,0.0,0.0,0.0,0.0,0.0,0.0,0.0,0.0,0.0,0.0,0.0,0.0,0.0,0.0,0.0,0.0,0.0,0.0,0.0,0.0,0.0,0.0,0.0,0.0,0.0,0.0,0.0,0.0,0.0,0.0,0.0,0.0,0.0,0.0,0.0,0.0,0.0,0.0,-1.0905,-1.2277,-1.3546,-1.4541,-1.5161,-1.5279,-1.516,-1.4676,-1.3653,-1.2527,0.0,0.0,0.0,0.0,0.0,0.0,0.0,0.0,0.0,0.0,0.0,0.0,0.0,0.0,0.0,0.0,0.0,0.0,0.0,0.0,0.0,0.0,0.0,0.0,0.0,0.0,0.0,0.0,-0.9717,-1.0,-1.0245,0.0,0.0,0.0,0.0,0.0,0.0,0.0,0.0,0.0,0.0,-1.8722,-1.9707,-2.0374,0.0,0.0,-2.2136,-2.2814,-2.2645,-2.365,-2.3534,-2.0751,-1.9844,0.0,0.0,0.0,0.0,0.0,0.0,0.0,0.0,0.0,0.0,0.0,0.0,0.0,0.0,0.0,0.0,0.0,0.0,0.0,0.0,0.0,0.0,0.0,0.0,0.0,0.0,0.0,0.0,0.0,0.0,0.0,0.0,0.0,0.0,0.0,0.0,0.0,0.0,0.0,0.0,0.0,0.0,0.0,0.0,0.0,0.0,0.0,0.0,0.0,0.0,0.0,0.0,-1.0756,-1.192,-1.3435,-1.4401,-1.4753,-1.512,-1.4943,-1.4164,-1.3597,-1.2614,0.0,0.0,0.0,0.0,0.0,0.0,0.0,0.0,0.0,0.0,0.0,0.0,0.0,0.0,0.0,0.0,0.0,0.0,0.0,0.0,0.0,0.0,0.0,0.0,0.0,0.0,0.0,0.0,-1.0337,-1.058,-1.0527,0.0,0.0,0.0,0.0,0.0,0.0,0.0,0.0,0.0,0.0,-1.9122,-2.0184,-2.1033,-2.1541,-2.1527,-2.2626,-2.3373,-2.3071,-2.3612,-2.335,-2.1149,0.0,0.0,0.0,0.0,0.0,0.0,0.0,0.0,0.0,0.0,0.0,0.0,0.0,0.0,0.0,0.0,0.0,0.0,0.0,0.0,0.0,0.0,0.0,0.0,0.0,0.0,0.0,0.0,0.0,0.0,0.0,0.0,0.0,0.0,0.0,0.0,0.0,0.0,0.0,0.0,0.0,0.0,0.0,0.0,0.0,0.0,0.0,0.0,0.0,0.0,0.0,0.0,0.0,-1.047,-1.1058,-1.3116,-1.4029,-1.3825,-1.4932,-1.485,-1.3371,-1.362,-1.3101,-1.163,0.0,0.0,0.0,0.0,0.0,0.0,0.0,0.0,0.0,0.0,0.0,0.0,0.0,0.0,0.0,0.0,0.0,0.0,0.0,0.0,0.0,0.0,0.0,0.0,0.0,0.0,-0.8278,-0.9372,-1.0152,0.0,0.0,0.0,0.0,0.0,0.0,0.0,0.0,0.0,0.0,-1.8913,-2.0175,-1.9788,-2.0597,-2.1645,-2.2828,-2.2562,-2.275,-2.418,-2.4433,-2.3856,0.0,0.0,0.0,0.0,0.0,0.0,0.0,0.0,0.0,0.0,0.0,0.0,0.0,0.0,0.0,0.0,0.0,0.0,0.0,0.0,0.0,0.0,0.0,0.0,0.0,0.0,0.0,-0.56,-0.5433,0.0,0.0,0.0,0.0,0.0,0.0,0.0,0.0,0.0,0.0,0.0,-0.7866,-0.8433,0.0,0.0,0.0,0.0,0.0,0.0,0.0,0.0,0.0,0.0,0.0,0.0,-1.0335,-1.1839,-1.3034,-1.408,-1.4901,-1.521,-1.5023,-1.438,-1.4003,-1.2997,-1.1297,0.0,0.0,0.0,0.0,0.0,0.0,0.0,0.0,0.0,0.0,0.0,0.0,0.0,0.0,0.0,0.0,0.0,0.0,0.0,0.0,0.0,0.0,0.0,0.0,0.0,-0.888,0.0,0.0,0.0,0.0,0.0,0.0,0.0,0.0,0.0,0.0,0.0,-1.6784,-1.7891,-1.9142,-1.9954,-2.0078,-2.0819,-2.1677,0.0,0.0,0.0,0.0,0.0,0.0,0.0,0.0,0.0,0.0,0.0,0.0,0.0,0.0,-2.2244,-1.9415,-1.9089,-1.9304,-1.9467,0.0,0.0,0.0,0.0,0.0,0.0,0.0,0.0,0.0,0.0,0.0,0.0,0.0,0.0,0.0,0.0,-0.6335,0.0,0.0,0.0,0.0,0.0,0.0,0.0,0.0,-0.845,-0.8909,-0.8869,-0.9433,-0.9506,0.0,-0.8999,-0.8417,0.0,0.0,0.0,0.0,0.0,0.0,0.0,0.0,-1.0426,-1.1677,-1.309,-1.4153,-1.4886,-1.5141,-1.4938,-1.4303,-1.3682,-1.2693,-1.1335,-1.0123,-0.9386,0.0,0.0,0.0,0.0,0.0,0.0,0.0,0.0,0.0,0.0,0.0,0.0,0.0,0.0,0.0,0.0,0.0,0.0,0.0,0.0,0.0,0.0,0.0,-0.9563,0.0,0.0,0.0,0.0,0.0,0.0,0.0,0.0,0.0,-1.5579,-1.6806,-1.8113,-1.9247,-1.9924,-2.0317,-2.0292,0.0,0.0,0.0,0.0,0.0,0.0,0.0,-2.3141,-2.301,-2.3267,-2.3577,-2.3867,-2.4902,-2.5547,-2.5152,0.0,0.0,-2.2045,-2.1621,-2.1833,-2.2051,-2.227,-2.26,-2.3107,-2.3459,-2.3953,0.0,0.0,0.0,0.0,0.0,0.0,0.0,0.0,-0.815,-0.8154,0.0,-0.7581,0.0,0.0,0.0,0.0,0.0,0.0,0.0,0.0,-1.001,-1.0416,-0.9957,-1.0184,-1.0261,-1.0205,-1.0241,-0.9823,-0.9143,-0.7986,0.0,0.0,0.0,0.0,0.0,0.0,-1.0689,-1.0654,-1.3085,-1.4148,-1.3775,-1.4667,-1.4566,-1.331,-1.2702,-1.2215,-1.1709,-1.1422,-1.0788,-0.9769,-0.9321,0.0,0.0,0.0,0.0,0.0,0.0,0.0,0.0,0.0,0.0,0.0,0.0,0.0,0.0,0.0,0.0,0.0,0.0,0.0,0.0,-0.9428,0.0,0.0,0.0,0.0,0.0,0.0,0.0,0.0,0.0,0.0,-1.6593,-1.804,-1.9651,-2.0723,0.0,0.0,0.0,0.0,-2.1844,-2.1926,-2.2055,-2.2574,-2.378,-2.466,-2.5176,-2.523,0.0,0.0,-2.6765,-2.6698,-2.6501,-2.5575,-2.6548,-2.7112,-2.6169,-2.5025,-2.4493,-2.4925,-2.4356,-2.3915,-2.4335,-2.4837,-2.5022,-0.7075,0.0,0.0,0.0,0.0,-0.8922,-0.9224,-0.9616,-0.9429,-0.9234,-0.9077,-0.8706,0.0,0.0,0.0,0.0,0.0,0.0,-0.9137,-0.9775,-1.0391,-1.0741,-1.0846,-1.1167,-1.1244,-1.1114,-1.0984,-1.0814,-1.0582,-0.9873,-0.8893,-0.7655,0.0,0.0,0.0,0.0,-1.0212,-1.1152,-1.2276,-1.3149,-1.3679,-1.4246,-1.4251,-1.3625,-1.3009,-1.2441,-1.2008,-1.1565,-1.1065,-1.0598,-0.9886,0.0,0.0,0.0,0.0,0.0,0.0,0.0,0.0,0.0,0.0,0.0,0.0,0.0,0.0,0.0,0.0,0.0,0.0,0.0,-0.8987,-0.9782,-1.0332,0.0,0.0,0.0,0.0,0.0,0.0,0.0,0.0,0.0,-1.9513,-1.9564,-1.9972,0.0,0.0,-2.062,-2.0669,-2.1121,-2.1735,-2.2316,0.0,0.0,0.0,-2.5401,-2.568,-2.6527,-2.7645,-2.8317,-2.8069,-2.8566,-2.8928,-2.8638,-2.8938,-2.9114,-2.8814,-2.7745,-2.6941,-2.7014,-2.7076,-2.7284,-2.7752,-2.816,-2.8538,-0.7376,-0.8248,-0.8326,-0.9006,-1.0099,-1.0224,-1.0469,-1.0887,-1.0631,-1.0485,-1.0383,-0.9929,-0.951,-0.9125,-0.884,0.0,0.0,0.0,-0.9929,-1.0595,-1.0879,-1.1122,-1.1342,-1.1561,-1.165,-1.1606,-1.1496,-1.1439,-1.1431,-1.0903,-1.003,-0.8794,0.0,0.0,-0.8707,-0.9606,-1.0502,-1.1395,-1.2096,-1.291,-1.3966,-1.4181,-1.4075,-1.3654,-1.3137,-1.2586,-1.211,-1.1779,-1.1381,-1.094,-1.0361,-0.969,0.0,0.0,0.0,0.0,0.0,0.0,0.0,0.0,0.0,0.0,0.0,-0.7273,-0.6625,0.0,0.0,0.0,-0.8773,-0.9599,-1.025,-1.0958,0.0,0.0,0.0,0.0,0.0,0.0,0.0,-1.6445,-1.8567,-2.0305,-2.0909,-2.0912,-2.1186,-2.2184,-2.1796,-2.1419,-2.1496,0.0,-2.2827,-2.3434,-2.4205,-2.5172,-2.6308,-2.6634,-2.7089,-2.8196,-2.8783,-2.9145,-2.9177,-2.9642,-2.9984,-2.9994,-2.9994,-2.9994,-2.9994,-2.929,-2.8742,-2.8742,-2.8959,-2.9249,-2.9528,-2.9798,-3.0099,-0.7561,-0.9112,-0.9212,-1.0037,-1.1263,-1.1492,-1.1748,-1.2024,-1.1699,-1.1736,-1.1963,-1.1151,-1.0684,-1.0427,-0.9827,0.0,0.0,-1.0615,-1.0932,-1.1269,-1.1443,-1.152,-1.152,-1.1524,-1.161,-1.1837,-1.1837,-1.1837,-1.1748,-1.1273,-1.085,-1.0493,-1.0258,-1.0068,-0.9918,-1.0767,-1.1317,-1.1376,-1.2311,-1.3286,-1.4328,-1.4198,-1.3906,-1.3518,-1.3056,-1.2564,-1.2121,-1.2073,-1.1743,-1.1051,-1.0729,-1.0239,-0.9428,0.0,0.0,0.0,0.0,0.0,0.0,0.0,0.0,0.0,0.0,0.0,0.0,0.0,0.0,0.0,-1.0646,0.0,-1.2135,-1.2747,0.0,0.0,0.0,-1.5405,-1.6376,-1.7414,-1.8209,-1.8536,0.0,0.0,0.0,0.0,-2.292,-2.3629,-2.333,-2.2989,-2.2696,-2.3606,-2.4495,-2.4647,-2.5566,-2.6406,-2.6959,-2.785,-2.8726,-2.9632,-2.9994,-2.9953,-2.9932,-2.9963,-2.9994,-2.9994,-2.9994,-2.9994,-2.9994,-2.9932,-2.9994,-2.9932,-2.9953,-2.9973,-2.9963,-2.9973,-2.9994,-0.7344,-0.8419,-0.8475,-0.9877,-1.2052,-1.2097,-1.2162,-1.2231,-1.2154,-1.2085,-1.2004,-1.1671,-1.1419,-1.1236,-1.1066,-1.1139,-1.1449,-1.1334,-1.1431,-1.1642,-1.1691,-1.1711,-1.1711,-1.1767,-1.1796,-1.1772,-1.1837,-1.1837,-1.1772,-1.165,-1.1399,-1.1045,-1.0963,-1.0449,-0.9606,-1.0499,-1.1089,-1.1323,-1.2206,-1.3106,-1.3971,-1.3466,-1.3387,-1.3739,-1.2931,-1.2355,-1.2105,-1.1921,-1.1537,-1.1009,-1.0735,-1.0258,-0.9575,-0.8632,0.0,0.0,0.0,0.0,0.0,0.0,0.0,0.0,0.0,-0.8952,-0.7794,0.0,-1.0134,0.0,-1.1943,-1.3184,-1.3873,-1.4401,0.0,0.0,-1.6442,-1.7067,-1.7762,-1.8739,-1.9315,-1.9247,-2.0287,-2.1176,-2.1653,-2.2315,-2.3016,-2.3753,-2.3205,-2.2891,-2.3297,-2.3633,-2.3887,-2.4131,-2.5256,-2.6153,-2.6539,-2.7688,-2.9017,-2.9848,-2.9994,-2.9994,-2.9994,-2.9994,-2.9994,-2.9994,-2.9994,-2.9994,-2.9994,-2.9994,-2.9994,-2.9994,-2.9994,-2.9994,-2.9994,-2.9994,-2.9994,-0.7355,-0.8285,-0.8714,-0.9981,-1.1652,-1.1728,-1.2085,-1.2536,-1.2454,-1.2365,-1.2255,-1.2089,-1.1955,-1.1861,-1.1857,-1.187,-1.1878,-1.178,-1.1748,-1.1837,-1.1837,-1.1837,-1.1837,-1.1837,-1.1837,-1.1837,-1.1837,-1.1837,-1.1837,-1.1837,-1.1671,-1.1468,-1.1386,-1.0956,-1.0273,-1.0512,-1.075,-1.0905,-1.1741,-1.2608,-1.335,-1.3107,-1.309,-1.344,-1.2689,-1.2038,-1.1635,-1.1354,-1.1052,-1.0692,-1.0347,-0.9938,-0.9432,-0.8728,-0.8179,0.0,0.0,0.0,0.0,0.0,0.0,0.0,0.0,0.0,0.0,0.0,-1.1973,0.0,-1.3982,-1.5076,-1.5679,-1.616,-1.6743,-1.7614,-1.813,-1.872,-1.9272,-1.9981,-2.0379,-2.0262,-2.0997,-2.1614,-2.1946,-2.2489,-2.3011,-2.3472,-2.3328,-2.3387,-2.4044,-2.4464,-2.4754,-2.4817,-2.5856,-2.6844,-2.7168,-2.8359,-2.9448,-2.9889,-2.9994,-2.9994,-2.9994,-2.9994,-2.9994,-2.9994,-2.9994,-2.9994,-2.9994,-2.9994,-2.9994,-2.9994,-2.9994,-2.9994,-2.9994,-2.9994,-2.9994,-0.738,-0.8191,-0.9057,-0.9823,-1.0513,-1.0683,-1.1538,-1.269,-1.2532,-1.2475,-1.2487,-1.2385,-1.2324,-1.2304,-1.2304,-1.2215,-1.2069,-1.2007,-1.1971,-1.1813,-1.1805,-1.1797,-1.1837,-1.1837,-1.1837,-1.1837,-1.1837,-1.1837,-1.1837,-1.1837,-1.1752,-1.1703,-1.1545,-1.1358,-1.1143,-1.0696,-1.0498,-1.056,-1.1441,-1.216,-1.2815,-1.2874,-1.2915,-1.2956,-1.2297,-1.1606,-1.0931,-1.0715,-1.0519,-1.0256,-0.9879,-0.9608,-0.9351,-0.8904,-0.8597,0.0,-0.8181,0.0,0.0,0.0,0.0,0.0,0.0,0.0,0.0,-1.3375,-1.4428,-1.5635,-1.6345,-1.6989,-1.7582,-1.7969,-1.8525,-1.936,-1.9808,-2.0172,-2.072,-2.1035,-2.1211,-2.1211,-2.166,-2.2002,-2.1979,-2.2505,-2.2893,-2.2958,-2.3472,-2.3994,-2.4603,-2.5278,-2.5763,-2.5926,-2.6581,-2.707,-2.8092,-2.9069,-2.9617,-2.9889,-2.9994,-2.9994,-2.9994,-2.9994,-2.9994,-2.9994,-2.9994,-2.9994,-2.9994,-2.9994,-2.9994,-2.9994,-2.9994,-2.9994,-2.9994,-2.9994,-2.9994,-0.7054,-0.7179,-0.7374,-0.7925,-0.8763,-0.8755,-1.0019,-1.1975,-1.2004,-1.2004,-1.2146,-1.2406,-1.2438,-1.2308,-1.2304,-1.2284,-1.2255,-1.2255,-1.2158,-1.1983,-1.1979,-1.1906,-1.178,-1.1837,-1.1837,-1.1837,-1.1837,-1.1837,-1.1837,-1.1837,-1.1626,-1.1334,-1.1289,-1.1114,-1.0806,0.0,0.0,0.0,-1.2341,-1.2791,-1.2913,-1.2491,-1.228,-1.2276,-1.1349,0.0,-1.0454,-1.0557,-1.0394,-0.9986,-1.01,0.0,0.0,0.0,0.0,0.0,0.0,0.0,0.0,0.0,0.0,0.0,-1.2122,-1.2196,-1.2784,-1.4911,-1.658,-1.7304,-1.8196,-1.8884,-1.9272,-1.9828,-2.0245,-2.0435,-2.0735,-2.0991,-2.1115,-2.1174,-2.1211,-2.1211,-2.1318,-2.1375,-2.1439,-2.1888,-2.2286,-2.2335,-2.3183,-2.3921,-2.4033,-2.4637,-2.5026,-2.509,-2.5293,-2.5944,-2.7384,-2.7824,-2.8635,-2.9554,-2.9994,-2.9994,-2.9994,-2.9994,-2.9994,-2.9994,-2.9994,-2.9994,-2.9994,-2.9994,-2.9994,-2.9994,-2.9994,-2.9994,-2.9994,-2.9994,-2.9994,-0.6962,0.0,-0.7513,-0.7828,0.0,-0.8587,-0.9373,-1.0309,-1.0604,-1.1068,-1.1596,-1.1831,-1.2122,-1.256,-1.2385,-1.2255,-1.2162,-1.1987,-1.1906,-1.1902,-1.1809,-1.1817,-1.1902,-1.1817,-1.1837,-1.1837,-1.1837,-1.1837,-1.1837,-1.1837,-1.1679,-1.15,-1.1496,-1.1407,-1.1232,-1.1139,-1.1145,-1.1278,-1.1545,-1.1956,-1.2394,-1.1926,-1.1714,-1.1801,0.0,0.0,0.0,0.0,0.0,0.0,0.0,0.0,0.0,0.0,0.0,-1.0677,-1.0711,-1.0992,-1.1474,-1.1513,-1.2029,-1.31,-1.4158,-1.4722,-1.4693,-1.6932,-1.8555,-1.9191,-1.9711,-2.012,-2.0442,-2.0772,-2.0913,-2.0969,-2.1108,-2.1211,-2.1211,-2.1211,-2.1211,-2.1211,-2.1211,-2.1211,-2.1211,-2.1439,-2.166,-2.1717,-2.2456,-2.3014,-2.3127,-2.3801,-2.4368,-2.4368,-2.5072,-2.5716,-2.6626,-2.7599,-2.8198,-2.9175,-2.9722,-2.9942,-2.9994,-2.9994,-2.9994,-2.9994,-2.9994,-2.9994,-2.9994,-2.9994,-2.9994,-2.9994,-2.9994,-2.9994,-2.9994,-2.9994,-2.9994,-0.699,-0.7057,-0.7909,-0.806,-0.7821,-0.8658,-0.8741,-0.8372,0.0,0.0,0.0,-1.0875,-1.1501,-1.2479,-1.2202,-1.2123,-1.2091,-1.187,-1.1805,-1.1971,-1.176,-1.1809,-1.202,-1.189,-1.1805,-1.1837,-1.1837,-1.1837,-1.1837,-1.1837,-1.1837,-1.1837,-1.1837,-1.1837,-1.1764,-1.1593,-1.1281,-1.0846,-1.0657,-1.0979,-1.1726,-1.1326,-1.1189,-1.1323,-1.1018,-1.0763,-1.0601,-1.0588,-1.0671,-1.0826,-1.0584,-1.0519,-1.0611,-1.0966,-1.13,-1.1547,-1.1957,-1.2343,-1.2581,-1.2641,-1.2969,-1.368,-1.5964,-1.7289,-1.7052,-1.8845,-2.0172,-2.0757,-2.0808,-2.0918,-2.1181,-2.1211,-2.1211,-2.1211,-2.1211,-2.1211,-2.1211,-2.1211,-2.1211,-2.1211,-2.1211,-2.1211,-2.1211,-2.1211,-2.1211,-2.1268,-2.1839,-2.2108,-2.2222,-2.3183,-2.3968,-2.4024,-2.4898,-2.5817,-2.6245,-2.7114,-2.8198,-2.8422,-2.9016,-2.9511,-2.9564,-2.9669,-2.9774,-2.9669,-2.9879,-2.9994,-2.9994,-2.9994,-2.9994,-2.9994,-2.9994,-2.9994,-2.9994,-2.9994,-2.9994,-0.699,-0.6988,-0.7121,-0.717,-0.7141,-0.719,-0.7102,-0.7038,-0.8521,-0.9239,-0.938,-0.9676,-1.0439,-1.1428,-1.1384,-1.1818,-1.2657,-1.2674,-1.2576,0.0,-1.2426,-1.2276,-1.197,-1.2004,-1.1914,-1.1784,-1.1837,-1.1837,-1.1837,-1.1837,-1.1837,-1.1837,-1.1837,-1.1837,-1.176,-1.1593,-1.1464,-1.1378,-1.1346,-1.1309,-1.1308,-1.0936,-1.0769,-1.0799,-1.0369,-0.9926,-0.9565,-1.0338,-1.0606,-1.0338,-1.0868,-1.1381,-1.1819,-1.191,-1.2143,-1.2517,-1.2678,-1.2905,-1.3303,-1.3507,-1.3927,-1.4722,-1.6648,-1.8186,-1.8897,-1.9918,-2.0742,-2.1094,-2.1123,-2.1152,-2.1211,-2.1211,-2.1211,-2.1211,-2.1211,-2.1211,-2.1211,-2.1211,-2.1211,-2.1211,-2.1211,-2.1211,-2.1211,-2.1211,-2.1211,-2.1268,-2.1668,-2.2051,-2.2222,-2.3127,-2.3801,-2.3977,-2.447,-2.5238,-2.5817,-2.6254,-2.6898,-2.7492,-2.7716,-2.7985,-2.7985,-2.8475,-2.8847,-2.8857,-2.9343,-2.9837,-2.9942,-2.9994,-2.9942,-2.9942,-2.9994,-2.9994,-2.9994,-2.9994,-2.9994,-0.699,-0.699,-0.699,-0.699,-0.6984,-0.6964,-0.6879,-0.6782,-0.7439,-0.8017,-0.8495,-0.8665,-0.9308,-1.029,-1.0143,-1.0337,-1.0786,-1.1195,-1.1486,-1.1569,-1.2063,-1.2292,-1.23,-1.2117,-1.1991,-1.191,-1.1817,-1.1837,-1.1837,-1.1837,-1.1837,-1.1837,-1.1837,-1.1837,-1.1828,-1.1691,-1.1602,-1.1496,-1.1349,-1.1189,-1.1105,-1.1162,-1.1125,-1.1019,-1.0884,-1.0879,-1.0888,-1.0978,-1.1181,-1.1492,-1.1707,-1.2073,-1.2608,-1.2797,-1.2974,-1.3313,-1.3583,-1.382,-1.4035,-1.439,-1.4679,-1.512,-1.6558,-1.7627,-1.8032,-1.9825,-2.1057,-2.1189,-2.1211,-2.1211,-2.1211,-2.1211,-2.1211,-2.1211,-2.1211,-2.1211,-2.1211,-2.1211,-2.1211,-2.1211,-2.1211,-2.1211,-2.1211,-2.1211,-2.1211,-2.1211,-2.1497,-2.1611,-2.1611,-2.2343,-2.2901,-2.3022,-2.3689,-2.4351,-2.4898,-2.5652,-2.6191,-2.6681,-2.7114,-2.734,-2.7394,-2.7824,-2.7931,-2.7985,-2.8359,-2.8741,-2.9175,-2.929,-2.9501,-2.9942,-2.9994,-2.9994,-2.9994,-2.9994,-2.9994,-0.699,-0.699,-0.699,-0.699,-0.6982,-0.6915,-0.6945,-0.691,-0.6686,-0.7042,-0.7622,-0.7658,-0.8243,-0.9157,-0.8968,-0.9015,-0.9243,-0.9811,-1.0203,-1.0522,-1.1128,-1.1762,-1.219,-1.1854,-1.1817,-1.195,-1.1857,-1.1837,-1.1837,-1.1837,-1.1837,-1.1837,-1.1837,-1.1837,-1.1837,-1.1837,-1.1703,-1.1553,-1.1248,-1.1049,-1.1024,-1.1325,-1.1374,-1.1205,-1.1361,-1.1596,-1.1835,-1.1451,-1.158,-1.221,-1.2149,-1.2405,-1.3018,-1.3348,-1.3582,-1.3933,-1.4374,-1.4587,-1.4657,-1.4984,-1.5215,-1.5327,-1.6359,-1.6991,-1.7167,-1.9158,-2.068,-2.0859,-2.1031,-2.1211,-2.1211,-2.1211,-2.1211,-2.1211,-2.1211,-2.1211,-2.1211,-2.1211,-2.1211,-2.1211,-2.1211,-2.1211,-2.1211,-2.1211,-2.1211,-2.1211,-2.1211,-2.1211,-2.1268,-2.1603,-2.1888,-2.2116,-2.2901,-2.3641,-2.3753,-2.4565,-2.5212,-2.5423,-2.5863,-2.6136,-2.6354,-2.6681,-2.7006,-2.706,-2.733,-2.7707,-2.8252,-2.8422,-2.8635,-2.9132,-2.9185,-2.9406,-2.9564,-2.9889,-3.0056,-0.699,-0.699,-0.699,-0.699,-0.6988,-0.6978,-0.7001,-0.6849,-0.6751,-0.6662,-0.6776,-0.669,-0.725,-0.8043,-0.8082,-0.8599,-0.9396,-0.9582,-0.9638,-0.9723,-0.9792,-1.0326,-1.107,-1.0958,-1.1239,-1.1847,-1.1805,-1.1724,-1.1837,-1.1837,-1.1837,-1.1837,-1.1837,-1.1837,-1.1837,-1.1837,-1.1768,-1.1744,-1.1553,-1.1293,-1.0992,-1.1012,-1.0966,-1.0785,-1.0958,-1.097,-1.095,-1.1265,-1.1454,-1.1372,-1.1603,-1.2138,-1.2906,-1.3235,-1.3627,-1.4394,-1.4708,-1.4945,-1.5102,-1.5167,-1.529,-1.5601,-1.6391,-1.6938,-1.6991,-1.7987,-1.9042,-1.9751,-2.068,-2.1096,-2.1211,-2.1211,-2.1211,-2.1211,-2.1211,-2.1211,-2.1211,-2.1211,-2.1211,-2.1211,-2.1211,-2.1211,-2.1211,-2.1211,-2.1211,-2.1211,-2.1211,-2.1211,-2.1211,-2.1268,-2.1375,-2.1489,-2.2279,-2.2958,-2.3127,-2.3183,-2.3568,-2.3512,-2.3456,-2.3896,-2.4501,-2.5101,-2.5516,-2.6027,-2.6735,-2.7168,-2.7447,-2.7501,-2.7555,-2.7931,-2.7985,-2.7931,-2.8688,-2.9396,-2.995,-0.7039,-0.699,-0.699,-0.699,-0.699,-0.699,-0.697,-0.6921,-0.6786,-0.6705,-0.6656,-0.6519,-0.6721,-0.7118,-0.7118,-0.7383,-0.7784,-0.8379,-0.8643,-0.8709,-0.931,-0.9814,-1.0146,-1.001,-1.0374,-1.1173,-1.1078,-1.126,-1.1732,-1.1837,-1.1837,-1.1837,-1.1837,-1.1837,-1.1837,-1.1837,-1.1837,-1.1837,-1.1699,-1.1541,-1.1351,-1.1414,-1.1436,-1.1372,-1.1432,-1.144,-1.1321,-1.1341,-1.1478,-1.1677,-1.1879,-1.2252,-1.2945,-1.3436,-1.3806,-1.4133,-1.4738,-1.5203,-1.5445,-1.5461,-1.5494,-1.5591,-1.5946,-1.6183,-1.6236,-1.7056,-1.7753,-1.8227,-1.9519,-2.0572,-2.1089,-2.1211,-2.1211,-2.1211,-2.1211,-2.1211,-2.1211,-2.1211,-2.1211,-2.1211,-2.1211,-2.1211,-2.1211,-2.1211,-2.1211,-2.1211,-2.1211,-2.1211,-2.1211,-2.1211,-2.1211,-2.1268,-2.166,-2.2059,-2.24,-2.2788,-2.2901,-2.3014,-2.3014,-2.3183,-2.3352,-2.3904,-2.4565,-2.4778,-2.5496,-2.6145,-2.6572,-2.6681,-2.6744,-2.7015,-2.7394,-2.7555,-2.7877,-2.8635,-2.9313,-0.7072,-0.6996,-0.699,-0.699,-0.699,-0.699,-0.699,-0.6966,-0.6803,-0.6727,-0.6707,-0.6535,-0.652,-0.652,-0.652,-0.652,-0.6587,-0.7247,-0.7581,-0.7646,-0.8382,-0.8911,-0.9099,-0.9047,-0.9435,-1.0129,-1.011,-1.0461,-1.1304,-1.1405,-1.1534,-1.1776,-1.1837,-1.1837,-1.1837,-1.1837,-1.1837,-1.1837,-1.1837,-1.1711,-1.1608,-1.1677,-1.1654,-1.1672,-1.1711,-1.1737,-1.1684,-1.1405,-1.1471,-1.1934,-1.1882,-1.2139,-1.2717,-1.3236,-1.3696,-1.4107,-1.466,-1.5237,-1.5591,-1.5601,-1.5601,-1.5601,-1.5601,-1.5601,-1.572,-1.6242,-1.6708,-1.7114,-1.8227,-1.9397,-2.027,-2.068,-2.0802,-2.0802,-2.0981,-2.1211,-2.1211,-2.1211,-2.1211,-2.1211,-2.1211,-2.1211,-2.1211,-2.1211,-2.1211,-2.1211,-2.1211,-2.1211,-2.1211,-2.1211,-2.1211,-2.1211,-2.1211,-2.1382,-2.1774,-2.2116,-2.2449,-2.2505,-2.24,-2.2449,-2.2675,-2.3191,-2.3753,-2.4128,-2.4359,-2.4757,-2.5505,-2.578,-2.5881,-2.6472,-2.6853,-2.6952,-2.7006,-2.7761,-2.8486,-0.7074,-0.6994,-0.699,-0.699,-0.699,-0.699,-0.699,-0.6978,-0.6803,-0.6727,-0.6702,-0.6533,-0.652,-0.652,-0.652,-0.652,-0.6522,-0.6587,-0.6652,-0.6654,-0.6721,-0.7185,-0.8035,-0.7934,-0.8345,-0.9197,-0.9126,-0.9477,-1.0315,-1.0365,-1.0853,-1.1655,-1.1716,-1.1776,-1.1716,-1.1776,-1.1837,-1.1837,-1.1837,-1.1828,-1.1736,-1.1624,-1.1441,-1.1318,-1.1437,-1.1506,-1.1518,-1.148,-1.1547,-1.1547,-1.1396,-1.1582,-1.2113,-1.2449,-1.3212,-1.4316,-1.4594,-1.4911,-1.5472,-1.5601,-1.5601,-1.5601,-1.5601,-1.5601,-1.5601,-1.5715,-1.6124,-1.6879,-1.7056,-1.7578,-1.8448,-1.9339,-1.9815,-1.9924,-2.063,-2.1096,-2.1146,-2.1153,-2.1211,-2.1211,-2.1211,-2.1211,-2.1211,-2.1211,-2.1211,-2.1211,-2.1211,-2.1211,-2.1211,-2.1211,-2.1211,-2.1211,-2.1211,-2.1211,-2.1261,-2.1489,-2.1439,-2.1497,-2.1717,-2.1603,-2.1888,-2.2286,-2.2909,-2.3472,-2.3753,-2.4144,-2.4654,-2.4932,-2.5034,-2.5412,-2.5881,-2.6036,-2.6145,-2.6907,-2.7577,-0.6607,-0.6992,-0.699,-0.699,-0.699,-0.699,-0.699,-0.6972,-0.6803,-0.6727,-0.6694,-0.6535,-0.652,-0.652,-0.652,-0.652,-0.652,-0.652,-0.652,-0.652,-0.652,-0.6721,-0.6982,-0.7016,-0.741,-0.8145,-0.8217,-0.8557,-0.9284,-0.9326,-0.9508,-0.9937,-1.055,-1.0857,-1.0974,-1.147,-1.1837,-1.1837,-1.1837,-1.1837,-1.1833,-1.1707,-1.1642,-1.1581,-1.1524,-1.15,-1.15,-1.1614,-1.1679,-1.1675,-1.161,-1.1696,-1.1938,-1.235,-1.3007,-1.3909,-1.4396,-1.4689,-1.4992,-1.5359,-1.5601,-1.5601,-1.5601,-1.5601,-1.5601,-1.5601,-1.5774,-1.6065,-1.6124,-1.6301,-1.6762,-1.7994,-1.8919,-1.9036,-1.9744,-2.0277,-2.045,-2.0802,-2.1211,-2.1211,-2.1211,-2.1211,-2.1211,-2.1211,-2.1211,-2.1211,-2.1211,-2.1211,-2.1211,-2.1211,-2.1211,-2.1211,-2.1211,-2.1211,-2.1211,-2.1211,-2.1211,-2.1211,-2.1268,-2.1318,-2.1546,-2.1945,-2.2513,-2.2732,-2.307,-2.3641,-2.4144,-2.4599,-2.4654,-2.4876,-2.5293,-2.5404,-2.5238,-2.6045,-2.6581,-0.5994,-0.6563,-0.6626,-0.6773,-0.6988,-0.699,-0.699,-0.6972,-0.6831,-0.6751,-0.67,-0.6564,-0.6482,-0.6524,-0.652,-0.652,-0.652,-0.652,-0.652,-0.652,-0.652,-0.652,-0.652,-0.652,-0.6803,-0.7222,-0.7155,-0.7511,-0.8304,-0.8369,-0.8535,-0.89,-0.9508,-0.9815,-0.994,-1.049,-1.0978,-1.1224,-1.1345,-1.1466,-1.1716,-1.1837,-1.1837,-1.1816,-1.1654,-1.1593,-1.1589,-1.1711,-1.1837,-1.1837,-1.1837,-1.1837,-1.1833,-1.2191,-1.2664,-1.3324,-1.3734,-1.4093,-1.4331,-1.4937,-1.5299,-1.5299,-1.5477,-1.5601,-1.5601,-1.5601,-1.5601,-1.5601,-1.5601,-1.5601,-1.5833,-1.6767,-1.7578,-1.7987,-1.8803,-1.9339,-1.9403,-2.0162,-2.0802,-2.1153,-2.1211,-2.1211,-2.1211,-2.1211,-2.1211,-2.1211,-2.1211,-2.1233,-2.1335,-2.1269,-2.1269,-2.1328,-2.1269,-2.1225,-2.1211,-2.1211,-2.1211,-2.1211,-2.1211,-2.1211,-2.1268,-2.166,-2.1945,-2.2108,-2.2505,-2.307,-2.3632,-2.42,-2.4487,-2.471,-2.4932,-2.5034,-2.5081,-2.5238,-2.5826,-0.5176,-0.5754,-0.5825,-0.6263,-0.6843,-0.6988,-0.699,-0.6972,-0.6888,-0.68,-0.6733,-0.6629,-0.6533,-0.6541,-0.6527,-0.652,-0.652,-0.652,-0.652,-0.652,-0.652,-0.652,-0.652,-0.652,-0.6471,-0.6441,-0.6143,-0.6558,-0.7401,-0.7426,-0.78,-0.8532,-0.8717,-0.8775,-0.8775,-0.9019,-0.9447,-1.0122,-1.0368,-1.0793,-1.1655,-1.1776,-1.1837,-1.1837,-1.176,-1.1752,-1.176,-1.1772,-1.1837,-1.1837,-1.1837,-1.1837,-1.1837,-1.1897,-1.2074,-1.2603,-1.2784,-1.308,-1.3629,-1.4277,-1.4629,-1.4748,-1.524,-1.5477,-1.5601,-1.5601,-1.5601,-1.5601,-1.5601,-1.5601,-1.5601,-1.5779,-1.6183,-1.6932,-1.7812,-1.8396,-1.8571,-1.9223,-2.0162,-2.0859,-2.1039,-2.1153,-2.1211,-2.1211,-2.1218,-2.1262,-2.1276,-2.1357,-2.1547,-2.143,-2.1401,-2.1481,-2.1386,-2.1218,-2.1211,-2.1211,-2.1211,-2.1211,-2.1211,-2.1211,-2.1211,-2.1432,-2.1603,-2.1767,-2.2108,-2.2619,-2.3127,-2.3632,-2.4144,-2.4368,-2.4543,-2.471,-2.4923,-2.5081,-2.5293,-0.4809,-0.51,-0.5609,-0.5899,-0.6263,-0.6771,-0.699,-0.698,-0.6892,-0.6837,-0.679,-0.6656,-0.6574,-0.6537,-0.6484,-0.652,-0.652,-0.652,-0.652,-0.652,-0.652,-0.652,-0.652,-0.652,-0.6406,-0.631,-0.6198,-0.6235,-0.6419,-0.6454,-0.6587,-0.6891,-0.7497,-0.78,-0.7864,-0.8471,-0.9022,-0.9265,-0.9937,-1.049,-1.0853,-1.1466,-1.1776,-1.1837,-1.1837,-1.1837,-1.1837,-1.1837,-1.1837,-1.1837,-1.1837,-1.1837,-1.1837,-1.1837,-1.1893,-1.207,-1.2483,-1.2779,-1.3024,-1.3624,-1.4157,-1.451,-1.4813,-1.511,-1.5542,-1.5601,-1.5601,-1.5601,-1.5601,-1.5601,-1.5601,-1.5601,-1.5774,-1.6011,-1.6879,-1.7461,-1.7578,-1.8279,-1.9216,-2.0046,-2.0226,-2.0515,-2.1039,-2.1153,-2.1226,-2.1467,-2.1503,-2.1569,-2.1635,-2.1576,-2.1437,-2.1386,-2.1254,-2.1211,-2.1211,-2.1211,-2.1211,-2.1211,-2.1211,-2.1211,-2.1211,-2.1211,-2.1375,-2.1489,-2.1831,-2.2165,-2.2675,-2.307,-2.352,-2.3913,-2.4144,-2.4376,-2.471,-2.4923,-2.5136,-0.4009,-0.43,-0.4736,-0.51,-0.5391,-0.5972,-0.6117,-0.6183,-0.6425,-0.6455,-0.6473,-0.6565,-0.6621,-0.6578,-0.6562,-0.6522,-0.652,-0.652,-0.652,-0.652,-0.652,-0.652,-0.652,-0.652,-0.6496,-0.6362,-0.6276,-0.6186,-0.61,-0.6012,-0.5951,-0.6046,-0.6523,-0.6827,-0.6888,-0.7436,-0.7864,-0.8349,-0.9265,-0.9937,-1.0425,-1.1285,-1.1837,-1.1837,-1.1837,-1.1837,-1.1837,-1.1837,-1.1837,-1.1837,-1.1837,-1.1837,-1.1837,-1.1837,-1.1837,-1.1897,-1.213,-1.2363,-1.2427,-1.2964,-1.3439,-1.3854,-1.4331,-1.4748,-1.5175,-1.5418,-1.5601,-1.5601,-1.5601,-1.5601,-1.5601,-1.5601,-1.5601,-1.5596,-1.6124,-1.6644,-1.6938,-1.7519,-1.8279,-1.8991,-1.9281,-1.9744,-2.0392,-2.0694,-2.0931,-2.1365,-2.1518,-2.1598,-2.1613,-2.1576,-2.1437,-2.1335,-2.1291,-2.1254,-2.1218,-2.1211,-2.1211,-2.1211,-2.1211,-2.1211,-2.1211,-2.1211,-2.1261,-2.1318,-2.1546,-2.1831,-2.2279,-2.2449,-2.2845,-2.3239,-2.3697,-2.4033,-2.4368,-2.4701,-2.4923,-0.277,-0.3428,-0.3501,-0.401,-0.4592,-0.481,-0.4882,-0.4882,-0.5459,-0.5712,-0.5789,-0.6126,-0.6399,-0.6387,-0.63,-0.6319,-0.6453,-0.652,-0.652,-0.652,-0.652,-0.652,-0.652,-0.652,-0.6514,-0.6498,-0.6349,-0.6261,-0.6163,-0.608,-0.5944,-0.5927,-0.5978,-0.5916,-0.6101,-0.5978,-0.6526,-0.7314,-0.8227,-0.9143,-0.994,-1.0978,-1.1591,-1.1591,-1.1591,-1.1651,-1.1776,-1.1837,-1.1837,-1.1837,-1.1837,-1.1837,-1.1837,-1.1837,-1.1837,-1.1837,-1.1837,-1.1833,-1.1953,-1.2371,-1.2719,-1.296,-1.3734,-1.457,-1.457,-1.5056,-1.5418,-1.5418,-1.5537,-1.5601,-1.5601,-1.5601,-1.5601,-1.5601,-1.572,-1.6124,-1.6762,-1.6879,-1.7349,-1.8104,-1.8389,-1.8687,-1.957,-1.9693,-2.0132,-2.0664,-2.0989,-2.1177,-2.1387,-2.1329,-2.1401,-2.1372,-2.1291,-2.1262,-2.1211,-2.1211,-2.1211,-2.1211,-2.1211,-2.1211,-2.1211,-2.1211,-2.1211,-2.1268,-2.1318,-2.1546,-2.1774,-2.1945,-2.2286,-2.2732,-2.3239,-2.3689,-2.4089,-2.4368,-2.4646,-0.2406,-0.2698,-0.3209,-0.3647,-0.3937,-0.4447,-0.4665,-0.4738,-0.4882,-0.4942,-0.4977,-0.5023,-0.517,-0.5142,-0.5503,-0.5716,-0.5781,-0.6185,-0.652,-0.652,-0.652,-0.652,-0.652,-0.652,-0.652,-0.6508,-0.6368,-0.6272,-0.618,-0.61,-0.5946,-0.5921,-0.5919,-0.5919,-0.5919,-0.5919,-0.5978,-0.6405,-0.7314,-0.7861,-0.8288,-0.9204,-0.9937,-1.0671,-1.0671,-1.1039,-1.1712,-1.1837,-1.1837,-1.1837,-1.1837,-1.1837,-1.1837,-1.1837,-1.1837,-1.1837,-1.1837,-1.1837,-1.1837,-1.1953,-1.2247,-1.2659,-1.308,-1.3439,-1.3923,-1.4515,-1.4813,-1.4932,-1.524,-1.5542,-1.5601,-1.5601,-1.5601,-1.5601,-1.5601,-1.572,-1.5952,-1.6011,-1.6295,-1.7167,-1.7343,-1.7812,-1.8454,-1.881,-1.8991,-1.9553,-2.0075,-2.0499,-2.0599,-2.1161,-2.1242,-2.1205,-2.1175,-2.1218,-2.1211,-2.1211,-2.1211,-2.1211,-2.1211,-2.1211,-2.1211,-2.1211,-2.1211,-2.1211,-2.1211,-2.1432,-2.1375,-2.1432,-2.1888,-2.2279,-2.2562,-2.2901,-2.3585,-2.4033,-2.4368,-0.226,-0.2333,-0.277,-0.299,-0.3063,-0.3498,-0.3717,-0.3789,-0.4081,-0.4213,-0.4251,-0.4455,-0.4469,-0.4504,-0.4821,-0.4975,-0.5042,-0.5377,-0.5512,-0.5647,-0.585,-0.6185,-0.6386,-0.652,-0.652,-0.6516,-0.64,-0.6302,-0.6194,-0.6129,-0.6041,-0.5939,-0.5919,-0.5919,-0.5919,-0.5919,-0.5919,-0.6101,-0.6888,-0.7373,-0.7434,-0.8288,-0.8958,-0.9569,-0.9694,-1.0122,-1.0978,-1.1163,-1.1345,-1.1651,-1.1837,-1.1837,-1.1837,-1.1837,-1.1837,-1.1837,-1.1837,-1.1837,-1.1837,-1.1837,-1.1953,-1.2307,-1.2543,-1.2904,-1.3324,-1.3858,-1.4217,-1.4282,-1.4585,-1.4883,-1.5175,-1.5418,-1.5601,-1.5601,-1.5601,-1.5601,-1.5601,-1.5661,-1.5833,-1.6242,-1.6473,-1.6767,-1.7695,-1.7812,-1.8121,-1.8626,-1.9161,-1.9357,-1.9553,-2.0354,-2.0755,-2.0477,-2.0802,-2.0917,-2.0917,-2.0917,-2.1211,-2.1211,-2.1211,-2.1211,-2.1211,-2.1211,-2.1211,-2.1211,-2.1211,-2.1211,-2.1211,-2.1211,-2.1375,-2.1717,-2.1888,-2.223,-2.2958,-2.352,-2.3809,-0.226,-0.226,-0.226,-0.226,-0.2333,-0.2333,-0.2478,-0.2479,-0.3063,-0.3403,-0.3432,-0.4019,-0.3966,-0.4183,-0.413,-0.4167,-0.4234,-0.4435,-0.4435,-0.4637,-0.5042,-0.5649,-0.6252,-0.6453,-0.652,-0.652,-0.652,-0.6407,-0.6219,-0.6176,-0.6082,-0.5957,-0.5919,-0.5919,-0.5919,-0.5919,-0.5919,-0.6037,-0.6646,-0.7011,-0.7131,-0.7742,-0.8291,-0.8653,-0.8961,-0.9326,-0.9937,-1.0183,-1.049,-1.1405,-1.1655,-1.1776,-1.1837,-1.1837,-1.1837,-1.1837,-1.1837,-1.1837,-1.1837,-1.1837,-1.1837,-1.1953,-1.2307,-1.2603,-1.2724,-1.3204,-1.3564,-1.3564,-1.3629,-1.4107,-1.4461,-1.5002,-1.5299,-1.5299,-1.5418,-1.5483,-1.5601,-1.5601,-1.5601,-1.5601,-1.5596,-1.6065,-1.6532,-1.6932,-1.7114,-1.7421,-1.7957,-1.8315,-1.8608,-1.9206,-1.9316,-1.9075,-1.9679,-2.0622,-2.0622,-2.0622,-2.0974,-2.1211,-2.1211,-2.1211,-2.1211,-2.1211,-2.1211,-2.1211,-2.1211,-2.1211,-2.1211,-2.1203,-2.1261,-2.1318,-2.1603,-2.1888,-2.223,-2.2675,-2.307,-0.226,-0.226,-0.226,-0.226,-0.226,-0.226,-0.226,-0.2333,-0.2479,-0.2606,-0.2573,-0.2681,-0.2715,-0.2747,-0.3251,-0.343,-0.3496,-0.3899,-0.43,-0.43,-0.4435,-0.4975,-0.5647,-0.6116,-0.6453,-0.6453,-0.652,-0.6421,-0.6227,-0.6172,-0.6092,-0.5945,-0.5921,-0.5919,-0.5919,-0.5919,-0.5919,-0.5916,-0.616,-0.6283,-0.6283,-0.6526,-0.7013,-0.7681,-0.8288,-0.8775,-0.9019,-0.914,-0.9201,-0.9754,-1.0796,-1.1591,-1.1651,-1.1776,-1.1837,-1.1837,-1.1837,-1.1837,-1.1837,-1.1837,-1.1837,-1.1837,-1.1953,-1.2014,-1.2014,-1.2548,-1.2904,-1.3024,-1.3384,-1.3629,-1.3863,-1.3983,-1.4401,-1.4753,-1.4873,-1.5056,-1.5483,-1.5601,-1.5601,-1.5601,-1.5601,-1.5715,-1.5893,-1.6005,-1.6183,-1.6354,-1.6762,-1.7226,-1.7695,-1.8163,-1.8104,-1.7923,-1.9216,-2.0155,-2.0097,-2.0328,-2.0974,-2.1211,-2.1211,-2.1211,-2.1211,-2.1211,-2.1211,-2.1211,-2.1211,-2.1211,-2.1211,-2.1211,-2.1203,-2.1261,-2.1318,-2.1603,-2.1888,-2.2173,-2.2449,-0.226,-0.226,-0.226,-0.226,-0.226,-0.226,-0.226,-0.226,-0.226,-0.2317,-0.2289,-0.2188,-0.2229,-0.2198,-0.2575,-0.2759,-0.2826,-0.3094,-0.3496,-0.3697,-0.3831,-0.4168,-0.4772,-0.5309,-0.5713,-0.6319,-0.652,-0.6436,-0.627,-0.6192,-0.6114,-0.5924,-0.5939,-0.5919,-0.5919,-0.5919,-0.5919,-0.5919,-0.5919,-0.5919,-0.5919,-0.5916,-0.6037,-0.6646,-0.7194,-0.7622,-0.8105,-0.8166,-0.841,-0.89,-0.9815,-1.0611,-1.1163,-1.153,-1.1776,-1.1837,-1.1837,-1.1837,-1.1837,-1.1837,-1.1837,-1.1837,-1.1837,-1.1837,-1.1837,-1.2134,-1.2251,-1.2371,-1.2612,-1.2853,-1.3204,-1.3624,-1.3863,-1.4097,-1.4451,-1.4753,-1.5116,-1.5418,-1.5601,-1.5601,-1.5601,-1.5601,-1.5601,-1.5601,-1.5661,-1.6005,-1.6005,-1.6414,-1.6585,-1.6997,-1.7109,-1.7402,-1.8868,-1.9693,-1.957,-2.004,-2.1031,-2.1211,-2.1211,-2.1211,-2.1211,-2.1211,-2.1211,-2.1211,-2.1211,-2.1211,-2.1211,-2.1211,-2.1211,-2.1268,-2.1325,-2.1439,-2.1554,-2.1717,-2.2002,-0.226,-0.226,-0.226,-0.226,-0.226,-0.226,-0.226,-0.226,-0.226,-0.2317,-0.2289,-0.2259,-0.2228,-0.2198,-0.2236,-0.2223,-0.2222,-0.2289,-0.2692,-0.3027,-0.3027,-0.3497,-0.4034,-0.4301,-0.4838,-0.6049,-0.6049,-0.5928,-0.5848,-0.6029,-0.5811,-0.5859,-0.5897,-0.5859,-0.5919,-0.5919,-0.5919,-0.5919,-0.5919,-0.5919,-0.5919,-0.5919,-0.5978,-0.6039,-0.6101,-0.6526,-0.7008,-0.7192,-0.7497,-0.8291,-0.8471,-0.9022,-0.9876,-1.0914,-1.1591,-1.153,-1.1651,-1.1837,-1.1837,-1.1837,-1.1837,-1.1837,-1.1837,-1.1837,-1.1837,-1.1837,-1.1893,-1.1893,-1.2014,-1.2134,-1.2543,-1.2904,-1.3329,-1.3564,-1.4038,-1.4331,-1.4575,-1.4997,-1.518,-1.5601,-1.5601,-1.5601,-1.5601,-1.5601,-1.5601,-1.5601,-1.5601,-1.5661,-1.5893,-1.6005,-1.6236,-1.6585,-1.7877,-1.8926,-1.8984,-1.957,-2.0565,-2.0802,-2.0917,-2.1089,-2.1146,-2.1211,-2.1211,-2.1211,-2.1211,-2.1211,-2.1211,-2.1211,-2.1211,-2.1211,-2.1268,-2.1325,-2.1325,-2.1211,-2.1546,-0.226,-0.226,-0.226,-0.226,-0.226,-0.226,-0.226,-0.226,-0.226,-0.2317,-0.2288,-0.2258,-0.2228,-0.2198,-0.2168,-0.2223,-0.2222,-0.2222,-0.2289,-0.2424,-0.249,-0.2826,-0.3295,-0.343,-0.3899,-0.4435,-0.4702,-0.4671,-0.481,-0.4996,-0.5385,-0.5299,-0.5658,-0.5865,-0.5921,-0.5919,-0.5919,-0.5919,-0.5919,-0.5919,-0.5919,-0.5919,-0.5919,-0.5919,-0.5919,-0.6039,-0.6099,-0.616,-0.6221,-0.6405,-0.7192,-0.7678,-0.8291,-0.9572,-1.0365,-1.0671,-1.1163,-1.1409,-1.1591,-1.1716,-1.1776,-1.1837,-1.1837,-1.1837,-1.1837,-1.1837,-1.1837,-1.1837,-1.1837,-1.1893,-1.1957,-1.2251,-1.2432,-1.2728,-1.308,-1.3315,-1.3744,-1.4102,-1.4525,-1.518,-1.5364,-1.5601,-1.5601,-1.5601,-1.5601,-1.5601,-1.5601,-1.5601,-1.572,-1.5774,-1.5774,-1.6124,-1.6644,-1.7636,-1.8331,-1.9158,-1.9982,-2.0104,-2.0335,-2.0795,-2.0917,-2.1146,-2.1211,-2.1211,-2.1211,-2.1211,-2.1211,-2.1211,-2.1211,-2.1211,-2.1211,-2.1211,-2.1211,-2.1211,-2.1211,-0.1385,-0.1458,-0.2041,-0.226,-0.226,-0.226,-0.226,-0.226,-0.226,-0.2317,-0.2288,-0.2259,-0.2228,-0.2198,-0.2168,-0.2223,-0.2222,-0.2222,-0.2222,-0.2222,-0.2222,-0.2357,-0.2691,-0.2692,-0.2894,-0.3162,-0.3227,-0.3688,-0.4256,-0.4857,-0.5041,-0.5227,-0.5653,-0.5967,-0.5929,-0.5919,-0.5919,-0.5919,-0.5919,-0.5919,-0.5919,-0.5919,-0.5919,-0.5919,-0.5919,-0.5919,-0.5919,-0.5919,-0.5916,-0.6039,-0.6342,-0.6585,-0.7072,-0.7864,-0.9022,-0.9511,-1.0061,-1.055,-1.0917,-1.1039,-1.1224,-1.1776,-1.1776,-1.1837,-1.1837,-1.1837,-1.1837,-1.1837,-1.1837,-1.1837,-1.1837,-1.1837,-1.1953,-1.2186,-1.2483,-1.2844,-1.3144,-1.3449,-1.3988,-1.4585,-1.4759,-1.5056,-1.5601,-1.5601,-1.5601,-1.5601,-1.5542,-1.5542,-1.5542,-1.5601,-1.5601,-1.5893,-1.6295,-1.6997,-1.7806,-1.8454,-1.9049,-1.9223,-1.957,-2.0097,-2.0385,-2.0443,-2.0859,-2.1146,-2.1153,-2.1031,-2.1211,-2.1211,-2.1211,-2.1211,-2.1211,-2.1211,-2.1211,-2.1211,-2.1211,-0.0219,-0.0364,-0.1458,-0.1968,-0.1968,-0.2187,-0.226,-0.226,-0.226,-0.2321,-0.2296,-0.2262,-0.2163,-0.2204,-0.2175,-0.2222,-0.2222,-0.2222,-0.2222,-0.2222,-0.2222,-0.2222,-0.2222,-0.2222,-0.2289,-0.2424,-0.2424,-0.2759,-0.3683,-0.45,-0.4898,-0.5016,-0.5521,-0.5946,-0.5935,-0.5919,-0.5919,-0.5919,-0.5919,-0.5919,-0.5919,-0.5919,-0.5919,-0.5919,-0.5919,-0.5919,-0.5919,-0.5919,-0.5919,-0.5919,-0.5916,-0.5916,-0.6039,-0.6646,-0.7436,-0.8108,-0.8532,-0.9265,-0.9694,-0.9997,-1.0365,-1.1224,-1.1409,-1.1591,-1.1837,-1.1837,-1.1837,-1.1837,-1.1837,-1.1837,-1.1837,-1.1837,-1.1837,-1.1893,-1.2251,-1.2548,-1.2608,-1.2848,-1.3149,-1.3619,-1.3973,-1.4331,-1.4764,-1.4883,-1.4764,-1.4942,-1.4878,-1.5175,-1.518,-1.5542,-1.5661,-1.5779,-1.6124,-1.6708,-1.7285,-1.7636,-1.8046,-1.8169,-1.8629,-1.9152,-1.939,-1.9506,-1.9975,-2.0328,-2.0687,-2.063,-2.0917,-2.1211,-2.1211,-2.1211,-2.1211,-2.1211,-2.1211,-2.1211,-2.1211,0.102,0.0875,-0.0291,-0.0802,-0.0947,-0.175,-0.2187,-0.2187,-0.2114,-0.2259,-0.2024,-0.22,-0.2102,-0.222,-0.2176,-0.2224,-0.2222,-0.2222,-0.2222,-0.2222,-0.2222,-0.2222,-0.2222,-0.2222,-0.2222,-0.2222,-0.2222,-0.2223,-0.2887,-0.385,-0.4255,-0.439,-0.5284,-0.595,-0.576,-0.5861,-0.5919,-0.5919,-0.5919,-0.5919,-0.5919,-0.5919,-0.5919,-0.5919,-0.5919,-0.5919,-0.5919,-0.5919,-0.5919,-0.5919,-0.5919,-0.5919,-0.5919,-0.598,-0.6099,-0.6709,-0.7683,-0.8836,-0.8961,-0.9022,-0.9387,-1.0243,-1.049,-1.0978,-1.1345,-1.1655,-1.1655,-1.1837,-1.1837,-1.1837,-1.1837,-1.1837,-1.1837,-1.1837,-1.1953,-1.2014,-1.2074,-1.2251,-1.2548,-1.2728,-1.3084,-1.3384,-1.3748,-1.3808,-1.3928,-1.4102,-1.4336,-1.4575,-1.4873,-1.5121,-1.5601,-1.572,-1.5779,-1.6301,-1.6532,-1.6938,-1.7114,-1.7173,-1.7578,-1.8104,-1.8396,-1.8571,-1.868,-1.9036,-1.957,-2.0162,-2.0385,-2.068,-2.1031,-2.1211,-2.1211,-2.1211,-2.1211,-2.1211,-2.1211,0.2768,0.2039,0.0947,0.0437,0.0364,-0.0146,-0.0291,-0.0291,-0.0291,-0.0361,-0.0499,-0.1057,-0.1531,-0.1989,-0.223,-0.2223,-0.2222,-0.2222,-0.2222,-0.2222,-0.2222,-0.2155,-0.2222,-0.2222,-0.2222,-0.2087,-0.2222,-0.2222,-0.2551,-0.3008,-0.3572,-0.3716,-0.4755,-0.5452,-0.5423,-0.5754,-0.5861,-0.5919,-0.5919,-0.5919,-0.5919,-0.5919,-0.5919,-0.5919,-0.5919,-0.5919,-0.5919,-0.5919,-0.5919,-0.5919,-0.5919,-0.5919,-0.5919,-0.5919,-0.5916,-0.598,-0.6587,-0.7378,-0.7864,-0.7986,-0.8532,-0.9143,-0.9511,-0.9876,-1.0675,-1.0978,-1.1285,-1.1776,-1.1776,-1.1776,-1.1776,-1.1837,-1.1837,-1.1837,-1.1837,-1.1837,-1.1837,-1.1837,-1.2014,-1.2134,-1.2251,-1.2612,-1.2969,-1.3269,-1.3449,-1.3629,-1.3803,-1.4043,-1.4282,-1.4634,-1.5121,-1.5601,-1.5661,-1.572,-1.5893,-1.6124,-1.6183,-1.6242,-1.6301,-1.682,-1.7402,-1.763,-1.7747,-1.8098,-1.8745,-1.9274,-1.9679,-2.0385,-2.0974,-2.1096,-2.1211,-2.1211,-2.1211,-2.1211,-2.1211,0.4153,0.3278,0.2112,0.1603,0.1602,0.1312,0.1163,0.116,0.1087,0.1074,0.0914,0.0209,-0.0756,-0.1556,-0.1751,-0.1818,-0.2222,-0.2222,-0.2222,-0.2222,-0.2155,-0.202,-0.1885,-0.1885,-0.202,-0.1818,-0.2087,-0.2155,-0.2357,-0.2686,-0.3001,-0.3161,-0.4274,-0.4726,-0.4849,-0.5033,-0.53,-0.5546,-0.5546,-0.5671,-0.5855,-0.5919,-0.5919,-0.5919,-0.5919,-0.5919,-0.5919,-0.5919,-0.5919,-0.5919,-0.5919,-0.5919,-0.5919,-0.5919,-0.5919,-0.5919,-0.616,-0.6403,-0.683,-0.7133,-0.7559,-0.8166,-0.8778,-0.9204,-0.9694,-0.9937,-1.0365,-1.1224,-1.1288,-1.147,-1.1716,-1.1837,-1.1837,-1.1837,-1.1837,-1.1837,-1.1837,-1.1837,-1.1837,-1.1893,-1.2014,-1.1953,-1.2315,-1.2793,-1.3033,-1.3149,-1.3329,-1.3509,-1.3803,-1.4097,-1.4401,-1.4942,-1.4942,-1.5002,-1.524,-1.5359,-1.5418,-1.5542,-1.5542,-1.5774,-1.6473,-1.6762,-1.682,-1.7285,-1.7864,-1.8163,-1.8396,-1.9686,-2.0859,-2.0744,-2.0802,-2.1096,-2.1211,-2.1211,-2.1211,0.4665,0.4445,0.3278,0.2767,0.2694,0.1603,0.123,0.1434,0.1288,0.1277,0.1188,0.0898,0.0341,-0.0405,-0.074,-0.1144,-0.2087,-0.2155,-0.202,-0.202,-0.2087,-0.1548,-0.1346,-0.1481,-0.1616,-0.0942,-0.1414,-0.1953,-0.2222,-0.2222,-0.2669,-0.3161,-0.3769,-0.4032,-0.4163,-0.4294,-0.4562,-0.4867,-0.4989,-0.5298,-0.5607,-0.5794,-0.5855,-0.5857,-0.5919,-0.5919,-0.5919,-0.5919,-0.5919,-0.5919,-0.5919,-0.5919,-0.5919,-0.5919,-0.5919,-0.5919,-0.5919,-0.6039,-0.6221,-0.628,-0.6585,-0.7436,-0.8105,-0.8535,-0.8839,-0.89,-0.9387,-1.0243,-1.0368,-1.0736,-1.1285,-1.1776,-1.1591,-1.1591,-1.1591,-1.1837,-1.1837,-1.1837,-1.1837,-1.1837,-1.1837,-1.1837,-1.1837,-1.2315,-1.2436,-1.2552,-1.2728,-1.2909,-1.3324,-1.3679,-1.3744,-1.3988,-1.3988,-1.4162,-1.4575,-1.4753,-1.4992,-1.5294,-1.5477,-1.5542,-1.5833,-1.5952,-1.6183,-1.6295,-1.682,-1.6938,-1.7285,-1.846,-1.9455,-1.9989,-2.0277,-2.045,-2.0852,-2.1031,-2.1146,0.4665,0.4665,0.4153,0.4007,0.3931,0.3467,0.323,0.3284,0.3187,0.2732,0.2074,0.2046,0.1487,0.074,0.0471,0.0269,-0.0134,-0.0134,-0.0605,-0.101,-0.101,-0.0875,-0.0741,-0.0606,-0.0606,0.0,-0.0606,-0.1144,-0.1144,-0.1616,-0.2218,-0.2657,-0.3065,-0.3291,-0.3436,-0.3622,-0.4014,-0.4127,-0.4312,-0.4619,-0.5112,-0.5298,-0.5485,-0.5857,-0.5919,-0.5919,-0.5919,-0.5919,-0.5919,-0.5857,-0.5857,-0.5919,-0.5919,-0.5919,-0.5919,-0.5919,-0.5919,-0.5919,-0.5919,-0.5919,-0.6101,-0.6283,-0.6832,-0.7319,-0.7864,-0.7922,-0.841,-0.9022,-0.9387,-0.9694,-0.9815,-1.0486,-1.0853,-1.1039,-1.1285,-1.1591,-1.1716,-1.1712,-1.1837,-1.1837,-1.1837,-1.1837,-1.1837,-1.1837,-1.1897,-1.1893,-1.213,-1.2367,-1.2784,-1.3144,-1.3209,-1.3329,-1.3329,-1.3509,-1.3918,-1.4331,-1.4629,-1.4932,-1.524,-1.5359,-1.5364,-1.5601,-1.5774,-1.5774,-1.5828,-1.6124,-1.6649,-1.7408,-1.811,-1.8816,-1.9281,-1.9506,-2.0033,-2.0737,-2.0917,0.461,0.461,0.4609,0.462,0.4631,0.4591,0.4553,0.4516,0.4406,0.4077,0.3274,0.3173,0.2554,0.1815,0.1546,0.1277,0.1008,0.0874,0.0538,0.0202,0.0,0.0135,0.0269,0.0336,0.0471,0.1075,0.0605,0.0,-0.0067,-0.0875,-0.1277,-0.16,-0.2032,-0.2263,-0.2818,-0.3074,-0.3454,-0.3575,-0.3698,-0.3943,-0.4496,-0.4619,-0.4742,-0.5177,-0.5177,-0.5177,-0.5239,-0.53,-0.5485,-0.5607,-0.5732,-0.5857,-0.5919,-0.5919,-0.5919,-0.5919,-0.5919,-0.5919,-0.5919,-0.5919,-0.5919,-0.6039,-0.6039,-0.6403,-0.6705,-0.7008,-0.7378,-0.8227,-0.841,-0.8471,-0.8593,-0.9508,-0.9876,-0.9997,-1.0732,-1.1099,-1.1345,-1.1409,-1.1651,-1.1837,-1.1776,-1.1776,-1.1837,-1.1837,-1.1837,-1.1837,-1.1893,-1.207,-1.2251,-1.2487,-1.2608,-1.2733,-1.2853,-1.3093,-1.3389,-1.3559,-1.3854,-1.4277,-1.458,-1.4878,-1.5061,-1.524,-1.5483,-1.5661,-1.5661,-1.5601,-1.5952,-1.6591,-1.7173,-1.7812,-1.8279,-1.8861,-1.9274,-1.9917,-2.0392,0.4491,0.4486,0.4491,0.4525,0.4567,0.4644,0.4508,0.4427,0.4403,0.43,0.4118,0.4104,0.3632,0.2824,0.2689,0.2285,0.1747,0.1478,0.1277,0.1143,0.1076,0.1681,0.1748,0.168,0.1613,0.2151,0.168,0.1075,0.1075,0.0605,0.0134,-0.0334,-0.0721,-0.1158,-0.1993,-0.2068,-0.241,-0.2901,-0.3023,-0.3391,-0.3758,-0.3943,-0.4067,-0.4252,-0.4313,-0.4313,-0.4436,-0.4744,-0.4867,-0.4928,-0.5485,-0.5671,-0.5732,-0.5855,-0.5919,-0.5919,-0.5919,-0.5919,-0.5919,-0.5919,-0.5919,-0.5919,-0.5919,-0.6039,-0.5978,-0.6101,-0.6405,-0.7317,-0.7436,-0.78,-0.8288,-0.8775,-0.8836,-0.9083,-0.9815,-1.0365,-1.055,-1.0675,-1.0857,-1.0978,-1.1466,-1.1772,-1.1776,-1.1837,-1.1837,-1.1837,-1.1837,-1.1833,-1.1953,-1.2014,-1.2191,-1.2251,-1.2376,-1.2496,-1.2733,-1.2784,-1.3024,-1.3504,-1.3928,-1.4346,-1.452,-1.4639,-1.4937,-1.5364,-1.5477,-1.5294,-1.5477,-1.572,-1.636,-1.6997,-1.7812,-1.8338,-1.8687,-1.9036,-1.957,0.4481,0.4481,0.4481,0.4473,0.4459,0.4458,0.4432,0.4395,0.4357,0.4327,0.4311,0.4307,0.4171,0.3834,0.3699,0.343,0.3228,0.316,0.3026,0.2218,0.2151,0.2286,0.2487,0.2554,0.2689,0.316,0.2756,0.2151,0.2151,0.1747,0.1143,0.0601,0.0327,-0.0447,-0.1572,-0.2043,-0.2162,-0.2285,-0.2407,-0.2653,-0.3207,-0.333,-0.3453,-0.3821,-0.3821,-0.376,-0.376,-0.4066,-0.4189,-0.4312,-0.4868,-0.5235,-0.536,-0.5485,-0.5855,-0.5857,-0.5919,-0.5919,-0.5919,-0.5919,-0.5919,-0.5919,-0.5919,-0.5919,-0.5919,-0.5919,-0.6162,-0.6344,-0.6523,-0.6768,-0.6768,-0.7559,-0.7861,-0.8044,-0.8653,-0.9143,-0.9387,-0.9511,-0.9633,-0.9815,-1.0122,-1.1039,-1.1409,-1.147,-1.147,-1.1651,-1.1712,-1.1776,-1.1893,-1.1893,-1.1953,-1.1953,-1.2018,-1.2018,-1.2074,-1.2311,-1.2548,-1.2909,-1.3389,-1.3868,-1.3983,-1.3978,-1.4336,-1.4759,-1.4932,-1.5051,-1.5235,-1.5418,-1.5661,-1.6242,-1.6997,-1.7461,-1.7578,-1.8104,-1.8745,0.4698,0.4422,0.4422,0.4401,0.4373,0.439,0.4388,0.4362,0.4324,0.4307,0.4307,0.4307,0.4307,0.4307,0.4307,0.4307,0.4307,0.4239,0.4104,0.3295,0.3228,0.3295,0.3295,0.3228,0.3565,0.3969,0.3699,0.3228,0.3228,0.2554,0.2069,0.1648,0.1171,0.0318,-0.0686,-0.105,-0.1419,-0.1543,-0.1728,-0.2223,-0.2592,-0.2716,-0.2838,-0.3085,-0.3145,-0.3208,-0.3268,-0.3453,-0.3575,-0.376,-0.4127,-0.4556,-0.4742,-0.5112,-0.5485,-0.5546,-0.5794,-0.5855,-0.5919,-0.5919,-0.5919,-0.5919,-0.5919,-0.5919,-0.5919,-0.5919,-0.5919,-0.5978,-0.5919,-0.5916,-0.6099,-0.6827,-0.695,-0.7192,-0.7617,-0.8169,-0.841,-0.8474,-0.8839,-0.8961,-0.9204,-1.0122,-1.0796,-1.1042,-1.1099,-1.1345,-1.1526,-1.1591,-1.1712,-1.1776,-1.1776,-1.1837,-1.1837,-1.1837,-1.1957,-1.2074,-1.2251,-1.2367,-1.2788,-1.3213,-1.3324,-1.3315,-1.3739,-1.4102,-1.4277,-1.452,-1.4997,-1.524,-1.5294,-1.5591,-1.6124,-1.6414,-1.6532,-1.7109,-1.787,0.5047,0.4374,0.4374,0.4447,0.4385,0.4503,0.4428,0.4311,0.4308,0.4307,0.4307,0.4307,0.4307,0.4307,0.4307,0.4307,0.4307,0.4307,0.4239,0.4171,0.4037,0.4104,0.4104,0.4104,0.4171,0.4239,0.4104,0.3902,0.4172,0.3834,0.3319,0.267,0.2006,0.1459,0.0936,0.0309,-0.0185,-0.0555,-0.0987,-0.1296,-0.1481,-0.1667,-0.1728,-0.1913,-0.2036,-0.216,-0.2345,-0.2653,-0.29,-0.3146,-0.3515,-0.376,-0.4066,-0.4558,-0.4742,-0.5051,-0.5485,-0.5546,-0.5732,-0.5732,-0.5857,-0.5855,-0.5919,-0.5919,-0.5919,-0.5919,-0.5919,-0.5919,-0.5919,-0.5919,-0.6039,-0.6039,-0.6101,-0.6464,-0.6888,-0.7194,-0.7436,-0.7742,-0.823,-0.8413,-0.8532,-0.9083,-0.9451,-0.9754,-1.0304,-1.0365,-1.055,-1.0796,-1.0978,-1.1716,-1.1776,-1.1837,-1.1837,-1.1837,-1.1897,-1.1953,-1.2014,-1.213,-1.2074,-1.2376,-1.2487,-1.2779,-1.3084,-1.3384,-1.3629,-1.3988,-1.4401,-1.4699,-1.4813,-1.511,-1.5407,-1.5769,-1.5941,-1.6414,-1.6997,0.5982,0.5781,0.5781,0.5783,0.5718,0.527,0.4795,0.4375,0.4307,0.4307,0.4307,0.4307,0.4307,0.4307,0.4307,0.4307,0.4307,0.4307,0.4307,0.4307,0.4307,0.4307,0.4307,0.4307,0.4307,0.4307,0.4307,0.4307,0.4307,0.4307,0.4206,0.3677,0.3106,0.2993,0.2634,0.2107,0.1359,0.0678,0.0185,-0.0123,-0.0123,-0.0123,-0.0432,-0.074,-0.0925,-0.1172,-0.1852,-0.2037,-0.2284,-0.2408,-0.2962,-0.3268,-0.333,-0.3821,-0.4189,-0.419,-0.4436,-0.4621,-0.5051,-0.5174,-0.5298,-0.5671,-0.5794,-0.5857,-0.5919,-0.5855,-0.5857,-0.5919,-0.5919,-0.5919,-0.5919,-0.5919,-0.5919,-0.6099,-0.6403,-0.6526,-0.6707,-0.683,-0.7258,-0.7378,-0.7497,-0.7986,-0.8352,-0.8839,-0.9268,-0.9326,-0.9511,-0.9815,-1.0308,-1.1042,-1.147,-1.153,-1.1837,-1.1837,-1.1837,-1.1897,-1.1837,-1.1837,-1.1837,-1.1837,-1.2014,-1.2311,-1.2427,-1.2728,-1.3089,-1.3449,-1.3868,-1.4043,-1.4097,-1.4277,-1.4515,-1.4997,-1.5472,-1.5887,-1.6183,0.665,0.6453,0.6386,0.6386,0.6317,0.5984,0.5515,0.5111,0.4575,0.4307,0.4307,0.4307,0.4307,0.4307,0.4307,0.4307,0.4307,0.4307,0.4307,0.4307,0.4307,0.4307,0.4307,0.4307,0.4307,0.4307,0.4307,0.4307,0.4307,0.4298,0.4203,0.4111,0.4135,0.4078,0.3698,0.3158,0.2777,0.2096,0.148,0.1171,0.1048,0.1109,0.0555,0.0246,0.0123,-0.0493,-0.1234,-0.1358,-0.1543,-0.1915,-0.2531,-0.2592,-0.2715,-0.3146,-0.376,-0.3821,-0.4006,-0.4189,-0.4435,-0.4498,-0.4744,-0.4991,-0.5176,-0.5237,-0.5546,-0.5669,-0.5794,-0.5919,-0.5919,-0.5919,-0.5919,-0.5919,-0.5919,-0.5919,-0.5919,-0.5916,-0.5916,-0.5916,-0.6039,-0.6101,-0.6464,-0.6952,-0.7439,-0.7986,-0.8291,-0.841,-0.8714,-0.914,-0.9633,-1.0304,-1.0736,-1.0917,-1.147,-1.1837,-1.1776,-1.1712,-1.1776,-1.1776,-1.1837,-1.1837,-1.1837,-1.1893,-1.2134,-1.2371,-1.2612,-1.2913,-1.3209,-1.3324,-1.3384,-1.3564,-1.3803,-1.4222,-1.4823,-1.5418,-1.5596,0.7183,0.6652,0.6585,0.6654,0.6451,0.6518,0.6451,0.6252,0.5111,0.4441,0.4441,0.4441,0.4441,0.4307,0.4307,0.4307,0.4307,0.4307,0.4307,0.4307,0.4307,0.4307,0.4307,0.4307,0.4307,0.4307,0.4307,0.4307,0.4307,0.4298,0.4253,0.4072,0.4062,0.4015,0.3935,0.3791,0.3532,0.3272,0.235,0.1733,0.1542,0.1356,0.1171,0.1171,0.0986,0.0678,-0.0123,-0.0555,-0.0802,-0.1482,-0.1853,-0.1852,-0.2285,-0.2531,-0.3145,-0.339,-0.3452,-0.3637,-0.3758,-0.3821,-0.3943,-0.4004,-0.3944,-0.4375,-0.4805,-0.536,-0.5546,-0.5855,-0.5919,-0.5919,-0.5919,-0.5919,-0.5919,-0.5919,-0.5919,-0.5919,-0.5919,-0.5919,-0.5916,-0.5978,-0.6039,-0.6464,-0.6587,-0.7013,-0.7258,-0.7436,-0.762,-0.8105,-0.8593,-0.9268,-0.9815,-1.0061,-1.049,-1.0917,-1.1345,-1.1345,-1.1591,-1.1712,-1.1716,-1.1837,-1.1837,-1.1837,-1.1837,-1.2014,-1.2255,-1.2311,-1.2487,-1.2608,-1.2788,-1.3089,-1.3329,-1.3509,-1.4047,-1.4704,-1.5116,0.8253,0.8056,0.8053,0.7786,0.725,0.725,0.6918,0.6386,0.6051,0.5647,0.5181,0.5112,0.4844,0.4441,0.4374,0.4374,0.4307,0.4307,0.4307,0.4307,0.4307,0.4307,0.4307,0.4307,0.4307,0.4307,0.4307,0.4307,0.4307,0.4298,0.4274,0.4195,0.4154,0.408,0.395,0.3942,0.3923,0.3841,0.3417,0.292,0.2908,0.2963,0.296,0.2466,0.2034,0.1602,0.0986,0.0616,0.0062,-0.0617,-0.0802,-0.1234,-0.1976,-0.2161,-0.2285,-0.2469,-0.2592,-0.2838,-0.3083,-0.3206,-0.3329,-0.3698,-0.3821,-0.3944,-0.4313,-0.4805,-0.5298,-0.5607,-0.5855,-0.5855,-0.5857,-0.5857,-0.5857,-0.5857,-0.5919,-0.5919,-0.5919,-0.5919,-0.5919,-0.5919,-0.5919,-0.5916,-0.5978,-0.6039,-0.616,-0.6283,-0.6342,-0.6587,-0.7011,-0.7561,-0.8413,-0.8781,-0.9143,-0.963,-1.0304,-1.0796,-1.0917,-1.1345,-1.153,-1.1651,-1.1776,-1.1837,-1.1837,-1.1837,-1.1893,-1.201,-1.207,-1.2014,-1.2255,-1.2552,-1.2733,-1.2909,-1.3324,-1.3918,-1.4396,0.8587,0.8587,0.8587,0.8387,0.8051,0.7982,0.7717,0.7455,0.7388,0.6985,0.6315,0.5982,0.5448,0.4844,0.4777,0.4508,0.4374,0.4307,0.4307,0.4307,0.4307,0.4307,0.4307,0.4307,0.4307,0.4307,0.4307,0.4307,0.4307,0.4301,0.4275,0.4214,0.4154,0.41,0.3979,0.3952,0.3943,0.3927,0.3944,0.3936,0.3916,0.3844,0.3704,0.3208,0.296,0.2528,0.2034,0.1602,0.1048,0.0493,0.0185,-0.037,-0.0987,-0.1295,-0.1605,-0.1914,-0.2162,-0.2161,-0.2407,-0.2653,-0.2776,-0.3085,-0.3085,-0.3023,-0.3453,-0.4006,-0.4496,-0.4867,-0.5298,-0.5298,-0.5607,-0.5671,-0.5732,-0.5794,-0.5855,-0.5919,-0.5919,-0.5919,-0.5919,-0.5919,-0.5919,-0.5919,-0.5916,-0.5916,-0.6039,-0.6039,-0.5978,-0.5916,-0.616,-0.6342,-0.7013,-0.7622,-0.8047,-0.8653,-0.9387,-0.9815,-1.0001,-1.055,-1.1163,-1.1405,-1.147,-1.1712,-1.1837,-1.1837,-1.1837,-1.1837,-1.1837,-1.1837,-1.1837,-1.2074,-1.2195,-1.2311,-1.2724,-1.314,-1.3679,0.8587,0.8587,0.8587,0.8587,0.8587,0.8587,0.8587,0.852,0.8587,0.8184,0.7584,0.6985,0.625,0.5716,0.5515,0.4978,0.471,0.4642,0.4575,0.4307,0.4307,0.4307,0.4307,0.4307,0.4307,0.4307,0.4307,0.4307,0.4307,0.4301,0.4274,0.4211,0.4158,0.4105,0.3981,0.3958,0.396,0.3975,0.3982,0.3966,0.3946,0.3922,0.3836,0.3888,0.3826,0.3455,0.2899,0.2528,0.2096,0.1479,0.0986,0.037,0.0,-0.0308,-0.0678,-0.1049,-0.1482,-0.1605,-0.179,-0.2037,-0.2099,-0.21,-0.1977,-0.2285,-0.2776,-0.3268,-0.376,-0.4127,-0.4496,-0.4867,-0.5114,-0.53,-0.5362,-0.5485,-0.5546,-0.5732,-0.5732,-0.5794,-0.5855,-0.5855,-0.5855,-0.5855,-0.5857,-0.5857,-0.5857,-0.5857,-0.5919,-0.5919,-0.5916,-0.6039,-0.6405,-0.6832,-0.7197,-0.7805,-0.8474,-0.8778,-0.8961,-0.9633,-1.0183,-1.0736,-1.1224,-1.153,-1.1712,-1.1837,-1.1837,-1.1776,-1.1776,-1.1837,-1.1837,-1.1837,-1.1893,-1.2074,-1.2191,-1.2608,-1.3024,0.8587,0.8587,0.8587,0.8587,0.8587,0.8587,0.8587,0.8587,0.8587,0.852,0.832,0.8187,0.7522,0.6252,0.6252,0.585,0.5247,0.518,0.471,0.4374,0.4508,0.4374,0.4307,0.4374,0.4307,0.4307,0.4307,0.4307,0.4307,0.4301,0.4255,0.4165,0.4203,0.415,0.4005,0.4009,0.4056,0.4117,0.4123,0.4124,0.407,0.3966,0.39,0.3888,0.3888,0.3765,0.364,0.364,0.3085,0.2343,0.1602,0.1109,0.0863,0.0678,0.0432,0.0,-0.0493,-0.074,-0.0863,-0.1419,-0.1605,-0.1791,-0.1853,-0.2038,-0.247,-0.2777,-0.3145,-0.3267,-0.3637,-0.4067,-0.4315,-0.4315,-0.4376,-0.4559,-0.4682,-0.4989,-0.5174,-0.5421,-0.5671,-0.5671,-0.5671,-0.5732,-0.5794,-0.5794,-0.5794,-0.5855,-0.5919,-0.5919,-0.5919,-0.5919,-0.5919,-0.6162,-0.6467,-0.6891,-0.7497,-0.762,-0.7925,-0.8596,-0.9268,-0.9876,-1.055,-1.1405,-1.1591,-1.1163,-1.147,-1.1651,-1.1712,-1.1591,-1.1837,-1.1837,-1.1837,-1.1893,-1.1953,-1.213,-1.2608]}]]